GFSGBSN_sfc_thetae_000.txt.gz
Theta_e
325 324 322 322 320 318 317 317 317 316 316 316 315 316 316 316 316 316 316 317 318 319 319 319 320 319 312 303 300 309 319 317 319 317 316 317 308 305 302 303 304 300 303 305 306 306 305
324 324 324 322 321 320 318 317 317 316 317 317 316 316 315 316 316 316 316 316 317 318 319 319 319 319 305 295 307 311 310 309 314 314 315 318 311 308 305 304 304 305 305 305 305 305 302
324 323 323 321 321 320 319 316 316 316 317 316 317 316 316 315 315 316 316 316 316 318 318 318 318 312 304 299 307 310 311 308 311 314 312 319 319 310 309 305 307 305 300 302 301 302 302
324 322 321 321 320 320 319 317 316 317 317 317 317 317 316 316 315 316 316 317 316 318 317 317 317 307 297 310 311 308 309 310 311 316 316 323 322 312 309 308 301 298 296 292 298 299 300
324 323 321 321 320 320 320 319 317 316 317 316 317 316 316 316 316 317 316 316 316 316 316 316 308 304 296 312 305 308 308 305 310 313 318 324 316 309 309 301 297 296 292 290 294 298 297
323 323 323 321 321 320 320 320 317 316 316 316 317 316 314 315 316 316 317 315 315 312 311 310 308 298 299 299 305 307 308 307 308 309 310 314 310 304 302 297 292 293 292 289 290 294 294
322 322 322 322 321 321 319 319 317 316 316 316 317 317 315 315 315 317 315 309 299 297 302 297 297 297 301 304 308 306 307 305 306 305 301 309 302 298 299 303 298 295 291 292 292 295 291
321 321 321 321 320 320 319 318 317 316 316 316 318 317 315 314 316 317 312 300 300 303 293 300 302 300 304 307 300 303 308 301 301 292 303 303 297 303 303 302 301 295 293 289 294 295 292
321 321 321 321 320 319 318 317 317 316 315 316 317 316 315 315 317 315 306 303 312 308 295 296 300 300 301 304 299 300 305 302 298 292 299 298 302 306 304 298 297 294 293 291 292 294 293
321 321 321 321 321 320 319 317 316 316 316 317 317 316 314 315 310 310 305 310 312 309 287 290 294 298 302 302 296 306 307 304 300 292 299 301 305 304 302 299 299 294 296 296 293 289 285
322 322 322 321 320 320 319 318 317 316 317 317 317 316 316 315 310 306 310 311 311 305 275 291 294 305 303 297 299 301 307 304 296 296 301 298 301 301 300 301 301 297 298 296 294 288 284
322 322 322 322 321 320 320 319 318 317 317 316 316 316 316 312 312 312 313 312 305 287 277 288 296 294 294 296 299 302 303 308 306 299 298 297 304 304 303 303 301 300 295 293 290 286 281
322 322 322 322 321 321 320 320 319 318 317 316 315 315 313 314 307 315 312 304 286 281 291 288 289 294 293 292 295 298 296 295 294 290 291 294 299 300 303 296 297 296 292 285 283 281 281
322 321 321 321 321 321 320 320 319 318 317 316 315 314 313 313 316 313 307 292 282 288 287 295 293 293 290 294 295 295 296 295 299 292 293 290 289 293 295 298 294 293 290 283 280 279 281
321 320 320 320 320 320 320 319 318 318 317 315 314 308 309 312 316 311 297 285 287 291 294 293 293 288 290 293 295 296 294 294 299 296 290 290 289 291 295 294 299 289 288 290 285 281 281
320 320 319 319 319 320 320 318 318 318 316 315 306 301 303 314 315 306 293 288 294 300 298 295 288 292 289 291 293 293 294 300 299 299 296 291 284 292 291 294 293 291 293 286 285 280 279
320 319 319 319 319 319 319 317 317 317 316 313 303 297 309 314 313 301 290 290 299 301 300 296 293 291 293 290 294 292 293 298 300 296 295 291 288 288 291 289 288 288 286 286 287 284 280
319 319 318 319 318 318 318 317 317 317 315 305 298 293 311 313 299 300 294 301 301 302 304 301 300 297 294 293 293 293 293 296 301 300 294 294 288 285 288 291 291 288 288 287 284 281 280
319 318 318 318 316 316 317 317 316 316 313 298 295 302 311 310 295 296 301 300 302 301 302 301 296 298 297 293 292 296 297 300 301 299 296 296 288 284 287 289 290 288 287 287 286 284 280
318 318 317 317 316 315 316 316 315 315 314 300 297 295 302 304 302 297 298 297 298 304 302 302 298 298 297 295 296 293 294 298 301 300 303 301 291 287 285 286 289 287 288 287 287 282 282
318 317 317 317 316 315 315 315 314 315 314 302 294 296 298 292 295 296 298 299 297 297 301 301 298 297 295 292 292 292 294 295 297 301 296 296 289 288 287 289 290 289 289 287 286 288 286
317 317 317 316 316 315 315 314 314 314 311 299 293 292 295 292 294 295 294 294 294 295 297 298 296 297 296 294 293 292 294 293 293 294 293 295 287 287 283 287 286 286 288 288 287 287 285
317 317 316 315 315 314 314 314 314 313 308 297 295 298 296 293 291 292 293 295 295 296 296 297 297 296 293 294 293 295 294 294 295 294 291 290 287 286 282 285 284 282 285 288 287 287 289
317 316 316 315 314 313 313 314 314 313 307 299 297 296 291 290 292 292 294 294 293 294 293 293 295 296 293 295 296 296 295 294 293 291 291 288 286 284 280 282 276 284 290 288 288 288 290
316 316 315 314 314 313 313 314 314 313 311 298 298 296 291 287 289 289 290 290 290 290 291 291 292 293 296 294 291 292 290 289 290 290 290 290 287 284 282 280 284 287 288 289 289 288 292
316 316 315 314 313 312 313 313 314 313 311 299 298 298 293 290 288 291 289 288 287 286 287 289 291 293 294 293 290 287 285 288 285 286 289 289 289 286 279 279 279 286 291 293 294 286 293
316 315 315 313 312 312 313 313 313 313 311 303 299 300 296 290 291 291 289 289 289 287 285 286 288 289 291 288 286 285 284 286 283 283 284 284 284 283 284 282 285 290 293 294 285 286 293
314 315 314 312 312 312 313 312 312 312 311 305 301 301 299 292 292 296 295 291 290 290 288 288 290 290 289 287 287 285 284 286 285 285 283 283 281 281 282 281 281 291 292 289 290 290 292
312 314 313 311 311 312 312 312 312 312 311 308 300 302 302 296 295 298 299 298 297 296 291 289 291 289 291 288 286 286 284 283 285 284 287 285 287 285 286 285 291 291 291 292 293 291 291

GFSGBSN_sfc_thetae_003.txt.gz
Theta_e
327 324 324 325 323 321 319 317 316 317 317 317 316 315 316 316 316 316 316 316 318 319 320 320 320 320 313 305 303 311 318 316 315 318 313 313 312 308 306 307 305 303 306 307 308 308 308
326 324 323 324 323 323 322 319 317 317 316 317 317 316 316 316 316 316 316 317 317 318 319 319 319 319 307 297 309 312 310 309 310 315 313 314 313 310 308 306 307 307 307 308 308 308 306
325 325 323 323 322 321 322 320 317 316 316 317 317 317 317 317 316 316 316 317 317 317 319 319 319 312 304 300 309 310 311 308 309 314 310 315 318 311 310 306 309 307 304 305 305 306 306
324 325 324 322 322 321 320 320 318 317 317 317 318 318 318 317 316 316 316 317 318 318 318 317 315 308 298 311 312 309 308 307 310 314 315 317 320 314 310 310 305 304 302 299 304 303 303
324 324 324 323 322 322 321 320 319 317 317 317 317 317 318 317 316 316 317 317 318 317 317 315 308 304 296 312 306 308 307 304 308 314 316 317 318 312 309 302 298 299 295 295 299 303 302
322 323 323 323 322 322 322 320 320 318 316 316 317 318 318 317 315 316 317 317 317 315 312 311 307 298 301 299 306 307 308 307 305 310 309 310 311 305 305 301 293 292 295 295 294 299 298
321 323 323 323 322 321 321 320 319 318 316 316 318 318 318 317 314 315 314 312 302 300 302 296 296 296 301 304 308 305 307 304 304 306 296 305 301 298 301 303 301 296 296 296 297 298 296
321 323 322 322 322 321 320 319 318 317 315 315 317 318 318 317 315 315 314 301 301 302 293 300 300 300 303 306 300 303 306 298 299 294 299 300 297 304 304 303 300 297 295 294 296 297 296
321 321 323 322 321 321 320 318 317 316 316 315 317 317 315 313 314 314 308 305 310 308 293 296 298 299 301 302 298 299 302 300 298 293 295 295 300 306 303 300 300 296 294 294 295 296 296
322 322 323 322 321 320 320 319 318 316 315 316 317 317 316 313 310 311 305 310 309 306 286 290 293 296 301 302 295 304 304 301 299 292 295 299 304 303 302 299 300 296 297 298 295 294 290
321 322 322 322 322 321 320 320 319 318 317 316 316 316 316 313 309 306 308 310 308 301 276 292 293 304 302 296 298 299 306 302 296 294 297 297 300 300 299 300 301 298 301 299 297 293 289
321 322 322 322 321 321 320 320 320 319 318 317 316 315 315 311 311 311 311 311 305 285 276 288 294 293 293 296 297 300 300 304 305 296 297 299 305 305 303 303 303 297 296 295 292 289 285
320 321 322 322 321 321 320 320 320 320 319 317 316 315 312 313 306 313 310 302 285 279 290 287 289 292 291 290 292 295 293 293 292 288 288 296 300 303 306 297 298 297 296 287 284 283 284
321 321 321 321 321 320 320 320 320 319 319 317 315 314 312 310 314 311 306 292 281 287 285 293 291 291 288 291 292 293 292 288 296 293 289 289 289 296 301 299 295 296 295 288 282 282 284
320 320 320 320 320 320 320 320 319 318 317 316 314 307 307 310 314 310 295 284 285 289 290 290 290 286 287 291 292 292 291 290 294 296 289 288 290 294 298 297 300 292 292 294 286 285 284
319 319 320 320 319 319 319 319 318 318 317 315 305 303 304 312 312 304 289 287 290 294 296 292 285 288 283 288 288 290 291 295 296 298 296 293 285 292 292 296 294 296 296 289 287 283 281
320 319 319 320 319 318 318 318 317 317 317 313 304 295 308 314 309 299 287 288 294 301 297 292 291 289 290 288 289 290 289 298 301 298 296 291 289 288 291 291 288 290 290 289 289 287 283
318 319 319 319 318 317 317 317 317 316 313 308 296 294 311 312 296 296 292 294 299 298 300 297 296 296 292 290 288 291 292 296 304 301 292 292 289 284 287 292 293 292 291 291 286 283 283
316 319 319 318 317 316 316 316 316 315 313 297 293 301 312 309 293 293 298 297 300 299 300 298 295 297 295 292 291 295 297 301 302 301 295 295 289 284 288 291 292 289 289 289 288 286 282
315 318 318 317 316 315 315 315 315 314 313 300 295 296 302 303 302 298 298 297 297 304 302 303 296 298 295 293 295 293 296 299 302 301 304 300 290 288 285 287 289 287 287 287 289 284 284
311 317 318 317 316 316 315 314 314 314 314 302 293 292 297 292 296 297 299 298 296 297 302 302 298 295 295 291 292 292 296 296 299 302 299 297 290 288 287 290 290 290 289 287 287 290 288
310 315 317 317 316 316 314 314 313 313 313 301 292 290 292 293 292 296 296 297 296 296 298 297 296 295 297 294 294 291 294 294 295 294 294 295 288 288 284 288 289 288 289 290 289 287 288
309 311 317 317 316 315 314 313 313 313 309 296 295 295 293 294 291 292 293 296 296 297 298 296 298 295 296 295 295 297 297 296 298 293 290 292 288 287 285 286 286 284 286 288 289 289 291
308 310 314 316 315 314 313 312 312 313 307 298 296 295 291 291 291 292 293 295 295 295 296 292 295 295 294 296 295 296 295 294 297 292 293 290 289 287 281 285 278 287 290 290 289 288 289
307 310 312 316 315 313 312 312 313 313 311 298 297 295 290 288 291 291 292 291 291 293 290 291 292 293 294 294 294 291 291 290 290 290 290 290 289 285 282 280 284 288 288 288 288 288 292
307 308 310 316 314 313 312 312 313 313 313 299 297 297 291 289 288 290 289 289 289 289 289 290 293 295 295 293 291 287 286 287 285 287 289 290 290 289 281 280 280 287 291 294 293 286 293
306 308 309 315 314 312 311 311 312 313 312 301 298 299 294 290 291 289 288 290 290 288 288 288 290 292 295 291 287 285 285 287 285 284 285 285 285 284 285 282 285 291 293 293 285 287 293
304 305 307 314 313 312 311 312 312 312 311 304 299 299 297 293 293 294 294 290 290 289 288 288 291 291 290 290 289 286 286 285 284 285 285 285 283 282 283 282 281 293 293 289 291 291 292
304 305 306 312 312 311 312 312 312 312 311 307 298 300 300 295 295 298 297 297 295 295 289 288 290 288 290 287 286 285 284 285 285 284 287 285 287 285 286 285 291 291 292 292 292 291 291

GFSGBSN_sfc_thetae_006.txt.gz
Theta_e
325 328 325 324 325 324 323 320 318 318 318 318 318 317 316 316 316 316 316 316 316 318 319 320 320 320 316 306 306 318 317 316 317 320 316 311 311 313 310 312 312 309 310 312 313 313 312
324 326 326 324 323 323 322 323 321 318 318 317 318 318 317 317 316 315 316 316 317 317 318 320 320 320 310 298 314 316 316 314 312 316 314 313 313 316 311 312 311 312 311 311 313 312 313
322 324 326 324 323 323 322 322 321 319 318 317 318 318 317 318 317 317 315 316 317 317 318 319 319 315 306 302 312 313 312 311 313 312 312 315 315 315 313 311 316 313 308 310 311 312 311
322 324 325 325 324 323 322 321 321 319 318 317 318 319 319 319 317 317 316 316 317 319 317 316 316 312 300 312 315 312 312 310 313 313 314 316 315 312 313 315 312 309 309 302 309 311 312
322 324 324 324 324 323 323 322 322 321 319 318 317 318 318 319 318 317 317 317 318 318 317 316 310 306 298 312 307 311 312 306 309 311 312 315 312 309 312 304 303 307 300 301 303 311 310
322 323 323 323 324 323 322 322 321 320 320 318 318 318 319 319 318 317 316 316 318 316 313 311 309 300 302 300 307 308 311 309 306 309 308 308 305 303 306 302 294 297 299 302 301 306 305
322 323 323 323 323 323 322 321 321 319 320 318 318 318 318 319 318 315 313 311 302 301 303 297 298 298 301 306 310 306 309 305 306 304 296 303 295 294 302 304 304 303 302 301 304 306 303
322 322 322 322 322 323 322 320 320 319 318 317 317 317 318 319 318 316 313 305 303 305 295 301 301 301 305 306 300 304 309 299 298 293 299 297 292 302 305 305 304 303 300 299 304 303 302
322 322 322 322 323 322 321 320 320 318 317 317 316 317 317 317 314 311 309 307 310 308 293 296 299 299 300 303 299 301 304 300 296 292 295 293 297 304 304 303 301 302 299 300 300 302 302
321 322 322 323 322 322 322 321 320 319 318 317 317 317 317 314 308 311 307 308 308 307 286 289 294 297 301 303 296 304 306 300 298 292 295 294 301 302 301 301 303 298 305 303 301 299 296
322 322 321 322 321 321 321 321 320 320 319 317 317 316 317 314 310 305 307 308 307 302 278 292 294 304 301 296 298 299 307 300 294 294 294 292 297 296 299 301 305 300 305 304 302 299 298
321 320 321 321 321 320 321 321 320 320 320 318 317 316 315 313 312 310 309 308 304 285 277 289 294 293 293 296 297 300 300 303 302 296 296 296 304 300 304 305 306 304 302 300 299 297 292
319 320 320 321 321 320 320 320 320 320 319 319 317 316 313 312 305 313 310 301 285 281 290 288 289 293 291 290 292 294 294 292 289 288 287 291 291 304 307 301 300 303 299 289 289 288 290
317 318 320 321 320 320 320 320 320 320 319 318 317 315 313 311 314 313 304 292 282 287 287 292 292 292 288 292 291 293 292 289 293 294 289 286 288 300 306 302 296 298 300 293 285 288 291
313 318 319 319 320 320 320 319 319 319 318 317 315 310 308 311 315 309 295 284 286 289 290 289 291 287 288 291 291 291 291 290 293 294 288 287 288 300 304 303 302 296 294 300 292 292 291
311 313 318 319 319 319 319 319 318 318 317 316 306 304 304 311 313 304 289 288 290 295 293 294 286 290 286 288 289 291 290 293 293 297 301 294 288 296 297 304 298 300 303 292 294 287 285
309 312 317 318 319 318 318 318 318 318 317 314 306 299 308 312 309 296 286 289 293 298 296 292 290 288 290 289 290 290 290 295 296 298 300 298 296 289 298 295 295 298 295 297 296 293 290
310 311 316 317 318 317 318 317 318 317 314 310 304 297 310 310 294 294 290 292 297 298 299 294 295 293 290 292 289 289 291 296 299 302 296 300 297 290 291 296 301 301 298 298 293 289 292
309 310 313 317 317 317 317 316 317 316 312 304 301 302 310 306 291 291 296 295 296 297 297 295 296 297 296 292 288 292 295 299 301 301 299 300 295 289 289 293 294 295 298 301 299 295 291
309 309 310 315 316 316 316 315 315 315 315 306 301 296 302 303 302 297 295 294 295 302 299 301 299 300 296 292 295 293 296 301 304 302 304 301 297 294 290 293 297 294 295 299 299 293 293
309 308 309 311 316 316 315 315 315 315 313 306 300 299 302 293 295 296 297 297 294 296 302 303 299 299 295 292 294 294 298 299 302 304 303 301 294 296 295 296 297 296 295 295 294 297 293
308 309 309 310 314 316 315 314 314 314 313 303 298 297 300 300 300 298 296 296 294 298 297 296 297 299 299 295 297 295 298 299 298 301 301 302 294 293 291 294 296 294 296 297 297 298 297
306 307 309 310 311 316 315 313 313 313 310 302 303 301 299 298 296 297 295 298 296 298 299 300 301 299 298 300 304 304 305 305 303 300 299 298 296 293 290 291 292 290 294 295 296 298 297
305 307 308 309 311 315 314 313 313 313 310 304 303 302 297 294 296 294 297 298 297 299 298 296 298 300 300 301 303 305 303 300 302 299 304 298 295 293 288 289 284 295 295 299 297 299 300
305 306 307 309 310 315 314 313 312 313 311 305 303 302 298 294 296 294 295 295 294 293 292 294 293 295 301 298 298 295 293 294 293 292 294 301 295 291 287 287 291 291 293 293 294 296 298
304 306 305 306 307 313 313 312 312 313 313 305 302 305 299 294 295 294 293 296 294 293 292 292 295 298 298 297 298 290 288 292 288 289 292 294 298 293 287 286 285 292 295 298 298 291 297
304 304 304 306 307 311 312 312 312 312 312 305 303 305 301 295 297 295 294 295 295 293 291 293 293 295 299 295 292 291 292 293 289 289 289 289 290 290 290 289 291 295 297 299 290 293 298
303 304 304 305 306 308 312 311 311 312 312 307 305 305 304 298 299 300 298 294 293 296 293 293 296 295 294 294 293 290 291 291 291 293 292 291 289 289 290 288 285 297 295 293 297 299 299
302 303 303 305 305 307 312 311 312 312 312 309 303 305 306 301 300 302 303 302 299 299 294 292 297 295 297 293 294 293 290 290 291 288 291 290 295 292 293 293 295 296 297 298 301 298 297

GFSGBSN_sfc_thetae_009.txt.gz
Theta_e
324 326 326 327 325 324 325 324 321 319 319 318 318 319 318 317 317 317 317 316 316 316 318 319 320 320 317 307 306 319 318 316 318 321 316 314 308 308 307 311 311 309 311 312 313 313 313
324 324 325 326 326 324 324 323 324 321 320 319 318 318 318 318 318 317 317 316 317 316 316 318 320 320 311 298 315 318 318 316 314 316 315 316 310 311 308 308 309 312 312 312 313 312 313
324 322 324 326 326 325 323 322 323 324 321 319 318 318 319 318 318 318 317 316 317 316 316 317 318 316 307 303 313 316 315 313 314 313 312 316 315 310 311 307 311 311 307 310 310 312 310
323 322 324 325 326 325 325 324 323 322 321 319 318 318 319 319 319 318 318 317 317 317 316 316 316 313 302 313 316 312 313 311 313 313 312 315 316 310 308 313 308 305 307 300 308 311 311
321 323 324 324 325 325 325 324 323 322 321 320 319 318 318 320 320 319 318 317 317 318 317 316 311 308 299 314 307 311 312 307 309 311 312 313 312 307 308 302 300 303 298 300 304 311 309
320 322 324 324 324 323 324 324 324 323 321 322 320 319 319 319 319 319 318 315 316 317 315 313 310 301 304 301 307 309 312 310 305 306 305 305 305 300 301 298 291 297 298 300 301 307 308
321 322 323 323 323 323 323 324 323 323 321 321 320 319 318 318 318 318 313 311 304 301 304 299 300 300 302 307 310 307 309 307 305 302 296 301 295 292 297 301 301 302 301 301 304 307 307
322 322 322 322 322 322 323 323 322 322 321 321 319 318 318 318 318 318 313 303 304 305 296 303 303 303 305 307 300 304 309 300 298 294 297 295 291 298 301 301 301 301 300 301 304 306 305
322 322 322 322 322 322 323 322 322 321 320 319 318 317 317 317 315 315 309 305 310 309 295 296 301 300 301 303 298 301 305 301 296 293 293 291 295 300 298 296 299 301 300 300 300 304 305
322 321 321 322 322 321 321 321 322 321 320 319 318 317 316 316 308 310 306 312 310 309 286 290 294 298 300 301 295 304 307 302 296 292 294 293 297 297 297 295 299 297 304 303 301 300 295
317 318 319 320 321 321 320 320 321 321 320 319 317 317 317 315 311 307 307 309 308 303 279 294 294 304 301 295 298 298 306 302 293 293 292 289 293 294 294 297 301 299 306 303 302 301 300
313 313 318 319 319 320 320 320 320 320 320 319 317 317 316 314 312 311 309 308 304 285 279 289 294 292 293 295 296 299 299 303 301 294 295 292 300 299 298 302 304 306 303 302 302 299 291
310 311 313 318 318 319 319 319 320 320 319 319 318 317 314 312 305 312 308 302 285 281 291 288 288 292 292 291 293 295 294 292 289 284 286 290 290 296 301 296 301 303 297 291 288 289 289
309 310 309 312 318 318 319 319 319 320 319 318 318 316 313 310 315 311 304 291 281 288 287 292 291 291 287 291 292 293 291 289 293 290 287 286 284 292 297 299 296 298 298 292 285 286 291
307 310 309 309 311 318 318 319 319 319 318 317 316 313 309 310 314 309 296 284 286 290 292 290 292 287 287 290 290 290 291 291 292 292 287 286 288 297 299 304 302 296 296 300 295 296 293
308 310 310 310 313 318 318 319 319 318 317 316 307 304 304 313 313 304 291 287 290 295 293 292 287 290 286 288 289 289 290 294 293 294 295 291 286 293 299 303 301 300 304 294 296 287 287
308 309 309 310 312 317 317 318 318 318 317 314 305 299 310 312 310 297 286 288 293 297 295 292 291 289 290 289 290 289 290 294 295 295 295 294 289 288 295 297 295 297 296 299 299 296 291
307 308 310 309 310 310 317 317 318 318 317 310 304 295 309 310 293 293 289 291 296 295 297 297 295 293 292 292 290 291 291 293 297 297 292 297 292 286 291 297 303 302 299 300 294 291 294
306 308 309 308 309 310 316 317 317 317 313 306 300 302 309 306 289 289 293 293 294 294 296 296 294 295 295 292 289 293 294 299 299 296 297 300 293 288 289 294 298 296 300 302 301 299 294
306 307 309 309 309 310 315 316 316 316 314 306 301 296 299 301 300 296 291 292 292 298 298 298 296 297 295 293 295 292 294 299 302 299 303 303 296 294 291 294 297 295 297 300 298 294 294
305 307 307 308 309 311 315 315 315 316 314 306 300 298 300 291 293 295 296 296 292 293 299 298 298 297 294 290 292 293 295 299 300 302 301 301 295 297 297 298 299 298 297 298 297 298 295
304 306 306 307 307 308 312 314 314 315 314 303 298 297 302 300 298 297 295 294 293 294 298 296 296 299 298 294 293 291 296 298 297 301 299 301 295 296 294 297 298 296 298 299 299 299 299
304 305 306 305 308 309 310 314 313 314 312 303 304 306 301 300 301 297 297 296 296 297 300 302 300 299 298 298 302 305 303 304 303 300 300 297 297 294 290 295 295 291 296 297 298 300 300
303 304 305 305 306 307 308 314 313 314 312 306 304 304 299 293 297 297 297 298 297 297 295 300 301 298 304 307 307 307 304 298 303 303 303 297 297 296 291 292 285 296 299 301 299 301 302
303 304 305 306 305 306 307 312 313 313 313 305 304 302 301 294 298 298 296 299 294 297 297 295 298 301 305 304 299 295 294 293 293 293 301 302 298 293 289 290 295 298 295 297 297 297 303
302 304 304 305 304 306 307 310 313 313 313 308 304 305 303 297 297 298 298 299 294 293 291 293 296 301 301 298 297 290 287 290 288 290 294 299 300 295 292 287 286 294 297 300 302 293 303
302 303 303 304 304 305 306 307 312 312 312 308 305 305 303 297 301 298 297 298 299 296 294 293 296 297 301 295 294 294 292 297 289 289 287 291 292 290 289 289 294 298 299 300 290 294 299
301 302 303 304 303 305 306 306 312 312 312 308 305 305 305 301 302 301 300 296 295 296 296 294 298 299 298 295 295 294 294 296 295 296 291 291 288 289 290 288 287 300 298 294 299 301 301
300 302 303 303 303 304 306 307 312 312 312 310 304 305 309 304 303 305 304 304 300 299 296 298 297 299 302 296 297 295 293 294 295 290 296 293 297 294 296 295 298 300 299 301 303 301 301

GFSGBSN_sfc_thetae_012.txt.gz
Theta_e
323 326 326 325 325 327 327 327 325 322 321 320 319 319 319 318 317 317 317 317 317 317 318 319 320 320 315 305 305 318 319 318 318 319 316 313 309 305 303 307 309 307 310 311 311 311 311
322 323 326 325 325 326 327 325 325 325 323 321 320 319 319 319 318 318 317 316 317 317 317 318 319 320 310 298 313 315 317 316 315 314 314 314 310 310 304 305 306 310 310 311 311 310 310
322 322 323 324 324 325 326 325 324 324 323 323 321 320 320 319 318 318 318 317 316 317 317 318 318 316 306 302 313 314 316 314 314 312 308 314 314 310 307 302 309 308 303 308 309 310 309
323 322 322 324 324 325 325 325 325 323 322 323 321 320 320 320 319 319 319 318 317 317 317 317 317 312 301 314 315 312 312 310 312 311 310 312 313 310 307 308 306 304 303 296 306 309 309
323 322 322 323 323 324 324 325 324 324 322 322 321 321 319 320 320 320 319 317 317 317 318 316 311 307 298 315 308 311 312 306 308 309 310 310 309 305 305 299 296 300 294 296 300 309 307
323 323 323 323 323 323 324 324 324 324 324 323 322 321 320 319 319 319 319 315 314 314 315 314 310 300 304 301 307 309 311 310 305 305 303 303 302 298 299 296 287 291 294 296 297 304 306
320 322 323 323 323 323 323 323 323 324 324 322 322 321 319 319 318 318 315 311 304 301 305 298 300 299 302 307 310 306 309 306 304 301 294 299 294 290 294 296 297 297 296 297 300 306 303
318 318 322 322 322 323 323 322 323 323 323 322 321 320 319 318 318 317 314 303 304 305 296 304 303 303 306 307 299 303 308 299 298 292 295 294 289 295 298 298 296 296 295 296 301 305 303
313 316 320 321 321 322 322 322 322 322 322 321 320 319 318 317 317 314 308 306 312 309 295 298 302 300 302 304 298 300 304 300 295 292 292 289 292 297 295 294 294 294 294 296 297 302 303
312 312 314 315 317 319 320 321 321 321 320 320 319 318 317 316 308 309 307 313 313 309 287 290 294 299 302 301 295 304 306 301 296 291 292 292 296 294 293 292 294 290 299 299 299 298 292
310 312 311 313 312 314 319 319 320 320 319 319 318 318 317 315 311 306 309 311 310 304 278 292 294 305 302 296 297 297 305 301 293 292 293 289 291 291 290 293 296 293 300 298 300 298 294
309 310 310 311 311 311 314 318 319 319 319 318 318 317 316 313 311 310 311 309 305 286 277 289 294 293 293 295 295 298 298 302 300 294 294 292 297 295 293 296 296 299 296 297 300 297 290
308 309 310 311 310 309 311 317 318 319 319 318 318 317 314 313 305 311 309 302 285 281 292 288 289 292 291 291 291 292 292 291 288 284 284 290 290 294 295 293 296 297 293 288 286 287 286
308 309 309 310 308 308 312 316 318 319 318 318 318 317 314 310 311 309 305 291 280 288 288 292 291 291 288 291 291 291 290 287 292 290 286 283 281 290 293 293 292 294 293 286 282 284 286
306 308 308 309 307 308 311 316 318 318 317 317 317 314 309 309 311 308 297 283 285 289 293 290 290 287 286 290 291 289 289 288 291 292 284 285 284 294 297 295 298 292 286 294 291 292 288
306 307 308 309 309 308 310 314 317 317 317 316 308 307 306 312 310 304 292 286 289 295 294 292 287 289 284 286 286 287 287 292 291 294 294 288 284 294 295 299 300 297 300 290 292 285 282
305 307 307 308 309 307 310 311 317 318 317 314 305 299 307 312 308 297 286 288 291 296 295 291 290 288 289 287 287 287 287 292 295 294 293 290 287 289 292 295 293 294 294 296 296 293 286
305 306 306 308 308 308 310 310 314 317 316 311 303 294 308 310 294 294 289 292 295 295 297 295 294 292 290 291 288 288 287 292 298 295 289 291 289 286 288 295 301 300 296 297 291 288 289
304 305 306 307 308 309 309 311 314 317 314 306 299 300 309 305 288 289 292 293 293 293 296 294 293 295 294 291 287 290 292 298 298 295 292 292 288 285 286 293 298 296 298 298 296 294 289
302 304 305 307 308 308 308 309 316 317 315 308 300 294 299 300 299 294 291 291 290 296 295 297 295 295 293 290 292 291 292 298 298 297 301 301 294 287 286 290 295 293 296 297 295 289 289
302 303 304 306 306 307 309 309 313 316 313 307 299 296 298 290 292 294 295 293 291 290 297 298 294 293 292 289 290 290 293 296 299 299 298 295 292 294 296 297 297 296 296 296 295 295 289
301 303 304 305 306 306 307 307 308 315 313 304 297 295 299 298 296 294 293 292 292 292 295 294 293 297 296 291 291 289 293 294 293 297 295 297 291 294 292 295 296 295 297 297 296 296 295
301 302 304 305 306 306 306 307 308 314 311 303 304 304 299 299 298 294 295 295 295 296 296 298 298 295 296 296 299 298 298 299 300 297 296 294 293 291 285 292 292 288 293 296 296 297 297
300 301 303 305 305 304 305 307 308 314 312 306 303 302 297 292 294 296 298 298 297 298 295 299 301 297 303 306 305 305 301 298 297 298 300 294 293 293 286 287 280 290 294 297 296 298 298
300 301 303 304 305 304 304 306 307 312 313 305 303 302 299 293 296 295 296 298 296 296 297 298 301 301 304 301 297 294 293 294 293 293 295 299 296 290 287 285 291 293 292 292 293 294 298
300 301 302 303 304 304 304 305 307 311 314 309 304 305 300 294 294 297 294 299 295 292 292 294 297 299 300 296 296 288 286 290 288 290 296 299 298 293 286 283 281 289 294 297 297 288 296
300 301 302 303 304 304 304 306 307 310 313 309 305 307 302 296 299 297 294 295 300 295 292 293 294 295 300 295 292 288 290 294 288 288 289 291 292 289 289 286 289 294 295 296 286 289 296
299 300 301 303 303 304 304 306 306 310 312 309 305 306 303 298 300 301 301 295 297 296 292 294 294 297 297 292 293 293 291 293 291 292 292 291 289 288 289 287 284 297 295 290 295 295 296
299 300 301 302 303 304 304 306 307 308 312 310 303 305 307 301 301 304 304 304 302 300 297 296 297 298 301 296 295 293 290 291 292 288 296 290 293 292 292 291 296 296 295 297 299 297 297

GFSGBSN_sfc_thetae_015.txt.gz
Theta_e
324 325 324 323 325 325 326 327 326 326 324 322 320 319 319 319 318 317 317 316 316 316 316 318 319 320 316 305 304 317 320 320 319 319 315 313 307 304 298 302 304 303 307 310 311 311 310
325 324 325 323 324 325 325 325 326 326 325 323 322 320 320 319 319 318 318 316 316 316 316 316 317 319 309 297 311 313 315 313 313 315 313 312 309 309 303 300 300 304 306 308 310 310 310
324 325 324 324 324 325 324 325 325 325 324 324 323 322 321 319 319 318 318 318 317 316 316 316 317 315 306 300 310 310 315 313 313 310 307 314 312 309 308 301 304 306 301 304 306 308 308
321 322 324 323 324 323 324 324 324 325 325 323 324 323 321 320 319 318 319 318 318 317 317 317 316 310 299 313 313 311 310 309 309 309 309 310 312 306 306 306 301 299 302 294 302 305 308
316 318 321 322 323 323 324 324 324 324 325 324 323 323 321 320 320 320 320 318 316 316 317 317 310 305 296 315 307 310 309 305 306 306 307 309 306 302 303 298 294 294 290 293 297 305 305
314 315 317 319 320 322 323 323 324 324 324 323 323 322 321 320 319 319 319 317 314 313 314 314 310 299 302 299 307 309 309 308 304 303 302 302 298 294 294 294 285 288 290 293 294 300 303
311 312 314 315 321 322 321 322 323 323 323 322 322 321 320 319 319 318 313 307 302 299 306 298 299 297 301 307 309 306 308 305 304 299 293 296 290 288 291 294 294 292 291 292 297 302 300
311 311 311 313 315 317 319 321 321 322 322 322 321 320 320 319 319 318 311 303 301 302 296 304 303 302 305 307 299 303 307 299 297 291 293 291 288 293 295 295 294 293 290 290 295 301 300
309 310 310 311 313 313 315 320 320 320 321 321 321 320 319 318 318 312 306 305 308 308 294 298 302 301 302 304 298 299 304 299 294 291 290 287 291 296 294 292 291 291 289 290 291 297 300
308 309 309 309 311 312 314 314 317 319 319 319 319 319 318 317 308 307 304 310 309 308 287 291 294 300 302 302 296 305 306 300 295 290 291 289 293 292 292 290 292 287 294 294 293 292 289
307 307 308 309 310 311 312 312 314 316 318 318 318 318 317 313 305 302 307 310 310 305 276 291 295 305 302 296 297 298 306 301 292 292 292 287 290 289 288 290 293 289 295 293 293 292 293
306 307 308 308 309 310 311 311 312 314 317 317 318 318 316 311 309 309 309 308 303 286 274 289 294 293 293 296 296 299 298 302 300 294 293 290 296 294 292 294 294 296 293 292 293 292 285
305 306 307 308 309 309 310 310 310 312 317 317 318 317 314 312 302 310 308 300 284 279 290 287 289 292 291 290 292 293 292 291 288 283 284 290 290 293 295 290 294 292 287 281 281 282 282
304 305 307 307 308 309 310 309 308 311 317 317 317 316 314 311 311 309 304 292 278 285 286 293 291 290 288 290 291 292 289 287 292 288 284 280 275 289 293 291 287 288 287 282 276 280 285
304 305 306 307 307 308 310 309 308 310 316 316 316 313 309 310 310 308 296 283 281 287 292 290 290 286 287 290 289 289 288 287 289 290 280 280 281 293 293 294 293 288 284 291 287 290 286
303 304 305 306 306 308 307 306 307 309 315 316 311 307 304 310 310 303 291 285 287 294 294 293 287 289 284 286 286 287 286 290 289 291 292 288 281 290 292 294 294 292 295 285 286 282 281
303 303 305 305 305 309 306 308 309 313 316 315 306 300 307 310 308 297 286 287 291 296 296 291 289 289 287 285 286 284 285 290 293 292 293 290 286 286 287 289 287 290 290 291 291 288 285
303 303 304 305 304 307 308 309 309 310 313 312 303 295 308 308 294 293 289 292 296 294 297 294 293 292 289 288 286 284 285 289 296 294 289 291 288 283 286 294 297 294 292 292 286 286 289
303 303 303 305 305 307 307 308 310 310 314 307 299 300 307 305 287 289 293 292 294 293 294 294 292 294 294 290 286 288 290 296 296 294 290 292 287 281 284 291 296 292 295 295 294 293 289
302 302 303 305 305 307 306 307 307 309 314 308 300 293 299 300 298 293 290 291 291 296 294 296 295 296 292 289 291 288 289 296 297 296 298 294 290 287 284 289 295 291 293 295 293 288 288
302 301 302 304 305 306 305 307 307 309 314 306 299 295 297 290 291 294 294 293 291 289 294 296 294 293 290 286 287 288 291 293 296 298 296 291 286 289 289 291 294 295 294 292 289 294 290
302 301 302 303 305 306 305 305 307 309 313 304 295 296 298 294 295 293 293 292 292 292 293 294 292 294 293 288 288 287 292 292 292 295 292 293 288 291 292 296 296 294 296 296 296 296 295
301 300 301 303 304 305 305 305 307 308 311 303 303 304 300 297 294 292 292 292 293 296 296 296 296 295 293 294 297 297 296 295 297 294 292 292 291 291 286 295 293 289 294 295 295 296 295
301 300 301 302 304 304 305 305 306 307 308 307 304 302 296 293 294 294 295 295 294 296 294 297 297 294 299 305 301 301 300 295 298 299 297 291 291 293 286 286 279 290 293 298 296 297 297
301 300 301 302 303 304 305 305 306 307 308 306 304 303 299 293 295 295 294 292 296 298 297 298 300 298 302 300 296 293 292 293 291 293 296 297 293 290 285 284 288 290 291 292 292 292 297
301 300 300 302 303 304 305 305 306 307 308 307 303 306 301 295 294 297 293 294 292 294 293 297 297 299 303 296 294 288 284 289 288 289 294 297 295 291 281 279 280 288 292 294 294 287 294
301 300 300 301 302 303 304 304 306 307 308 308 305 307 303 296 299 298 291 290 298 295 293 293 294 296 301 294 292 288 287 291 288 288 289 292 292 285 285 284 287 294 293 294 286 287 294
300 300 300 300 302 303 304 304 306 307 308 309 304 307 304 298 299 300 298 293 297 296 292 294 295 296 296 292 292 292 288 290 288 289 292 290 289 288 289 286 282 294 292 288 292 293 294
300 300 300 300 301 302 304 304 305 307 308 310 302 306 307 301 300 304 303 302 301 302 299 297 296 297 299 295 292 294 290 290 289 287 294 290 293 291 291 291 295 295 293 296 296 295 293

GFSGBSN_sfc_thetae_018.txt.gz
Theta_e
322 324 325 325 324 323 324 326 326 326 325 325 323 321 320 319 319 318 317 316 316 316 316 317 319 320 315 303 303 314 319 321 320 321 316 312 306 303 298 299 301 299 303 308 310 311 310
318 320 321 323 325 324 323 324 324 326 326 326 324 322 321 320 319 319 318 317 316 316 316 316 317 318 307 295 310 312 315 312 312 315 313 312 308 307 302 299 298 301 302 304 307 308 308
315 316 317 319 323 324 324 324 324 324 325 325 325 323 322 321 319 319 318 318 317 316 316 316 317 314 305 300 309 310 311 310 311 311 309 313 312 307 305 300 303 302 298 301 302 304 305
314 314 314 316 317 320 321 323 324 324 325 325 325 324 323 321 319 319 319 319 319 317 317 317 316 310 297 311 312 309 310 307 311 309 308 309 312 308 304 306 301 296 295 291 299 303 305
311 312 312 313 314 316 320 322 323 323 324 324 324 323 322 321 320 320 320 319 317 316 316 316 309 304 295 313 307 308 309 305 305 305 306 309 307 302 300 298 293 292 286 289 295 303 302
309 309 311 312 312 313 316 317 321 322 322 323 322 323 322 321 320 319 319 318 316 312 312 314 310 300 302 299 307 308 308 308 303 302 301 301 299 292 294 294 285 288 286 289 289 298 300
310 310 310 311 311 312 313 314 317 321 321 321 321 321 321 320 319 319 315 307 300 299 304 299 300 298 299 306 308 306 307 304 302 297 290 295 290 287 289 293 293 291 288 288 292 299 297
307 309 309 309 310 311 311 313 314 316 320 320 320 320 320 320 319 318 308 299 299 301 293 303 303 302 304 306 299 303 307 297 296 291 292 291 287 292 293 293 292 291 289 288 292 296 297
306 306 308 308 309 310 310 311 313 315 318 319 319 319 319 319 318 313 304 304 307 304 293 297 301 301 301 304 298 300 303 299 294 291 292 288 289 294 292 291 289 289 288 288 288 293 295
306 306 305 307 308 308 309 310 311 314 313 317 318 318 318 317 308 306 304 308 307 307 287 289 294 300 302 303 296 305 305 300 295 290 291 290 293 291 291 289 290 285 293 292 291 288 283
306 305 305 306 307 308 308 309 311 313 312 315 317 318 318 314 302 302 304 308 308 305 268 290 294 305 302 297 298 298 306 301 292 291 291 287 289 289 287 289 292 288 293 291 291 288 287
305 305 305 306 306 308 308 309 310 311 311 313 316 317 316 310 308 309 309 308 303 280 270 288 294 292 293 296 297 299 298 302 301 294 293 290 296 293 291 292 294 294 291 290 289 289 281
305 304 304 305 306 307 307 308 308 309 311 312 315 317 313 309 303 310 309 300 282 271 288 287 288 292 291 291 292 294 292 291 289 284 283 288 289 293 295 290 293 291 286 278 276 277 277
305 304 304 304 305 307 307 307 307 309 310 309 313 316 313 308 310 309 304 292 274 283 285 293 291 291 287 290 291 292 290 287 291 289 285 282 279 288 293 291 288 288 287 279 271 272 277
305 304 304 304 306 306 306 306 310 310 309 309 310 312 309 309 310 307 296 283 281 285 291 289 289 286 286 289 290 289 288 287 289 291 283 281 281 292 292 293 293 286 284 289 282 284 283
304 304 304 304 305 305 306 308 308 308 308 311 308 308 305 310 310 303 291 286 286 293 294 292 285 288 284 286 286 286 285 288 289 292 291 286 277 288 291 293 293 289 291 282 282 276 274
304 304 303 304 304 305 305 308 309 307 308 308 305 300 307 310 308 296 285 287 290 296 295 291 289 288 288 285 285 284 284 289 291 290 291 288 284 284 288 286 285 287 285 287 285 283 283
304 303 304 303 304 304 306 306 307 308 308 308 304 290 307 308 293 292 288 291 295 294 296 293 293 292 290 288 285 283 284 288 294 292 286 290 286 281 283 291 293 290 287 287 282 281 285
304 303 303 302 305 305 305 306 307 308 309 306 299 298 306 305 286 287 292 292 294 293 293 293 292 293 293 288 284 286 287 294 296 293 290 291 286 280 282 286 291 289 289 291 290 289 286
303 303 302 301 305 306 306 306 306 308 309 307 299 291 297 300 297 292 290 290 290 296 294 295 294 295 292 288 289 287 288 295 296 296 298 295 288 285 280 287 291 287 288 292 290 285 285
303 302 302 301 303 305 306 306 306 307 309 307 301 294 296 288 292 293 293 293 290 290 294 296 291 293 292 286 286 286 289 292 295 298 296 291 285 287 288 289 290 292 290 292 290 290 286
302 302 302 302 302 304 305 306 305 307 308 305 297 295 297 293 295 294 293 291 291 293 293 292 290 294 293 288 287 285 290 291 291 294 293 292 285 287 288 292 291 292 293 294 293 290 289
302 302 301 301 302 304 304 305 305 307 307 303 301 300 298 294 293 292 292 292 293 295 296 296 295 294 292 293 295 294 296 295 295 293 291 290 288 287 286 293 292 289 293 293 293 292 290
302 301 302 301 301 303 305 306 305 307 307 304 304 300 297 292 293 292 294 295 293 294 293 297 297 295 297 301 300 298 297 295 294 295 296 291 289 291 287 290 280 290 299 298 294 294 297
302 301 301 301 300 302 304 305 305 307 308 306 303 301 296 293 295 295 295 295 293 295 295 297 299 300 301 299 293 291 289 291 289 293 296 295 292 286 283 282 287 289 291 293 294 293 297
302 302 301 301 300 302 303 305 305 307 307 307 303 306 300 295 294 298 295 294 293 292 293 296 299 300 301 297 295 288 285 287 286 290 292 293 293 289 280 279 280 288 291 292 293 286 293
301 302 301 300 300 301 303 305 304 306 306 307 303 307 302 296 299 298 294 292 295 292 293 293 295 296 301 295 290 288 286 289 286 286 289 290 289 284 283 284 285 292 293 292 285 287 292
301 301 301 300 300 301 302 304 305 305 306 306 304 307 304 298 299 299 298 296 296 296 292 295 295 296 296 291 291 291 290 288 286 288 288 289 288 288 288 282 279 293 292 287 291 292 292
301 301 301 300 300 300 301 303 305 305 306 307 302 306 308 301 300 304 303 302 300 302 298 297 295 296 298 294 293 293 291 289 288 286 290 288 291 289 289 288 294 293 292 295 294 293 291

GFSGBSN_sfc_thetae_021.txt.gz
Theta_e
315 316 317 318 318 320 322 325 325 324 324 325 326 324 322 320 319 320 318 318 317 317 316 317 318 319 313 302 302 313 322 319 321 321 315 311 304 301 296 298 300 297 301 305 307 309 308
314 314 314 315 316 317 319 320 324 324 324 324 325 324 323 321 320 320 319 318 317 317 316 316 316 318 307 293 308 311 311 312 314 317 314 312 307 306 301 298 297 299 300 300 303 304 306
311 312 312 313 313 313 315 318 320 323 323 323 325 324 323 322 320 319 319 318 318 317 316 316 316 314 304 299 308 309 310 308 310 314 310 313 312 307 306 299 303 300 296 298 299 301 302
310 310 312 311 312 312 313 314 317 318 322 322 323 324 323 322 321 320 319 319 319 318 316 316 316 308 296 310 310 309 308 307 308 310 307 310 314 308 306 305 301 295 293 288 296 300 302
309 309 310 310 311 312 312 312 313 316 317 322 322 323 324 322 321 320 320 319 318 317 316 316 308 302 294 311 306 308 308 304 305 306 305 309 307 301 301 297 294 295 287 287 292 301 301
308 308 308 309 309 310 311 312 312 313 315 318 321 321 321 321 320 320 320 318 317 313 311 313 310 299 301 299 306 307 307 307 302 301 300 301 299 295 296 294 284 286 285 285 288 295 297
308 307 308 306 308 309 310 310 311 312 313 316 318 320 320 320 320 319 315 309 302 299 303 299 300 299 300 305 308 306 306 304 301 297 289 294 291 287 291 291 291 289 289 289 290 295 293
307 307 307 306 306 308 309 309 309 310 312 313 315 319 319 320 319 319 310 301 299 300 293 301 302 301 304 306 299 303 306 297 295 290 291 289 285 290 292 291 290 290 289 288 291 295 293
307 307 306 307 306 306 308 308 308 310 311 312 314 315 318 319 319 314 307 302 306 303 291 296 300 300 301 304 298 299 302 297 292 289 289 286 288 293 291 289 287 287 286 287 287 291 293
306 306 306 306 305 306 307 307 309 309 310 311 313 312 317 318 311 309 304 307 306 305 279 287 293 299 302 303 296 304 305 300 295 290 291 290 294 290 289 287 289 284 290 290 289 286 281
306 306 306 305 305 305 306 307 308 308 309 309 311 312 316 316 306 303 304 306 306 299 267 289 295 304 303 297 298 297 305 300 292 291 290 287 288 288 287 288 291 287 292 290 290 286 284
307 306 306 305 305 304 305 307 307 308 307 307 308 311 313 308 307 306 308 308 305 280 269 287 294 293 294 296 297 299 298 303 300 294 293 289 293 292 290 292 292 293 290 288 289 286 279
306 306 305 305 305 305 306 306 306 306 307 308 308 311 309 310 302 308 309 302 283 273 287 286 287 291 290 290 292 294 292 292 289 284 283 288 290 293 293 289 292 291 287 279 277 277 276
306 305 305 305 305 305 305 305 305 306 309 309 309 308 309 310 310 309 305 290 271 282 283 291 290 290 286 289 290 292 290 287 292 290 285 281 279 289 292 289 287 287 287 279 273 272 275
305 305 304 304 304 304 305 306 305 309 308 308 308 306 308 309 310 308 296 282 279 283 289 288 289 286 286 289 290 289 289 287 289 290 283 281 279 290 292 293 292 287 283 288 282 282 279
305 305 305 304 304 304 304 306 307 308 307 308 302 301 304 310 310 304 291 282 284 292 292 290 283 287 284 286 286 286 285 287 288 290 292 287 277 287 290 293 293 289 291 282 283 274 272
305 304 304 304 303 303 304 306 307 307 307 307 301 294 306 310 308 297 285 287 289 295 294 290 287 287 287 285 287 284 284 287 290 289 292 290 285 281 288 286 285 287 285 286 284 281 274
304 304 304 303 302 303 304 306 307 308 308 305 298 288 306 308 294 292 288 290 294 293 295 293 293 291 289 288 286 283 283 286 292 291 287 290 286 280 283 290 292 289 286 285 280 275 279
304 304 304 303 302 305 305 306 307 307 308 301 296 297 306 304 284 287 292 292 293 293 293 292 291 293 293 290 285 285 286 292 293 291 288 290 285 279 282 285 289 286 288 288 286 285 280
303 303 303 302 302 304 305 306 306 306 308 304 296 287 297 298 296 290 290 290 290 295 294 295 293 294 292 289 290 286 287 293 293 293 297 294 287 284 279 284 286 284 286 287 286 280 281
303 303 302 302 301 303 304 306 306 306 308 306 297 291 294 288 290 291 292 292 290 290 294 296 292 292 291 287 287 286 289 291 294 297 296 291 283 285 286 287 287 287 286 287 285 285 282
302 302 302 302 301 302 303 305 306 306 308 304 296 294 296 293 294 292 292 291 291 292 292 291 291 293 292 290 288 283 288 288 290 295 293 292 283 286 284 289 288 287 288 288 287 288 287
302 302 302 302 302 301 303 305 306 306 307 299 303 302 296 294 293 292 291 293 292 295 296 297 294 292 292 294 295 295 293 293 294 293 291 288 286 286 285 290 288 285 290 288 290 291 291
302 302 302 301 301 300 302 304 306 306 306 303 302 300 296 289 292 292 294 294 293 294 293 296 297 294 298 301 298 296 294 295 293 294 295 290 289 288 285 288 281 291 298 295 292 294 294
302 302 302 302 301 300 302 303 305 305 307 302 304 300 296 292 294 293 294 294 295 295 294 294 298 300 302 299 291 289 287 287 289 291 293 295 292 288 285 283 288 289 295 294 292 292 297
302 302 302 302 300 300 302 302 304 306 306 304 304 302 300 294 294 298 295 296 292 292 293 295 300 301 300 296 291 285 282 286 285 286 291 292 293 290 286 281 280 286 290 298 298 289 297
302 302 302 301 300 300 301 302 304 305 306 304 304 305 300 294 297 296 291 291 297 293 290 293 295 296 300 293 289 287 284 288 285 285 287 286 290 287 285 284 284 291 292 294 284 286 291
301 301 301 301 301 300 301 301 303 304 305 304 303 307 304 297 299 300 299 295 297 295 292 294 294 295 295 291 290 290 288 289 284 285 286 288 287 287 287 281 278 291 290 287 290 291 291
301 301 301 301 301 301 300 301 303 304 305 305 302 307 308 301 299 304 303 302 301 301 298 297 295 296 298 293 293 292 291 289 286 282 288 286 289 287 288 286 292 292 291 293 293 292 290

GFSGBSN_sfc_thetae_024.txt.gz
Theta_e
312 312 312 313 313 314 315 316 318 320 321 323 324 324 324 322 321 319 319 318 317 316 316 317 318 319 312 300 302 312 321 318 319 321 316 310 302 300 295 296 297 296 299 303 304 303 305
311 312 312 312 312 313 313 314 314 315 319 320 323 324 324 323 322 320 320 318 318 317 316 316 316 317 306 291 305 310 309 310 317 318 315 311 306 305 299 297 296 298 299 299 301 301 302
310 310 310 310 311 311 311 312 313 313 315 319 320 323 323 322 322 320 320 319 318 317 317 316 316 313 303 299 307 308 309 306 308 314 312 313 311 305 303 297 302 300 294 297 298 299 299
309 309 309 310 310 309 311 311 311 312 313 315 318 320 322 322 322 321 320 319 319 318 316 316 316 307 295 308 309 308 307 305 307 309 307 313 314 307 305 303 300 296 297 288 294 297 299
309 309 309 308 309 308 308 310 311 311 312 313 315 317 320 321 321 321 320 319 318 318 317 316 307 301 293 309 306 307 307 303 304 306 305 309 307 299 298 293 291 294 287 289 290 297 298
308 308 307 307 308 308 308 308 310 310 311 312 312 314 317 320 320 319 320 318 317 314 311 312 310 298 300 298 305 306 307 306 301 301 300 299 299 294 293 290 281 284 287 289 289 293 294
308 307 307 307 308 307 307 307 308 309 310 310 311 313 315 319 319 319 316 310 302 300 303 296 298 298 300 304 307 304 305 303 300 296 290 294 291 288 291 290 289 287 289 289 292 296 293
307 308 308 307 307 307 307 307 307 308 309 310 310 312 314 315 319 319 311 303 302 299 292 300 301 302 304 305 298 302 305 297 295 289 291 289 285 291 292 293 291 290 287 287 290 293 291
308 308 308 307 307 307 306 306 307 308 309 309 310 310 313 312 317 314 307 303 306 302 290 294 299 299 300 303 298 299 301 297 292 288 288 285 287 292 291 288 288 288 285 284 284 288 291
308 307 307 307 307 306 306 306 306 307 308 308 308 308 310 313 311 310 304 306 306 302 277 285 293 298 301 302 295 304 304 298 293 288 289 289 293 290 288 287 287 283 289 288 287 285 279
308 307 307 307 306 305 306 306 307 306 306 307 308 308 308 310 307 304 306 307 306 295 267 288 294 304 303 295 297 296 304 300 292 291 291 287 288 288 287 288 289 286 290 288 288 285 284
307 307 307 306 306 305 305 306 306 306 306 306 307 307 308 307 309 308 308 308 301 277 270 287 294 293 294 296 296 298 299 302 299 294 293 290 293 291 289 291 291 292 288 288 288 286 279
307 307 306 306 305 305 305 305 306 306 306 306 307 308 307 308 303 309 309 300 281 273 286 285 287 291 291 290 292 294 293 292 289 284 283 289 290 293 294 287 291 290 286 279 277 277 275
306 306 306 305 305 305 305 305 306 306 306 308 309 309 308 307 310 309 304 286 273 282 283 291 289 289 286 289 290 291 290 287 293 290 285 279 277 288 293 289 285 286 285 279 273 271 273
306 306 305 305 305 305 304 304 307 308 307 308 308 304 304 305 310 308 294 281 279 282 289 288 289 283 285 289 289 289 289 287 289 291 284 282 280 289 292 292 291 287 283 288 282 283 279
305 305 305 305 305 304 303 305 307 307 307 308 302 300 300 308 310 302 289 282 284 290 291 289 282 286 283 286 286 287 286 286 288 292 290 284 280 286 289 292 292 289 290 281 282 274 273
305 305 304 304 304 303 303 305 307 307 307 307 299 293 304 310 307 296 285 283 288 294 293 288 286 285 286 286 287 285 283 286 289 288 290 289 285 281 288 286 284 287 285 286 285 282 273
304 304 304 304 303 302 303 305 306 307 307 304 297 287 306 308 290 292 288 289 294 292 294 292 291 290 287 287 286 285 282 285 290 290 286 290 286 280 281 289 292 289 286 286 279 275 279
304 304 304 303 303 302 303 305 306 307 307 302 295 294 307 303 284 287 291 291 292 292 292 291 290 292 293 289 285 286 285 291 292 290 287 290 285 279 280 285 289 286 287 287 286 284 277
304 304 303 303 303 303 303 304 305 307 307 303 294 286 296 297 295 291 288 289 288 294 294 294 293 294 290 290 291 286 285 291 292 292 295 294 288 283 278 282 285 283 285 287 285 280 280
303 303 303 303 302 302 303 304 305 307 307 304 296 288 292 285 290 291 291 290 288 289 293 295 292 292 290 288 288 287 287 289 292 294 293 291 283 285 286 287 286 286 285 286 284 284 279
303 303 303 303 303 302 301 304 305 306 307 302 294 294 296 291 293 291 291 288 288 291 292 291 290 292 293 289 289 285 287 287 287 293 292 293 283 286 284 288 288 285 288 287 286 286 286
303 303 303 303 303 301 301 303 305 306 306 298 300 302 297 294 292 290 290 290 292 294 295 296 293 293 291 293 296 297 292 292 291 292 291 290 285 285 282 287 286 284 286 287 287 289 287
303 303 303 302 302 301 301 302 304 305 306 302 301 301 295 290 291 291 293 294 292 294 293 296 297 294 297 302 301 297 293 293 292 293 295 290 287 287 284 287 281 290 297 292 289 291 291
302 302 303 302 302 301 301 302 303 305 306 302 304 301 297 289 293 294 293 293 294 295 294 295 296 298 302 299 292 286 288 286 288 291 292 294 291 287 284 283 288 290 294 292 289 289 293
302 302 302 302 302 301 301 301 302 304 305 303 303 305 300 293 291 296 292 295 293 292 293 296 299 301 301 296 291 284 281 283 284 286 289 292 292 288 286 282 280 286 290 298 297 288 297
302 302 302 302 302 301 301 301 302 304 305 303 302 306 301 293 296 298 293 293 297 294 291 293 294 295 299 292 288 283 285 287 284 283 286 288 289 286 287 284 285 290 291 297 286 287 292
302 301 301 302 302 301 301 300 301 304 304 302 301 305 302 297 298 299 298 295 295 294 290 292 294 294 294 290 290 289 286 286 283 285 285 285 285 286 287 283 278 291 291 286 290 290 291
302 301 301 301 301 301 301 300 302 303 304 304 300 307 308 300 298 303 303 302 301 300 297 295 295 295 296 294 292 293 291 289 285 282 286 284 288 286 287 285 291 292 292 294 293 291 290

GFSGBSN_sfc_thetae_027.txt.gz
Theta_e
311 311 311 311 311 311 311 311 312 313 314 317 320 321 323 323 324 322 320 319 318 317 316 316 317 319 312 301 302 312 320 316 318 321 315 310 304 302 298 299 301 300 301 304 305 303 303
311 311 310 310 310 310 310 310 311 311 312 314 316 318 319 322 323 322 321 320 318 317 317 316 316 317 305 291 304 309 309 310 319 320 316 312 307 305 301 300 298 300 300 301 302 302 303
311 310 309 310 310 309 310 310 310 310 311 312 313 315 317 319 321 322 321 320 319 317 317 316 317 312 303 298 308 309 309 307 310 318 313 315 312 307 304 300 304 302 297 299 300 301 300
310 309 309 309 309 309 308 308 307 309 310 311 311 313 315 317 320 322 321 320 319 318 317 317 317 307 294 308 309 308 308 306 309 311 312 315 315 309 306 305 300 297 297 290 297 299 300
308 309 309 309 310 310 309 308 308 307 309 311 311 311 312 316 318 320 320 320 319 318 317 317 307 301 294 309 305 308 307 303 306 307 307 313 309 302 302 296 292 294 287 289 292 299 299
309 310 308 309 309 309 309 308 308 307 308 309 310 310 311 313 316 319 320 319 317 315 313 313 310 298 299 298 304 306 307 306 302 302 302 301 299 294 295 292 282 286 287 289 289 295 295
310 310 309 309 308 308 308 307 307 307 307 308 309 310 311 313 314 317 317 309 301 300 303 295 297 297 300 305 307 304 306 303 301 298 292 296 292 287 291 292 292 290 289 288 292 296 292
309 309 309 309 308 308 308 307 307 307 307 308 308 309 310 311 314 315 312 302 301 302 293 300 301 302 304 306 298 302 305 297 295 290 292 291 287 292 294 294 292 291 289 288 291 293 291
308 309 309 309 308 308 308 307 306 307 307 308 307 308 309 309 310 311 307 304 305 304 290 294 298 298 300 303 298 298 301 297 293 289 289 286 289 293 292 289 289 288 287 287 286 289 291
309 309 308 308 308 307 307 306 306 307 307 306 307 307 308 308 305 309 305 307 305 302 278 285 293 297 300 302 294 304 303 298 293 289 289 289 293 290 288 288 289 284 290 289 287 285 280
309 307 308 308 307 307 307 306 306 306 306 307 307 307 307 307 301 301 306 308 303 298 267 288 293 304 302 295 296 297 304 300 292 291 291 287 289 288 287 288 289 286 290 288 288 285 284
308 308 307 307 306 306 306 306 305 305 307 306 306 306 306 303 304 305 309 308 300 281 268 287 294 294 294 295 296 298 299 302 299 293 293 289 294 292 290 292 291 293 289 289 288 286 279
307 307 307 306 306 306 306 306 304 306 307 307 308 308 305 304 297 310 309 300 282 272 286 285 288 292 292 290 293 294 293 291 288 284 283 288 290 294 294 288 291 290 286 279 278 278 277
306 305 306 306 306 305 305 305 304 306 307 306 308 308 307 304 307 305 303 289 273 281 283 290 290 290 287 290 290 291 290 288 292 290 286 282 277 289 293 290 286 287 286 280 273 274 276
305 305 305 305 305 305 305 304 305 307 308 307 308 305 303 305 307 303 294 281 279 282 288 288 288 285 285 288 288 289 288 287 290 292 285 282 280 289 292 292 291 286 283 288 282 282 279
305 305 305 305 305 304 304 304 305 307 307 308 301 299 297 305 305 299 287 284 284 289 291 290 283 285 282 285 285 286 285 287 289 292 294 286 279 285 289 293 292 289 290 281 282 274 274
305 305 305 304 304 304 304 303 305 306 308 307 299 293 301 307 303 293 284 284 288 292 292 288 286 285 285 285 286 286 284 286 289 288 291 288 283 282 288 285 285 287 285 286 285 282 276
305 304 304 304 304 303 303 303 304 306 307 304 297 288 304 307 287 287 287 288 295 291 293 292 291 289 286 287 285 286 284 285 290 290 287 289 285 278 281 289 291 289 286 286 280 278 281
304 304 304 304 304 303 303 303 304 306 307 300 293 294 304 300 284 286 291 290 293 291 291 291 289 292 292 287 284 286 285 291 291 290 287 289 284 277 279 284 288 286 287 287 286 285 280
304 304 304 304 303 303 303 303 304 306 307 304 293 288 293 296 294 290 288 288 289 294 292 294 292 293 290 289 290 286 286 290 291 291 295 293 286 282 279 283 287 283 286 287 285 280 281
304 304 304 304 303 303 302 303 305 305 308 304 295 288 291 285 288 291 291 290 287 287 293 294 292 292 290 287 287 287 288 288 291 293 293 291 284 286 286 287 287 285 285 286 284 284 281
304 304 304 304 303 303 301 302 304 304 308 300 294 293 294 291 293 290 291 286 288 290 291 290 289 292 292 289 289 284 287 287 287 289 289 292 284 286 284 288 288 285 288 287 286 286 286
303 303 303 303 303 303 302 302 303 305 305 298 299 301 296 292 291 290 288 288 289 293 293 295 293 292 291 292 296 295 297 293 292 291 290 290 286 285 282 288 288 284 288 287 287 288 287
303 303 303 303 303 303 302 302 302 304 305 301 300 298 295 289 291 290 291 293 292 292 292 295 296 293 297 301 301 299 296 295 292 292 293 289 288 287 283 287 281 291 296 295 289 291 291
303 303 303 303 303 302 302 302 301 303 305 301 302 300 297 290 293 291 292 293 294 295 295 295 297 299 302 299 291 288 287 288 287 290 290 292 290 286 284 283 287 289 291 292 288 289 293
303 303 302 302 302 302 302 302 301 303 305 302 301 305 300 291 291 295 292 294 291 290 292 295 299 300 301 296 291 284 278 282 282 284 289 292 292 288 285 282 279 287 292 298 297 288 296
303 303 302 302 302 302 302 301 301 303 304 302 300 305 301 294 294 294 291 292 296 295 292 294 295 294 298 292 287 285 282 286 282 282 285 287 288 284 285 285 285 290 292 297 285 287 292
302 302 302 302 302 302 302 300 301 303 304 302 299 303 303 296 295 299 297 294 294 294 291 293 293 294 293 288 289 287 283 285 283 284 285 284 283 286 286 283 278 291 293 288 290 292 292
301 301 301 301 301 301 300 300 301 302 303 303 297 303 305 298 296 301 302 301 301 301 297 296 294 295 296 292 292 291 289 287 284 282 286 284 287 285 287 286 291 292 292 293 293 291 291

GFSGBSN_sfc_thetae_030.txt.gz
Theta_e
312 312 311 311 311 310 311 310 311 310 311 312 312 314 316 319 321 323 323 321 320 318 317 317 317 318 314 305 306 316 318 316 322 324 318 313 309 307 302 303 305 303 304 306 308 308 308
311 311 310 310 310 310 311 310 309 308 309 310 311 312 313 315 318 320 322 322 320 319 318 317 316 317 307 295 309 313 312 316 321 320 318 315 311 309 305 303 303 304 304 305 306 306 306
309 310 310 310 310 310 311 310 310 309 309 308 310 312 312 312 315 318 321 321 320 319 318 317 317 313 306 302 312 313 312 313 318 321 315 316 313 308 308 303 307 305 300 303 304 304 303
310 310 310 310 310 310 310 309 309 309 308 309 309 310 311 312 312 316 319 322 321 320 318 317 317 310 300 309 314 309 311 311 315 317 318 320 316 311 307 308 303 299 300 295 301 302 303
310 312 311 310 310 310 310 309 309 308 308 308 308 310 311 311 311 314 316 320 320 319 318 317 311 306 299 310 306 309 311 309 311 311 313 318 315 305 305 300 296 297 293 293 297 302 301
312 310 310 310 310 310 310 309 309 308 308 307 308 308 310 311 311 314 314 319 319 317 315 314 310 301 303 301 306 308 310 310 307 308 306 305 303 298 298 296 289 291 292 294 293 298 299
310 310 310 310 310 309 309 309 308 308 307 307 307 308 309 309 311 312 312 314 303 300 304 300 300 298 301 306 310 306 308 306 306 304 297 301 295 291 294 296 296 294 293 291 294 298 296
309 310 310 310 309 309 309 308 308 308 307 307 307 308 308 309 310 310 308 303 303 306 296 303 304 303 305 307 299 303 308 300 300 295 298 294 290 296 296 296 294 292 291 291 294 297 295
310 310 309 309 309 309 308 308 308 307 307 307 307 307 308 308 309 307 304 305 309 309 297 297 302 300 303 305 299 301 304 301 297 294 294 292 292 295 294 293 291 290 288 289 290 294 295
309 308 309 309 308 308 307 307 307 307 306 306 306 307 307 307 304 303 302 311 309 307 289 290 295 299 302 304 297 306 306 301 297 293 294 293 296 293 292 291 292 288 293 292 290 288 283
307 307 308 307 307 307 307 307 307 307 306 307 307 307 307 306 302 299 302 310 307 301 279 291 293 306 303 297 299 299 306 301 294 293 294 290 292 292 289 291 293 289 293 291 291 288 286
307 307 307 306 306 306 306 306 306 305 306 307 307 308 308 304 303 303 308 307 301 285 278 288 294 294 293 296 297 300 299 303 300 295 295 293 297 294 294 295 295 294 291 290 291 288 281
307 307 306 306 306 306 306 306 305 305 307 307 307 308 306 306 298 308 309 298 284 282 289 286 288 293 292 290 293 295 294 292 290 285 286 291 292 295 295 290 293 291 287 281 279 279 280
307 306 306 306 306 305 305 305 305 305 306 307 309 308 307 306 308 308 303 289 281 285 287 292 292 292 289 291 291 292 291 289 294 292 288 285 284 291 295 292 289 288 288 282 276 279 282
306 306 306 305 305 305 305 305 304 306 307 307 306 305 304 306 307 305 293 282 285 287 290 288 290 286 286 289 290 290 290 289 292 293 285 285 284 292 295 295 293 288 284 291 283 285 281
306 306 305 305 305 305 305 304 304 306 307 307 300 300 300 307 307 298 287 286 287 293 293 292 286 287 283 286 288 288 288 292 291 295 296 290 283 289 291 295 294 291 293 283 284 276 275
305 305 305 305 305 304 304 304 304 305 307 306 299 292 302 307 303 291 285 286 291 295 295 291 288 287 288 287 289 288 288 290 293 293 296 292 287 285 290 287 287 287 285 287 287 284 278
305 305 305 305 305 304 304 303 304 305 306 304 296 287 302 304 288 290 288 291 295 293 296 294 294 291 290 290 288 289 287 289 294 294 290 292 287 281 285 292 294 291 288 287 281 280 282
305 305 305 304 304 304 304 302 304 305 306 301 291 294 303 302 286 288 291 293 294 293 293 293 292 294 293 290 287 290 290 293 294 293 291 293 286 281 284 288 291 287 289 289 288 286 282
305 305 304 304 304 304 303 302 304 305 306 305 295 287 293 296 296 291 290 290 290 296 295 296 294 295 293 290 291 288 289 293 294 294 296 295 289 285 282 286 290 285 288 288 286 281 283
304 304 304 304 304 303 303 303 304 306 307 304 297 289 293 287 290 292 293 292 290 290 295 296 293 293 292 288 288 288 290 292 293 295 295 293 284 287 288 289 289 287 287 287 284 286 282
304 304 303 304 304 303 303 303 304 305 307 301 293 293 295 293 293 292 292 291 291 291 293 291 292 293 293 290 290 288 290 291 290 293 293 294 285 287 284 289 289 287 289 290 289 288 287
303 304 304 304 303 303 303 303 304 304 305 297 299 300 298 293 292 291 291 292 292 295 295 296 295 294 292 294 296 297 296 295 293 293 291 291 287 285 283 289 289 286 290 290 290 291 290
304 304 303 303 303 303 303 303 302 303 305 300 299 298 295 289 292 291 293 294 293 294 292 296 297 295 298 303 301 299 298 297 296 295 295 291 288 286 282 287 281 292 296 294 293 293 294
304 304 303 303 303 303 303 303 301 303 305 301 301 298 298 291 294 294 294 295 296 296 295 295 298 300 303 300 293 289 290 289 292 294 295 295 290 286 283 284 287 291 293 292 289 291 296
303 303 303 302 302 302 303 302 301 303 304 301 300 304 301 295 293 296 295 295 293 293 294 296 300 303 302 296 291 285 284 287 287 290 293 293 293 287 285 282 281 290 294 299 298 289 296
302 301 301 302 302 302 302 301 301 302 304 301 299 304 301 298 299 298 295 295 298 296 294 295 296 296 300 292 287 286 285 290 287 287 286 288 288 284 284 284 290 296 296 300 288 290 296
301 301 301 301 301 300 300 300 300 301 303 301 298 303 299 299 300 302 301 298 299 298 293 296 295 295 294 289 288 289 288 291 290 291 290 289 287 286 287 285 284 297 298 293 296 299 297
301 300 300 299 299 299 299 299 300 300 301 301 296 301 302 300 301 305 305 305 304 304 300 299 297 296 297 292 292 292 290 292 291 288 293 289 293 292 293 293 298 298 299 300 299 297 297

GFSGBSN_sfc_thetae_033.txt.gz
Theta_e
311 311 311 311 312 311 312 311 311 311 310 310 310 310 311 313 314 316 319 322 322 320 319 318 317 318 314 308 308 320 318 319 323 325 319 314 310 308 303 305 306 304 306 307 309 310 309
310 311 311 311 311 311 311 311 311 311 310 310 310 310 310 312 313 314 315 320 322 320 319 318 317 318 310 298 312 316 315 317 319 321 318 315 311 311 307 306 304 306 306 306 307 307 308
311 311 313 312 311 311 311 311 310 310 310 310 309 309 309 311 312 313 314 318 321 321 319 318 317 314 307 304 312 314 313 316 321 320 316 318 315 310 309 304 308 306 302 305 305 306 305
313 313 312 312 311 311 311 311 310 310 310 310 309 309 309 310 311 312 313 315 319 320 319 318 318 311 302 311 315 312 313 315 319 322 320 320 317 311 308 308 305 301 302 296 303 304 305
312 312 311 311 312 311 311 310 309 309 310 309 309 308 308 309 310 311 312 314 316 321 319 318 312 309 301 311 306 310 312 311 314 316 319 319 315 307 307 301 296 299 294 297 299 305 303
311 310 311 312 311 311 310 310 309 309 309 308 308 308 308 308 309 310 312 313 316 319 315 314 311 303 305 302 307 309 313 314 310 310 310 309 306 299 298 297 291 295 295 296 296 300 301
311 312 312 311 311 310 310 310 309 309 309 308 308 308 308 308 309 309 309 306 306 303 306 302 302 300 303 308 310 306 310 310 308 306 297 301 296 293 297 300 300 297 295 294 298 301 298
311 311 310 310 310 309 309 309 308 308 308 308 307 307 308 308 308 309 307 297 302 305 295 304 304 304 307 308 300 304 310 302 300 296 299 296 292 298 299 298 296 295 293 293 296 298 296
310 309 309 309 308 308 308 308 308 308 308 308 307 306 307 308 308 306 303 299 306 308 297 299 303 302 303 306 300 300 305 303 299 295 294 293 295 297 296 295 293 293 291 291 290 295 297
308 309 308 308 308 308 307 307 307 307 307 306 306 307 307 307 303 304 301 307 309 305 288 291 296 300 304 304 298 307 307 302 298 293 295 294 298 294 294 293 294 290 296 294 292 290 287
307 308 308 308 307 307 307 307 306 306 306 306 307 307 307 307 301 300 304 308 307 301 280 294 296 307 304 299 300 300 307 302 295 295 295 292 293 293 291 292 295 291 295 292 292 289 287
307 308 308 307 307 306 306 306 306 306 305 306 307 308 308 305 304 304 308 307 302 283 280 288 295 294 294 297 298 301 300 303 301 295 295 295 298 296 295 296 296 295 292 291 290 288 281
307 307 307 307 306 306 306 306 305 305 306 306 308 307 308 306 299 307 307 298 283 280 291 287 289 293 292 291 293 295 293 292 291 286 286 292 292 295 297 292 295 293 288 283 280 280 280
307 307 306 306 306 306 306 305 305 306 306 306 307 307 307 306 307 308 301 288 281 287 288 293 292 292 288 291 292 293 291 288 294 292 289 284 285 293 295 292 290 289 288 283 278 280 283
306 306 306 306 306 306 305 305 304 305 307 307 306 305 304 307 308 305 294 282 285 289 291 290 291 287 288 290 291 292 291 290 293 294 287 287 285 294 296 296 294 289 284 291 284 285 281
306 306 306 306 306 305 305 305 304 305 307 307 300 299 300 307 308 300 289 284 288 294 294 294 286 288 285 287 289 289 289 294 291 295 297 292 285 292 294 295 295 292 294 283 284 276 277
306 306 306 306 305 305 305 304 304 305 306 307 298 294 301 307 304 293 286 288 291 296 296 292 290 288 288 287 290 288 289 293 296 295 297 293 289 287 290 288 289 288 286 288 288 286 280
306 306 306 305 305 305 305 304 304 306 307 305 296 286 303 306 290 291 289 291 295 294 297 295 295 293 291 291 290 291 290 292 297 296 290 293 288 283 286 293 294 293 288 288 282 282 284
305 305 305 305 305 304 304 304 305 305 307 302 293 292 304 302 287 289 292 293 295 293 294 294 293 295 295 292 288 292 293 295 296 295 292 293 287 282 284 289 293 289 290 290 289 288 282
305 305 304 304 305 305 304 304 304 305 308 306 296 286 293 297 297 293 291 291 291 297 296 297 296 296 294 292 294 291 291 294 296 295 297 297 289 285 283 287 291 285 289 290 287 283 284
305 305 305 304 304 304 304 304 304 306 308 306 299 291 294 288 293 293 294 293 291 291 297 298 294 295 293 289 290 289 292 293 295 296 295 293 285 287 288 290 290 288 288 289 286 287 282
305 305 305 303 304 304 304 304 303 306 307 301 293 294 296 294 295 294 293 291 292 293 294 293 293 295 294 292 292 289 291 291 291 294 293 294 286 288 285 289 291 289 291 292 291 290 290
304 304 304 303 304 304 303 303 302 305 305 297 299 300 297 293 294 293 292 294 294 296 296 297 296 295 293 295 297 297 298 297 296 292 291 290 288 286 283 289 289 288 290 291 291 293 291
303 303 304 303 303 303 303 303 302 304 305 301 300 297 295 290 293 293 294 295 294 295 294 297 298 295 299 303 302 300 298 297 296 295 295 290 289 288 283 287 282 293 298 296 292 294 295
303 302 302 302 303 303 303 302 301 303 304 301 301 297 297 292 294 293 295 295 297 297 296 297 299 301 304 300 294 290 291 290 292 295 294 294 290 286 283 283 288 293 296 294 292 291 296
302 302 301 301 302 302 301 301 301 302 303 301 300 303 299 295 295 298 296 297 295 295 295 297 302 304 302 296 291 286 284 288 288 289 295 294 294 288 286 281 281 291 297 298 299 290 298
302 301 301 300 300 299 300 300 300 301 301 300 299 302 299 297 302 300 295 296 299 298 295 297 297 297 301 293 288 286 286 292 287 287 287 288 288 284 285 283 288 298 299 301 289 291 299
302 301 301 300 299 299 299 299 300 300 300 300 298 302 297 297 302 302 302 300 300 300 295 298 296 296 294 289 289 289 289 291 290 293 291 289 287 285 286 284 283 300 300 294 299 301 300
301 301 300 300 299 299 299 299 300 300 300 301 295 301 301 296 302 307 306 307 306 305 302 301 298 297 298 292 293 292 290 292 292 287 297 290 294 292 292 292 302 303 300 303 303 300 299

GFSGBSN_sfc_thetae_036.txt.gz
Theta_e
312 312 312 313 313 312 312 313 312 312 312 312 312 312 310 310 311 312 314 316 319 322 321 319 318 319 313 306 307 322 325 324 324 324 318 315 307 305 301 302 304 302 304 306 307 307 306
313 313 314 314 313 312 312 313 312 312 312 312 312 311 311 310 310 311 312 314 316 320 321 319 318 319 309 297 313 317 316 315 316 319 318 317 310 309 306 304 301 304 304 304 305 304 305
315 313 313 313 312 312 313 313 311 311 311 311 311 311 310 310 310 310 312 313 315 317 321 320 318 314 306 303 312 313 314 313 319 317 316 318 315 310 309 303 307 305 299 302 303 303 302
314 313 312 312 313 313 312 312 311 311 311 310 311 310 310 309 309 309 311 312 313 315 319 320 318 310 301 313 315 311 312 312 318 320 318 320 318 311 308 308 304 300 299 293 301 303 304
313 312 313 314 313 312 312 311 311 311 310 310 309 309 309 309 309 309 310 311 312 314 318 319 311 307 299 311 306 311 311 309 313 318 318 320 315 307 306 299 296 297 290 293 296 302 301
312 313 313 311 311 311 311 310 309 309 309 309 309 309 309 309 309 309 309 310 312 312 316 315 311 301 304 302 307 308 311 313 309 310 311 310 305 300 299 297 287 290 291 293 293 298 298
313 311 310 310 310 310 310 309 309 309 309 308 308 308 308 308 308 308 307 305 302 302 307 300 300 300 302 308 310 306 310 310 309 306 299 304 297 293 295 297 297 297 293 291 294 299 295
310 309 309 310 310 309 309 309 308 308 308 308 308 307 307 307 308 308 306 297 298 302 296 304 305 304 306 307 300 304 310 303 301 296 299 295 290 297 299 299 297 294 290 290 294 297 294
309 310 310 310 309 309 308 308 308 307 307 307 307 306 307 307 307 304 301 299 305 302 295 298 303 302 303 305 299 300 306 302 298 295 294 292 294 299 297 294 292 291 289 289 289 292 293
309 309 309 309 308 308 308 307 307 307 307 306 306 307 307 307 301 302 299 306 306 304 286 292 296 301 303 304 297 306 307 302 298 293 295 293 298 294 293 292 293 287 294 293 291 287 281
309 309 309 308 308 307 307 307 307 306 306 306 307 308 308 308 299 296 302 307 307 301 277 293 296 307 304 298 299 299 306 302 294 295 295 291 293 292 290 292 294 289 294 291 291 286 285
309 308 308 307 307 307 307 306 306 306 306 306 307 308 308 305 304 302 305 306 299 283 277 289 295 295 295 298 298 300 300 304 302 296 295 294 298 295 293 295 295 295 291 290 289 287 278
307 307 307 307 307 307 306 306 306 305 305 306 307 307 306 307 298 306 306 297 281 278 290 287 289 293 293 292 294 295 293 292 289 285 286 291 292 295 296 291 295 293 288 276 276 278 274
307 308 307 307 307 307 306 306 305 305 306 307 307 307 307 305 308 307 301 288 279 286 287 292 292 292 288 292 292 293 292 288 293 291 287 283 282 291 294 292 289 289 288 277 273 274 278
307 307 307 307 306 306 306 306 305 304 307 308 307 304 304 305 307 305 294 280 283 287 291 290 291 287 287 291 291 291 289 289 291 293 286 285 285 294 295 295 294 288 283 288 280 281 274
306 307 307 306 306 306 306 306 305 306 307 308 302 299 300 306 307 300 289 284 287 293 294 293 286 289 284 287 288 289 288 293 291 294 294 291 284 291 294 295 294 290 292 282 281 271 272
306 306 306 306 305 306 305 305 305 306 308 308 300 294 301 307 305 293 284 287 291 295 296 292 289 287 288 287 289 288 288 293 294 294 295 292 288 285 289 287 286 287 285 287 285 283 275
306 305 306 306 305 305 305 305 305 306 309 304 295 287 302 306 288 289 288 292 295 294 298 295 294 291 289 289 289 288 288 292 296 295 290 293 288 279 283 291 293 291 287 285 279 276 281
306 306 306 305 305 305 305 305 304 306 309 303 294 293 303 301 286 288 290 292 294 294 295 295 293 294 293 291 287 291 292 295 296 294 292 293 284 276 280 286 289 286 289 289 288 286 280
306 306 306 305 305 305 305 305 305 307 308 307 296 286 294 297 296 291 290 290 290 298 297 297 295 296 293 291 294 290 290 294 295 295 298 295 289 281 276 283 288 283 287 288 287 282 282
305 305 305 305 304 304 304 304 304 307 308 306 299 291 294 288 292 293 294 293 290 291 297 298 295 295 293 289 290 289 291 292 294 296 294 291 283 284 286 287 286 286 286 288 285 286 283
304 304 304 304 303 303 304 303 304 307 307 300 293 292 297 293 296 294 292 291 292 294 295 293 292 294 294 291 290 289 291 291 290 293 291 293 283 284 281 287 287 285 288 289 290 291 290
304 304 303 303 303 304 304 303 302 305 305 298 299 300 296 294 293 292 292 292 293 296 296 297 296 294 293 294 296 296 296 296 295 291 290 290 286 285 277 287 286 284 289 291 292 293 292
304 303 303 302 302 303 303 302 302 302 303 300 299 297 293 290 293 292 294 295 295 295 293 297 297 295 298 302 300 298 297 296 295 294 295 290 288 287 280 284 278 291 297 295 293 294 295
303 303 303 302 301 300 300 301 301 302 302 299 300 298 295 292 293 294 294 295 296 296 296 296 299 301 302 298 293 289 290 289 291 293 293 293 290 285 280 281 285 289 293 293 290 291 296
304 303 302 302 301 300 300 300 300 301 301 299 300 302 298 294 292 296 294 296 293 293 294 297 301 303 300 295 291 284 282 288 286 288 294 293 292 287 284 280 278 287 294 297 297 289 295
304 302 302 301 301 300 300 300 300 301 301 299 298 302 297 295 300 299 294 294 298 296 294 296 297 297 300 292 288 284 284 290 284 286 285 287 288 284 284 282 285 292 296 299 286 287 296
303 302 302 301 301 300 300 300 300 300 300 299 297 302 296 295 299 303 302 298 298 297 293 296 294 295 293 290 288 288 287 290 287 290 288 286 285 284 285 283 279 296 295 291 294 296 296
302 301 302 301 301 300 300 300 300 300 300 300 294 300 300 294 299 307 306 306 304 304 301 299 297 296 296 292 291 292 289 291 288 285 293 286 290 288 287 287 295 298 297 299 297 295 294

GFSGBSN_sfc_thetae_039.txt.gz
Theta_e
314 316 315 314 314 314 314 314 314 313 313 313 313 312 312 312 311 311 311 311 313 317 319 322 320 319 314 304 305 321 328 331 326 323 317 314 308 303 299 300 301 298 301 304 305 305 304
317 315 314 313 313 314 315 314 313 313 313 313 312 311 311 311 311 310 310 311 312 315 317 320 320 319 308 297 313 319 318 319 320 320 316 315 308 306 301 300 298 301 301 301 303 303 303
314 314 313 314 314 313 313 312 312 312 312 312 311 310 311 311 310 310 310 310 312 313 315 318 320 314 305 302 309 312 314 312 315 317 314 317 315 307 305 300 305 302 297 300 301 302 301
312 313 316 314 311 311 312 311 311 311 311 310 310 310 310 310 309 310 310 310 311 312 314 317 320 311 299 313 313 311 310 309 315 316 318 320 318 311 307 304 301 297 296 290 299 301 302
312 313 312 311 312 312 311 311 310 310 310 309 309 309 309 309 309 309 309 310 310 311 313 315 312 306 298 314 307 309 308 307 311 317 317 320 315 306 306 298 295 294 286 290 294 301 300
314 312 310 311 312 311 311 310 310 309 309 309 309 308 308 309 309 308 309 309 310 310 310 313 311 299 303 301 306 309 309 309 308 312 311 310 305 299 298 295 286 287 288 289 290 296 297
311 311 311 311 311 310 310 309 309 309 308 308 308 308 308 307 308 308 305 301 296 296 303 299 299 300 303 307 309 306 308 309 307 304 297 305 297 292 293 295 295 295 294 289 291 296 292
311 311 310 311 310 309 309 309 308 308 308 307 307 307 307 308 308 308 303 295 296 297 291 303 304 303 306 307 299 303 308 302 300 295 297 295 291 298 301 299 297 293 290 287 291 294 291
310 311 310 310 309 309 309 308 308 308 308 307 307 307 308 308 308 304 298 297 304 302 291 298 303 302 302 305 299 299 306 302 298 295 294 289 293 298 296 294 293 290 286 286 287 290 290
311 308 309 309 309 308 308 308 307 307 307 306 307 307 308 308 302 301 297 303 304 302 285 290 297 301 303 304 297 305 307 302 299 294 295 294 296 295 293 292 291 285 292 291 289 285 279
309 309 309 309 308 308 308 307 307 307 306 306 306 307 308 308 301 296 301 304 305 298 274 292 296 307 304 298 298 299 306 303 293 294 294 290 292 292 289 291 293 288 293 290 289 284 281
308 309 309 309 308 307 307 307 307 306 305 306 306 307 308 304 303 302 303 304 299 281 274 289 295 295 294 297 297 299 300 303 301 295 295 292 297 294 292 294 293 294 289 287 286 283 273
307 308 308 308 308 307 307 307 307 306 306 306 307 308 306 306 298 305 302 296 279 275 288 286 290 294 292 293 293 294 294 291 287 284 284 291 292 295 295 289 292 292 283 271 275 277 273
306 307 308 307 307 307 307 307 306 306 307 308 307 309 305 305 304 304 296 285 272 285 286 293 293 293 289 293 291 293 291 286 291 288 282 279 277 290 293 290 287 286 284 273 270 271 275
307 307 307 307 306 307 307 306 306 306 307 309 309 301 302 302 304 300 292 277 280 286 291 290 291 287 287 291 291 291 290 288 289 290 282 280 282 294 294 294 292 286 278 286 277 277 270
306 307 306 307 306 307 306 306 306 308 309 308 299 297 300 304 303 297 287 284 284 291 294 293 285 288 285 288 287 287 288 291 291 292 292 289 283 291 294 295 294 288 289 279 276 267 270
306 307 307 307 305 306 306 306 305 308 310 308 294 293 300 304 301 292 281 285 287 295 295 292 288 287 287 287 288 287 286 291 292 291 294 292 288 285 291 287 284 286 286 287 282 279 273
306 307 307 306 305 306 305 306 305 308 310 301 291 284 298 302 287 289 287 291 290 291 297 295 291 289 287 289 287 287 285 289 294 294 288 292 287 280 281 289 291 288 285 283 273 273 277
306 306 305 306 306 305 305 305 305 307 308 300 288 288 302 301 285 287 291 290 292 294 295 295 292 292 291 289 284 289 289 294 296 294 291 291 282 272 279 283 287 285 287 287 285 283 276
305 305 305 304 304 305 305 305 304 306 308 300 289 281 289 296 295 288 289 288 289 298 296 295 292 293 292 291 291 289 289 292 294 295 299 294 285 278 274 280 285 278 285 286 285 281 280
305 304 304 304 304 305 304 304 304 306 307 304 295 286 290 284 290 292 293 292 291 291 297 297 294 293 292 289 289 289 291 290 292 296 292 289 277 281 284 286 283 283 284 286 284 285 282
304 304 304 303 303 303 303 303 303 305 306 296 292 292 293 288 295 291 292 292 292 293 294 291 291 293 292 290 289 288 291 289 288 290 288 289 280 280 278 286 286 283 286 286 287 287 287
304 304 303 303 302 301 301 301 302 303 302 296 298 299 296 290 290 290 289 291 292 293 295 295 295 293 292 293 294 293 293 293 292 289 287 288 282 277 272 284 284 282 286 287 290 293 292
303 304 303 303 302 301 300 300 301 302 302 298 298 297 292 287 288 289 294 294 293 293 292 295 297 294 296 300 298 297 295 294 292 291 291 288 284 283 277 282 277 289 295 294 291 293 294
303 304 303 302 302 301 300 300 300 302 302 297 299 297 294 288 289 291 292 293 293 294 294 296 297 298 299 296 292 286 287 288 289 291 293 294 289 281 280 278 284 289 293 293 290 289 295
303 304 302 302 302 301 300 300 300 301 301 298 298 301 297 292 289 297 293 296 292 292 293 295 300 300 298 293 288 283 281 285 285 288 294 293 292 287 283 279 277 286 293 295 296 285 295
303 304 301 302 302 301 300 300 300 300 301 298 297 301 296 294 296 299 293 293 297 295 293 296 297 296 296 289 285 282 282 287 282 284 285 288 288 283 283 281 283 291 294 298 285 287 294
302 304 301 302 302 301 300 299 300 299 300 298 296 301 295 294 297 302 302 297 297 296 293 293 294 295 292 289 286 284 284 287 286 287 287 285 284 285 286 282 277 294 295 291 293 295 294
301 303 301 301 301 301 300 299 300 299 299 300 294 300 300 293 296 302 304 305 301 303 297 295 296 293 296 290 288 289 288 286 285 282 290 286 288 287 285 285 292 296 296 295 295 294 292

GFSGBSN_sfc_thetae_042.txt.gz
Theta_e
316 315 314 314 314 316 314 313 313 313 314 313 313 313 312 312 312 311 311 310 310 311 313 317 319 320 314 303 304 317 327 328 324 322 315 312 308 303 298 300 301 296 298 302 304 304 302
314 314 315 316 313 312 313 313 312 312 312 312 312 311 311 311 311 311 310 310 310 310 312 315 318 319 308 295 313 318 320 323 322 319 316 315 310 306 301 300 299 300 301 301 302 302 302
313 314 314 312 312 313 313 313 312 311 311 311 311 310 310 310 310 310 310 310 310 310 312 314 316 314 304 300 310 316 318 317 319 319 313 315 314 306 304 299 303 301 296 298 299 300 300
312 315 312 312 312 312 312 311 311 311 310 310 310 310 310 310 309 309 310 310 309 310 311 312 315 312 299 312 311 310 309 309 312 317 318 319 317 308 304 303 300 296 295 290 297 299 300
314 312 312 311 312 312 311 311 310 310 310 309 309 309 309 309 309 309 309 309 310 310 311 312 307 307 296 315 307 310 308 307 310 314 315 320 315 307 304 296 291 292 286 289 293 300 299
311 312 312 312 312 311 310 310 309 309 309 309 308 308 308 308 308 308 309 309 309 308 307 308 308 299 302 300 307 309 308 308 308 311 310 310 307 301 300 295 286 287 286 287 289 294 295
311 311 310 311 311 310 310 309 309 309 308 308 308 308 308 307 308 308 305 299 293 294 298 298 299 299 301 307 309 307 307 305 308 305 297 304 297 293 297 298 294 292 292 292 291 295 290
311 311 310 310 310 310 309 309 309 308 308 308 307 307 307 308 308 308 303 294 294 297 288 299 301 302 305 306 299 304 308 302 299 296 299 298 293 297 299 299 296 293 291 288 290 293 290
309 309 310 310 310 309 309 309 308 308 308 307 307 307 307 308 308 302 299 296 302 301 289 294 300 300 302 304 298 299 305 303 298 295 292 292 294 299 298 296 295 291 286 285 287 290 288
309 308 310 310 310 309 308 308 308 308 307 306 306 307 307 308 302 301 297 302 303 302 283 288 294 301 303 303 296 304 308 303 298 294 294 292 295 295 294 293 290 286 291 290 288 285 279
308 308 310 309 309 308 308 308 307 307 306 306 306 307 308 308 301 297 301 304 304 297 267 291 295 308 303 298 298 299 306 302 294 295 294 289 292 291 289 291 293 288 292 289 287 283 280
307 308 308 309 308 307 308 308 307 307 307 308 308 308 308 305 302 302 305 303 297 280 271 289 296 295 295 296 297 299 300 302 302 296 294 291 296 293 292 293 292 293 288 286 285 280 272
307 308 307 308 308 307 307 307 307 307 308 309 309 309 307 306 298 305 304 297 276 274 286 285 290 294 292 291 293 295 294 290 288 286 285 291 290 293 294 289 292 289 282 272 270 269 272
307 307 308 308 307 307 307 307 307 308 309 310 309 308 304 305 305 302 297 284 273 282 286 293 292 292 289 292 292 293 291 287 291 288 284 281 277 289 292 289 286 286 283 274 270 271 274
306 308 308 308 306 307 307 307 307 309 310 308 305 302 301 302 303 299 290 275 279 284 290 291 291 288 288 290 291 291 290 287 289 288 281 278 280 292 292 293 290 285 279 285 276 275 270
307 307 307 307 306 307 306 307 306 310 310 308 296 297 298 305 302 297 286 283 284 288 294 293 285 288 284 287 287 288 288 290 289 291 290 287 279 290 293 294 294 287 289 276 272 266 268
307 306 306 306 305 304 305 306 305 308 310 306 293 292 297 303 300 291 282 286 287 293 295 291 287 286 287 286 287 287 287 290 291 290 292 289 284 284 292 286 284 287 284 282 280 277 272
306 306 305 304 304 305 306 305 305 306 309 301 289 283 297 303 286 290 286 288 289 291 296 294 290 290 288 288 286 286 285 287 293 292 288 291 284 274 284 287 289 287 284 282 272 271 274
305 305 305 304 304 304 305 305 305 305 307 301 287 290 300 300 285 284 291 290 290 294 294 293 289 290 291 287 284 286 288 293 294 293 289 289 280 272 278 283 286 283 286 285 283 283 271
305 305 304 304 303 302 302 303 304 304 306 297 287 279 290 295 294 289 286 288 290 296 294 293 290 292 291 287 289 288 287 292 296 296 299 294 283 278 275 277 281 277 284 285 284 279 276
304 305 304 304 303 302 301 301 303 304 305 302 292 285 289 284 291 292 292 292 291 290 294 294 292 292 291 287 288 287 289 289 293 296 293 288 278 279 282 285 282 282 283 284 279 284 277
303 305 304 303 303 302 301 301 302 304 304 296 290 290 293 291 294 289 290 289 290 291 292 290 290 292 291 289 287 287 288 287 287 289 288 288 276 279 278 285 284 281 284 285 285 286 286
303 304 304 303 303 302 301 301 301 303 301 294 297 299 295 290 289 286 287 289 291 292 294 295 294 292 291 292 293 292 292 292 291 288 286 286 280 277 274 282 282 279 284 286 286 287 288
302 304 304 303 303 301 301 301 301 301 301 297 297 296 292 286 287 288 291 292 292 292 291 294 296 293 296 298 297 296 295 292 291 289 290 285 283 280 274 279 273 289 293 293 288 290 293
302 303 303 303 303 302 301 300 300 300 301 297 298 296 293 287 288 290 292 292 292 293 294 294 296 297 298 296 290 286 286 289 288 290 292 292 289 281 275 276 282 289 293 292 289 289 293
302 303 304 301 302 302 301 300 300 300 300 297 297 301 296 291 287 294 292 292 290 290 291 294 298 299 297 292 288 283 282 285 285 288 293 293 292 284 279 277 277 287 291 295 294 285 294
302 302 304 301 302 302 301 300 299 300 299 297 296 300 295 292 296 294 289 290 295 293 291 295 296 294 295 289 284 281 282 287 282 284 286 287 287 282 282 279 283 290 292 297 284 288 294
302 302 303 301 301 301 300 300 299 299 299 297 295 300 294 293 295 299 301 296 295 295 292 293 293 293 291 286 284 284 283 285 284 286 286 285 284 283 284 281 277 294 294 291 293 294 293
302 301 303 301 301 301 300 301 300 300 298 299 293 299 300 292 295 299 301 304 302 302 297 293 294 291 294 289 286 288 288 286 284 281 288 285 286 285 286 285 291 292 296 298 295 292 291

GFSGBSN_sfc_thetae_045.txt.gz
Theta_e
314 314 315 315 313 313 314 314 313 313 313 312 312 312 312 312 312 312 311 311 311 311 310 311 313 317 314 302 301 314 325 328 323 322 316 311 305 303 298 299 299 296 298 302 303 303 301
314 314 316 313 313 313 314 313 313 312 312 312 311 311 311 311 310 310 310 310 311 311 311 311 313 316 307 294 310 314 316 321 321 318 313 312 307 306 301 299 298 300 300 301 301 301 301
314 315 313 313 311 313 313 312 311 311 310 311 310 310 310 310 310 310 310 310 310 310 311 311 312 311 304 300 309 314 320 320 321 319 313 315 312 305 302 298 302 300 295 297 298 299 299
313 313 313 313 313 312 312 311 310 310 310 310 309 309 309 309 309 309 310 310 309 309 310 311 312 308 300 311 312 309 309 313 319 320 317 318 315 308 303 302 299 296 294 289 296 299 299
313 313 313 311 312 312 311 310 310 310 309 309 309 309 308 308 309 308 309 309 309 310 310 310 305 303 297 314 306 309 308 306 309 313 317 318 314 305 302 296 290 290 285 288 292 298 297
312 312 312 311 311 311 311 310 310 309 309 309 308 308 308 308 308 308 309 309 309 308 306 307 305 299 302 300 306 308 308 308 307 310 310 310 307 298 297 293 284 286 286 286 288 292 294
312 310 310 311 311 311 310 310 309 309 309 309 308 308 308 307 308 309 306 298 293 291 297 292 296 297 301 306 310 306 307 304 310 305 299 304 297 293 296 295 292 291 290 288 291 294 289
312 311 310 312 311 310 310 309 309 309 308 308 308 306 307 308 308 308 303 295 294 295 287 296 297 301 305 306 299 303 307 300 302 297 299 299 293 298 301 300 297 294 290 287 290 292 289
310 309 309 310 310 310 309 309 309 308 308 307 307 306 307 308 308 302 298 296 301 299 288 292 297 300 302 304 299 299 303 303 299 296 296 292 295 301 298 296 294 291 287 285 286 289 288
309 308 309 310 310 309 308 309 308 308 308 308 308 308 307 307 302 302 297 303 301 301 275 286 291 299 302 303 296 304 307 303 299 293 295 293 294 296 295 293 293 286 291 289 287 285 279
308 309 308 308 309 307 308 308 308 308 309 309 309 309 308 308 299 298 300 304 302 297 261 288 293 307 304 297 297 298 306 302 294 294 292 289 291 292 292 293 293 288 291 288 287 282 279
308 308 309 309 309 306 308 308 308 309 310 310 310 309 308 305 302 303 305 304 296 275 271 286 294 293 294 297 296 299 300 302 301 295 294 290 295 293 291 292 293 293 287 284 283 280 272
307 308 309 309 307 306 308 307 308 309 310 309 309 309 306 305 295 305 304 297 274 267 286 285 288 294 291 292 294 296 294 291 289 286 285 290 289 293 294 289 291 288 283 272 270 269 272
307 308 308 307 308 306 306 307 307 309 310 309 307 306 305 302 304 303 296 283 271 282 283 293 293 292 290 292 293 293 290 288 291 290 285 281 280 288 291 289 286 285 283 274 271 270 273
306 308 307 306 306 305 306 306 306 307 310 309 305 298 299 302 303 300 292 278 278 282 286 290 291 288 288 290 292 291 290 288 289 288 282 279 280 291 292 292 290 285 277 283 276 273 270
307 307 306 306 306 306 306 306 306 306 308 308 294 294 295 303 302 297 286 282 284 287 289 291 285 288 284 286 288 287 288 291 289 291 290 285 280 290 291 293 292 286 288 277 272 266 268
306 307 306 305 305 304 304 305 305 306 308 305 291 287 296 301 298 288 282 285 287 292 296 290 286 285 286 285 288 286 287 290 291 290 291 288 284 286 291 285 284 285 281 281 280 276 271
306 306 306 305 304 303 303 303 304 306 307 302 288 279 296 300 283 288 287 289 290 292 295 293 290 289 286 286 286 287 285 288 292 292 287 289 283 282 285 287 289 287 284 281 272 271 277
305 306 305 305 304 303 303 303 304 305 306 301 286 286 297 296 284 286 289 290 292 293 293 291 288 290 289 286 283 286 287 292 293 291 289 288 279 272 277 282 285 283 285 283 281 278 269
304 305 305 304 304 303 302 302 303 305 306 298 287 281 287 292 294 290 288 289 289 294 292 291 289 291 288 287 288 286 286 292 294 293 298 293 282 278 273 276 281 277 283 283 281 273 275
304 304 306 304 304 303 302 302 302 304 305 298 288 286 292 282 289 291 292 292 289 288 293 293 290 291 289 286 287 286 288 289 293 297 291 288 278 279 282 284 281 282 283 283 278 282 275
303 303 305 304 304 303 302 301 301 303 303 295 291 290 291 288 289 288 289 288 289 290 291 289 289 291 291 287 286 286 287 286 287 290 289 287 277 279 277 283 283 281 283 284 284 284 284
303 303 305 304 304 303 302 301 301 301 300 293 296 297 294 288 287 285 287 291 291 291 294 295 293 291 290 291 291 291 291 291 290 287 286 285 280 277 274 281 282 278 283 283 284 285 287
303 303 304 303 303 303 302 301 301 300 300 295 296 295 291 284 285 287 290 292 291 291 291 294 296 292 295 297 296 295 292 290 290 288 289 284 281 280 274 278 273 284 290 289 287 288 289
302 302 303 304 302 303 302 301 300 300 300 293 297 294 293 288 287 288 290 291 291 292 292 293 295 296 297 295 289 285 286 287 289 290 291 292 288 282 278 273 279 287 291 291 287 288 292
302 302 302 304 302 302 302 300 300 300 300 293 297 300 295 290 288 294 291 291 287 286 288 292 296 298 296 291 287 283 281 284 285 288 293 292 291 286 281 276 276 286 292 294 293 284 293
302 302 302 304 301 301 302 300 299 299 299 294 296 299 293 291 293 294 288 289 292 289 289 294 295 292 294 287 283 280 281 288 282 284 285 287 287 283 282 278 281 289 293 296 283 288 293
301 302 302 303 302 301 302 300 299 299 299 295 295 300 294 291 293 297 299 293 293 292 290 292 292 291 289 285 283 282 282 285 283 287 286 285 284 283 283 279 276 292 295 291 294 295 292
301 301 301 302 301 300 301 301 301 300 299 297 292 299 299 291 293 297 298 300 299 299 297 295 293 293 295 290 285 287 287 288 285 280 288 284 286 285 284 283 291 292 293 297 296 293 291

GFSGBSN_sfc_thetae_048.txt.gz
Theta_e
315 315 316 314 315 313 314 314 313 313 312 311 311 311 311 311 311 311 311 311 312 311 311 311 311 311 311 301 300 313 321 321 318 320 315 310 306 302 297 299 299 296 297 301 303 303 301
315 315 314 314 314 314 314 313 312 311 311 311 311 310 310 310 310 310 310 310 310 311 311 311 311 311 305 296 310 311 311 320 317 318 315 311 307 305 301 299 297 299 300 300 301 300 300
314 314 314 313 313 313 313 312 311 311 311 311 310 310 310 309 309 309 310 310 310 310 310 310 310 308 302 301 309 310 316 317 318 319 313 312 311 306 302 298 302 299 295 296 298 299 298
315 313 313 312 312 312 312 312 311 311 311 310 310 309 309 309 309 309 309 309 309 309 310 310 310 306 297 312 314 311 309 316 319 318 317 316 313 306 302 301 298 295 294 288 295 298 299
313 313 312 312 313 313 312 311 310 310 310 310 310 309 309 308 308 309 309 310 310 310 310 309 303 301 296 313 306 309 308 310 315 315 316 317 312 304 301 294 290 292 284 287 292 297 296
312 313 311 311 312 312 312 310 310 310 310 310 309 309 308 308 308 308 309 309 309 306 305 306 303 295 302 299 306 307 308 310 308 310 309 308 304 298 294 293 284 287 285 285 288 292 293
312 311 310 310 311 311 311 309 310 310 309 309 308 308 307 307 308 308 306 298 291 290 295 290 293 295 300 305 309 306 306 307 309 306 300 304 297 293 295 294 292 290 288 287 289 293 289
310 310 310 310 311 311 309 309 310 309 309 309 309 308 308 307 308 308 301 293 292 295 286 294 295 297 300 306 299 303 307 300 302 297 301 297 293 299 299 298 294 292 288 286 290 291 288
310 310 309 309 310 310 307 309 309 309 310 310 310 309 309 308 307 301 296 296 299 298 287 291 296 297 301 304 298 299 303 302 299 297 296 293 296 301 298 297 295 293 290 288 286 288 287
309 309 309 310 310 308 308 309 308 310 310 310 310 310 309 308 300 302 296 302 300 302 271 285 290 298 301 303 295 304 305 303 299 294 295 293 298 298 296 294 295 289 292 289 287 284 280
309 309 310 309 309 307 308 307 309 309 310 309 310 310 308 306 300 297 300 303 303 294 259 287 292 306 303 297 298 299 306 302 295 295 295 289 294 294 293 294 296 288 291 288 286 282 278
309 308 309 308 308 306 306 308 308 309 310 309 309 309 307 303 302 302 302 301 294 273 267 285 294 291 294 296 297 300 300 303 301 295 294 291 295 294 292 292 293 292 287 284 282 280 273
307 308 308 308 307 307 307 308 307 308 309 309 307 307 305 304 295 305 303 293 272 268 286 285 287 292 293 292 294 296 294 291 290 285 283 290 290 294 293 288 291 288 285 279 271 270 272
307 308 308 307 306 306 306 306 306 307 308 310 307 306 304 303 305 300 296 282 269 281 283 291 291 292 290 292 293 293 291 288 291 289 283 280 282 290 291 289 286 283 283 275 270 271 274
307 308 307 307 306 305 305 305 306 306 308 309 304 296 299 302 302 298 287 274 274 281 286 287 290 287 288 291 292 290 288 286 289 289 283 280 280 290 291 291 289 284 278 283 276 273 270
306 307 307 306 306 305 304 305 305 306 307 307 293 292 293 302 303 294 280 281 283 287 290 291 285 287 283 288 287 288 288 290 289 291 289 284 280 288 290 292 291 286 287 277 272 269 270
306 307 307 306 306 304 304 304 305 306 307 305 290 286 294 300 296 287 282 284 287 292 293 289 285 285 285 286 287 285 286 289 292 289 290 287 284 285 290 285 284 284 280 280 279 276 272
305 306 307 306 305 304 304 303 304 305 306 299 287 281 295 297 285 287 287 289 292 291 294 291 290 288 285 286 285 285 285 287 292 292 287 288 284 283 283 286 287 286 283 280 273 271 277
305 305 306 306 305 304 303 303 303 304 306 301 285 285 295 295 286 287 289 289 292 292 292 289 288 289 288 285 283 285 286 292 293 291 288 288 279 273 281 285 285 283 284 282 280 277 269
304 305 305 306 305 304 303 302 302 303 305 298 286 282 288 291 294 290 289 290 289 293 291 290 289 290 288 286 287 285 286 292 292 292 297 291 281 278 274 277 281 278 283 282 279 272 274
304 304 305 306 305 304 303 302 302 302 304 296 287 287 292 286 290 290 291 291 287 287 291 291 290 289 288 285 286 285 287 288 292 296 290 287 277 278 282 283 281 282 283 282 277 280 274
304 304 304 306 304 304 303 302 302 302 302 294 290 288 293 289 290 289 289 287 287 289 289 288 288 290 289 286 286 284 286 286 286 289 289 286 279 279 276 283 283 281 283 283 282 283 282
304 304 304 305 303 303 303 302 301 301 299 288 295 296 292 288 285 284 285 289 290 290 293 294 292 290 289 290 290 290 289 289 289 287 286 286 280 277 273 280 281 278 282 283 283 284 286
303 303 303 304 304 302 303 301 301 301 298 292 295 294 289 283 284 285 288 291 290 290 291 294 296 292 294 296 294 293 291 290 289 288 289 284 281 280 274 278 272 282 289 287 286 287 288
303 303 303 303 305 302 303 302 300 300 300 291 295 294 292 287 286 287 289 289 289 291 291 292 294 294 296 293 289 285 285 286 288 290 290 290 287 281 278 273 278 285 288 287 286 289 290
303 303 303 303 304 303 302 302 300 300 299 291 294 299 294 289 285 292 289 289 286 285 287 291 294 296 294 289 286 282 278 282 284 287 292 292 288 281 281 277 274 284 291 294 292 286 292
302 302 302 303 303 303 302 302 300 300 299 293 291 298 293 289 294 295 288 288 290 288 287 289 291 290 292 285 283 279 280 287 282 284 284 286 286 282 281 279 280 288 291 295 284 286 293
302 301 302 302 302 303 301 302 300 300 300 294 290 298 293 289 292 297 300 291 291 291 289 291 290 290 288 284 282 281 280 285 283 286 285 284 282 282 283 280 276 291 294 290 293 295 293
301 301 302 302 301 303 301 300 300 301 300 298 288 296 299 290 292 297 297 298 299 297 294 295 293 292 292 288 283 285 287 288 286 283 288 283 285 282 283 282 289 293 293 294 296 295 293

GFSGBSN_sfc_thetae_051.txt.gz
Theta_e
314 315 315 314 315 313 314 314 313 313 313 312 312 311 311 311 311 310 310 310 311 311 311 311 312 311 308 302 302 312 318 316 319 317 314 311 307 306 300 301 300 298 300 303 304 304 304
314 315 314 314 313 313 314 314 313 312 312 312 311 311 310 310 310 309 309 310 310 310 310 311 311 310 302 293 310 312 310 313 315 314 314 312 308 307 303 301 300 301 301 301 303 302 303
314 314 314 313 312 313 314 313 312 311 312 311 311 310 310 309 309 309 309 309 309 309 310 310 310 306 299 297 310 313 311 316 316 314 313 314 311 306 303 299 303 300 297 299 300 301 300
313 313 314 312 312 312 313 312 311 311 311 311 311 310 310 309 309 309 309 309 309 309 310 310 309 304 294 311 314 311 311 313 317 320 318 316 313 307 303 303 300 297 297 291 298 299 300
313 312 312 312 312 312 312 311 310 310 311 311 310 309 309 309 308 309 308 309 310 310 310 309 303 299 293 313 307 311 310 306 315 316 316 316 312 306 303 295 293 294 287 289 293 299 298
312 312 311 311 311 312 312 309 310 311 310 310 310 310 309 308 307 308 309 309 308 306 305 306 303 293 298 299 307 308 308 313 310 311 308 307 305 299 296 293 285 288 287 290 290 294 295
312 311 310 311 311 312 309 309 311 310 311 311 311 310 310 308 307 308 305 298 291 289 295 290 291 292 299 306 310 307 307 310 309 305 297 302 296 291 295 295 293 292 290 289 292 295 292
311 310 310 311 310 311 308 310 309 311 311 311 310 310 310 309 307 307 301 292 291 294 286 293 295 295 298 301 299 303 308 302 302 297 295 297 292 297 299 296 293 292 290 289 292 293 292
310 310 310 311 309 309 308 308 310 310 311 311 310 310 310 309 307 301 296 295 301 298 287 290 296 295 295 303 298 299 303 302 299 295 291 289 295 301 298 296 293 292 289 288 289 290 289
310 310 310 309 309 308 308 310 309 310 310 310 310 310 310 308 299 300 295 302 302 300 271 285 291 296 301 303 296 304 305 303 299 295 293 292 299 298 297 295 296 290 295 291 288 287 283
309 309 310 309 308 308 309 309 309 309 310 310 308 309 308 307 299 297 300 303 302 290 263 285 291 304 303 297 297 298 306 303 295 295 295 290 296 294 293 294 297 291 292 289 287 284 284
309 309 309 308 308 307 306 307 307 308 309 310 308 308 307 300 301 301 301 299 292 271 266 284 293 291 294 296 297 300 301 303 302 295 294 291 297 296 294 294 295 292 287 285 284 283 279
308 308 309 308 307 306 306 306 306 307 308 309 309 307 304 303 295 302 301 290 273 272 283 286 287 288 292 292 294 296 294 292 290 285 285 289 290 293 295 289 292 290 287 280 276 276 278
308 308 308 308 307 306 306 305 306 307 308 308 309 305 304 303 300 299 297 279 270 282 283 290 288 292 289 291 292 293 291 287 291 290 285 283 282 290 293 290 287 286 287 280 274 274 276
307 307 308 307 307 306 306 305 305 306 307 308 304 295 297 300 302 297 289 274 273 280 286 287 291 287 288 291 291 290 289 287 289 289 284 281 282 291 291 292 291 286 282 285 277 276 275
307 307 307 307 307 306 305 305 305 305 307 307 292 291 292 300 300 292 280 282 284 288 290 291 285 287 285 288 288 287 287 289 289 291 290 285 280 289 290 293 291 288 287 280 277 273 273
307 306 307 307 306 305 305 304 304 305 306 304 289 286 293 299 295 290 283 286 287 293 292 289 285 285 287 285 287 286 286 289 291 290 290 288 285 286 290 286 284 285 283 281 281 278 274
306 306 306 308 306 305 305 304 304 304 306 301 286 281 294 296 285 286 287 289 293 291 293 290 289 288 285 285 285 285 284 288 292 292 287 288 285 283 284 287 289 287 284 282 276 275 276
306 306 306 306 306 305 304 304 303 304 305 300 285 285 294 294 284 286 291 290 292 291 290 288 287 289 288 285 283 285 286 292 293 291 288 288 281 277 281 285 287 285 284 283 281 279 275
305 305 305 305 306 305 304 303 303 303 304 298 286 281 287 290 292 288 289 287 288 292 290 290 288 289 287 285 287 285 285 291 292 292 296 291 282 280 276 279 282 280 283 283 281 276 276
304 305 305 305 306 305 304 303 302 302 303 295 286 286 291 282 287 288 290 288 286 286 291 291 289 288 287 284 285 284 287 288 292 295 290 288 279 280 282 284 282 283 283 282 278 280 277
304 304 304 304 306 304 304 303 302 302 302 293 290 289 292 289 289 288 289 286 287 288 288 287 287 289 288 285 285 284 286 285 286 288 287 287 281 280 278 283 283 282 284 284 283 283 283
303 303 304 304 305 304 303 302 302 302 298 289 295 296 292 288 284 282 285 288 289 289 292 293 291 288 287 289 289 289 289 289 289 287 286 287 281 278 274 281 282 279 282 283 283 284 286
303 303 303 303 303 304 303 302 301 301 297 291 293 293 290 283 283 285 287 289 289 289 290 293 294 290 293 294 292 292 290 289 289 288 289 284 282 281 276 279 272 283 289 287 286 286 287
304 303 303 303 303 304 303 302 301 300 300 291 291 293 291 286 286 286 288 288 288 289 290 290 293 293 296 291 288 284 286 287 288 289 290 290 285 280 278 276 278 284 287 286 285 289 290
304 303 303 303 303 303 303 302 302 300 299 293 292 298 293 289 285 290 290 287 285 284 286 289 293 295 292 288 285 282 279 282 284 287 292 291 288 281 280 277 274 283 291 293 293 287 294
303 303 303 303 303 303 303 303 302 301 300 294 291 297 292 287 292 294 291 287 289 286 285 288 290 289 291 284 283 278 280 286 281 283 284 286 286 280 281 279 279 286 291 296 286 288 294
303 303 302 302 303 302 302 302 301 301 300 294 289 294 293 288 290 295 298 295 290 289 286 289 288 289 287 283 282 281 280 286 285 286 283 284 283 283 283 280 275 289 294 291 294 295 295
302 302 302 302 302 302 303 302 300 301 301 299 286 293 298 290 289 295 296 297 297 295 295 294 291 292 290 288 283 284 286 288 286 283 289 283 283 282 283 282 288 291 292 295 295 294 294

GFSGBSN_sfc_thetae_054.txt.gz
Theta_e
315 315 314 316 314 313 314 315 314 313 313 313 313 312 312 311 311 310 310 310 310 311 311 311 311 311 308 298 299 315 317 317 322 319 313 312 309 308 303 305 305 302 303 305 306 307 307
315 315 315 315 314 314 313 314 313 313 312 313 313 312 312 311 310 310 310 310 310 310 310 310 310 309 302 292 309 315 314 313 316 316 312 314 310 311 305 305 303 305 304 304 305 306 305
314 314 313 314 313 313 313 313 312 311 312 312 312 311 310 311 310 310 309 310 310 310 310 310 310 307 299 296 311 314 313 313 317 316 310 316 314 310 308 302 307 304 300 302 303 304 302
314 313 313 313 312 312 313 311 310 311 312 312 312 311 311 310 309 309 309 309 309 310 310 310 309 305 293 306 308 308 313 312 317 317 315 318 317 311 306 307 304 300 299 294 300 303 304
313 313 312 311 313 313 311 310 312 311 312 312 312 312 312 310 309 308 308 309 310 310 310 310 304 300 292 310 305 309 313 309 315 315 317 318 313 307 305 299 296 298 291 292 296 303 301
312 312 311 312 312 312 310 311 310 312 312 312 311 311 311 310 308 307 308 309 309 307 307 307 304 295 297 298 306 310 313 311 311 310 309 309 305 301 301 297 287 291 291 293 293 298 300
312 312 311 312 310 310 309 309 311 312 312 311 311 311 311 310 309 306 307 304 297 295 299 292 292 294 297 302 311 307 308 310 311 306 297 303 296 295 298 298 296 295 293 292 295 297 297
311 311 311 311 310 309 310 311 311 311 311 311 309 310 311 309 308 308 306 297 295 298 289 295 295 296 297 299 299 304 309 304 303 296 299 296 293 299 301 300 297 295 292 292 295 296 296
310 310 311 310 309 309 308 309 310 310 311 311 309 309 310 309 308 305 301 298 303 302 289 291 296 294 295 299 298 298 304 303 300 295 296 292 296 301 299 297 294 294 292 293 292 294 294
310 310 311 309 309 309 308 308 308 309 310 311 309 310 308 307 303 303 297 303 304 303 284 285 290 293 296 299 297 305 306 302 299 290 293 291 299 298 297 295 296 291 297 295 293 292 289
309 309 310 309 309 308 307 307 308 308 309 309 309 309 308 307 302 297 301 305 305 296 273 287 291 302 301 297 299 298 307 303 294 293 293 290 293 296 295 296 299 294 297 293 292 291 290
309 309 310 309 309 308 307 307 307 308 308 308 310 308 307 305 304 303 305 304 300 283 274 286 292 291 293 296 298 300 302 304 302 295 296 293 299 296 293 295 298 295 293 291 291 290 285
308 308 309 309 308 307 307 306 306 307 307 308 309 309 306 305 297 306 306 298 284 279 287 285 288 291 293 293 295 297 294 294 291 287 287 290 290 295 296 289 293 294 292 284 283 283 284
308 308 308 309 308 307 307 306 306 306 307 308 308 307 305 305 307 305 302 290 280 283 284 290 289 292 289 293 294 293 289 291 294 292 289 286 283 290 294 293 291 292 291 287 279 279 282
308 307 307 308 308 307 306 306 306 305 306 308 305 304 304 306 307 305 294 284 282 283 287 287 291 287 288 291 292 291 290 291 292 294 288 286 284 293 294 294 296 289 288 289 283 281 282
307 307 307 308 308 307 306 306 305 305 307 306 302 300 300 304 306 301 293 285 286 289 291 292 286 289 286 288 289 290 291 293 291 293 294 290 284 291 291 294 294 292 292 285 286 279 278
307 307 307 307 308 307 306 306 305 305 306 305 299 296 300 305 303 299 286 288 289 294 294 291 289 289 290 289 290 289 289 292 294 292 295 293 290 287 292 290 289 289 288 287 287 284 280
306 306 306 306 308 306 306 305 305 305 305 304 297 294 302 304 295 295 291 290 294 294 296 294 294 292 291 290 289 289 288 292 296 295 291 292 291 285 287 290 292 291 289 288 285 281 283
306 306 306 305 307 306 305 305 304 304 304 302 293 295 302 302 290 290 292 292 294 294 293 292 291 293 292 290 288 290 290 295 295 294 292 293 288 282 283 287 290 288 288 288 286 286 282
305 305 305 305 306 305 305 304 304 304 304 302 295 292 297 301 298 294 291 291 292 296 294 293 292 293 292 289 291 289 290 293 295 296 296 295 287 285 283 284 288 285 287 288 288 284 283
304 305 305 305 305 305 304 304 303 303 303 301 295 289 292 290 294 293 294 293 290 290 295 295 292 292 291 288 289 288 291 292 295 295 293 293 286 286 286 287 286 286 287 286 284 287 286
303 304 304 304 304 305 304 304 303 302 301 299 291 290 293 290 292 292 292 291 291 292 293 291 291 292 293 290 290 288 291 291 291 293 292 291 285 286 284 286 286 284 287 288 287 288 287
303 303 304 304 303 304 304 303 302 302 299 295 296 296 293 291 290 291 292 292 292 294 295 296 295 293 292 293 295 295 295 296 295 292 291 290 287 285 282 284 285 283 286 287 288 289 289
303 304 303 304 304 304 304 303 303 301 299 297 295 294 290 287 290 290 291 292 293 294 293 296 297 294 295 298 298 298 297 295 295 292 294 289 288 287 284 284 278 287 291 291 289 290 291
303 304 303 303 303 304 304 303 303 301 299 296 296 293 290 286 289 290 292 292 294 296 295 295 297 298 301 297 292 289 289 290 291 294 293 293 290 285 283 282 285 288 289 289 288 289 293
303 304 304 303 303 304 303 303 303 302 301 298 297 298 293 287 288 292 291 293 293 294 294 295 300 301 299 295 291 284 281 286 284 288 293 291 292 288 284 279 278 289 294 297 294 289 297
304 304 303 303 303 303 303 302 303 302 301 298 296 298 292 287 291 293 291 292 294 293 293 296 297 296 297 293 289 286 285 289 284 284 286 287 287 284 284 281 285 291 293 298 287 289 298
304 304 303 303 302 303 303 303 303 302 301 299 296 298 293 288 289 292 292 293 296 295 293 296 295 295 294 290 289 288 287 289 287 289 287 286 285 284 285 281 279 293 296 291 295 299 299
304 303 303 302 302 302 302 302 303 302 301 299 293 296 298 290 289 294 294 295 294 297 298 297 296 295 297 293 291 291 288 291 289 284 291 285 289 288 288 287 293 295 295 298 298 297 298

GFSGBSN_sfc_thetae_057.txt.gz
Theta_e
316 316 314 314 314 313 313 314 314 313 313 313 314 313 313 312 312 312 311 311 311 311 311 311 311 311 308 299 299 311 321 324 323 320 312 310 306 307 303 305 305 302 305 306 307 307 307
315 315 314 314 313 313 314 314 312 312 313 314 313 313 312 312 311 311 311 310 311 311 310 310 310 310 303 293 308 309 315 315 319 316 311 311 307 311 306 305 303 305 305 305 306 306 307
315 315 313 313 313 314 313 312 312 312 313 313 313 313 312 312 311 310 310 310 310 310 310 310 310 307 300 297 308 315 313 312 315 317 310 312 312 308 308 303 308 305 301 303 304 305 304
314 313 313 313 314 312 311 311 311 311 313 313 313 313 312 312 311 309 309 309 310 310 310 310 310 306 295 306 309 306 310 311 314 318 315 315 315 310 306 307 304 300 301 294 301 303 304
313 313 313 313 312 312 311 311 312 312 313 313 313 311 312 311 311 309 307 308 309 310 311 310 305 301 293 308 301 306 309 309 311 316 314 315 314 307 306 299 296 298 291 293 296 303 302
313 312 312 313 311 311 311 312 312 312 312 312 311 311 312 311 310 307 306 309 309 308 308 307 305 295 298 295 303 306 311 311 308 310 307 307 306 300 299 297 288 290 291 294 293 299 300
312 312 312 312 311 311 310 310 310 311 312 312 311 311 311 310 309 306 307 305 298 297 300 294 294 294 296 301 306 303 311 309 309 305 297 303 297 293 297 298 297 295 293 293 295 300 298
311 311 312 311 311 310 310 309 310 310 311 312 311 310 310 309 308 307 307 298 298 299 290 296 296 296 298 300 294 303 309 301 302 296 299 298 289 299 301 299 297 296 293 293 296 298 297
311 310 311 311 310 310 309 309 309 310 310 311 311 310 308 309 307 306 302 299 304 303 290 292 296 295 294 299 295 300 305 303 299 296 296 293 295 299 298 297 295 294 292 292 293 296 297
310 309 311 310 310 310 309 308 308 308 309 310 310 310 308 308 303 304 298 304 306 304 286 286 291 295 297 298 293 303 307 301 298 295 296 293 299 297 297 295 296 291 297 295 294 292 287
310 309 310 311 310 309 309 308 308 308 308 309 309 310 309 308 303 299 302 305 306 300 275 288 290 300 298 296 297 298 307 303 293 291 295 291 294 295 294 296 298 294 299 296 295 293 292
309 308 309 310 309 309 308 308 307 307 307 307 309 309 309 307 307 304 306 305 300 284 276 286 293 291 294 297 298 300 300 303 301 293 294 293 297 297 297 296 299 300 296 294 294 292 286
308 308 308 309 309 308 308 307 307 307 306 307 308 309 308 307 301 308 307 300 284 280 288 287 288 294 294 294 295 295 293 293 291 286 285 287 288 295 296 291 295 297 293 285 283 284 284
308 307 308 308 310 308 308 308 307 307 306 307 308 307 308 306 309 307 301 291 282 285 285 292 291 293 290 294 293 294 294 291 297 295 288 287 283 288 293 292 291 293 294 288 280 282 285
308 307 308 308 310 308 308 307 307 306 307 307 307 307 305 308 308 306 295 287 283 285 289 289 293 289 289 293 293 292 293 292 295 296 288 287 285 292 293 295 296 291 290 292 285 285 284
307 307 307 307 309 308 307 307 306 306 307 307 304 302 303 307 308 303 294 285 287 290 292 293 287 291 287 289 290 292 292 295 293 295 297 292 285 291 293 296 295 294 295 287 289 280 279
306 307 307 307 307 307 306 306 306 305 306 307 303 298 304 308 306 301 288 289 291 296 296 293 291 290 291 290 292 291 291 294 296 294 297 296 291 288 293 291 290 290 290 289 289 286 282
306 306 306 306 307 307 306 306 306 305 305 305 301 296 306 309 298 299 293 293 294 296 298 296 296 294 292 293 291 291 291 294 297 297 292 295 292 286 288 292 294 294 292 292 287 284 285
305 306 306 306 306 306 306 305 305 305 304 302 295 299 307 308 292 294 295 295 296 295 295 294 293 295 295 293 289 292 292 296 297 296 294 295 290 283 284 289 292 289 292 291 289 289 284
305 305 305 305 305 306 305 305 304 304 303 303 298 292 300 305 302 297 294 293 293 298 295 295 294 295 294 292 294 291 292 295 297 297 297 298 290 287 284 286 290 286 289 290 289 285 285
304 304 305 305 305 305 305 305 304 303 303 303 297 291 293 292 296 296 296 295 292 292 296 297 293 293 293 290 290 290 293 294 296 295 295 295 287 287 288 289 288 288 288 288 285 288 287
304 303 304 304 304 305 305 304 304 303 303 300 291 290 293 291 295 295 294 293 292 294 294 293 292 294 294 291 292 290 293 293 292 295 294 294 287 288 285 288 288 286 289 289 289 289 289
303 303 304 304 304 304 304 304 304 302 301 295 296 298 293 292 294 293 292 294 294 296 297 297 296 294 293 295 297 297 298 297 296 294 293 292 289 287 284 286 286 283 287 289 290 291 291
303 304 305 304 304 304 304 304 303 302 300 297 295 294 290 287 291 292 293 294 295 296 295 297 298 295 296 301 300 300 298 297 296 295 296 291 290 289 285 285 279 289 293 293 291 292 293
303 303 305 304 304 304 304 303 304 302 300 298 298 294 289 284 289 291 293 294 297 298 297 297 299 300 302 299 293 290 290 291 292 294 294 295 291 286 283 283 287 289 290 290 289 290 294
304 304 305 304 304 303 303 303 303 302 302 299 299 299 294 286 288 291 291 294 293 295 296 297 301 304 301 297 292 284 282 286 285 289 294 293 294 288 285 281 280 290 295 297 296 289 297
304 304 305 304 304 303 303 303 304 303 301 300 298 300 293 286 290 291 290 290 296 295 295 297 298 298 299 294 289 286 285 290 284 285 286 287 288 285 284 282 286 293 297 300 288 289 299
304 305 304 304 303 303 303 302 303 303 302 300 297 300 294 288 288 290 291 287 289 296 293 298 296 296 296 291 290 290 288 289 288 290 288 287 285 284 285 282 280 295 295 291 295 300 300
305 305 304 303 302 302 303 302 303 303 302 301 294 299 298 290 289 293 293 295 295 294 292 299 297 297 298 294 294 294 289 291 289 284 293 286 290 288 289 288 296 299 298 300 300 299 299

GFSGBSN_sfc_thetae_060.txt.gz
Theta_e
316 316 315 315 314 315 314 314 313 313 314 315 315 315 315 314 314 313 312 312 312 311 311 311 311 310 306 298 298 309 320 319 320 321 312 310 304 306 302 304 304 301 302 304 306 306 305
316 315 315 314 315 313 313 313 313 312 314 315 315 314 313 313 313 313 312 311 311 311 310 310 309 309 301 291 306 309 311 314 316 316 313 310 305 309 304 304 302 303 304 304 304 305 305
315 314 314 314 314 313 312 313 314 314 314 314 314 313 313 312 312 312 311 310 310 310 310 309 309 306 299 295 307 314 313 309 313 315 311 311 310 305 307 303 307 304 299 302 301 303 303
314 314 314 314 313 312 312 311 312 313 313 314 314 313 312 312 312 311 309 309 309 309 310 310 310 305 293 306 307 305 310 308 312 313 315 312 312 307 305 307 304 300 298 293 300 302 303
314 313 313 314 313 312 312 310 311 312 312 313 313 312 312 312 311 309 308 307 309 309 310 310 305 300 292 309 300 303 305 303 308 310 315 315 312 305 304 298 295 297 289 292 295 302 301
313 313 313 313 313 312 311 311 310 312 312 312 312 312 312 311 310 308 307 308 309 308 308 307 304 295 297 294 302 303 307 309 305 308 308 306 305 298 298 295 286 289 290 292 292 298 299
312 312 312 313 312 311 311 310 310 310 311 311 311 311 310 310 309 308 308 306 298 297 299 294 294 293 296 300 306 303 307 302 301 305 296 301 295 291 294 296 296 294 292 291 294 299 297
311 311 312 312 311 311 311 310 309 309 310 310 310 311 310 310 309 309 306 297 297 298 289 297 296 295 299 299 294 300 307 296 295 294 298 295 290 297 299 298 296 293 291 290 294 298 296
311 310 311 312 312 311 310 310 309 309 309 309 310 310 310 309 309 307 301 299 304 303 289 292 296 295 296 298 293 296 304 300 294 293 294 291 294 300 298 296 294 292 290 290 291 294 295
310 310 310 311 311 310 310 309 309 308 308 308 308 309 310 309 304 304 299 304 306 304 284 287 291 295 297 295 290 304 306 301 298 293 296 295 299 297 296 294 295 289 295 294 293 290 284
310 310 309 310 310 310 309 310 309 308 308 307 307 309 310 309 304 299 302 306 306 300 273 289 290 301 298 290 295 298 307 302 294 294 295 290 294 294 291 295 297 292 296 294 293 290 288
309 309 309 309 310 310 309 309 309 308 307 307 307 308 309 307 306 304 307 306 301 283 276 285 290 290 291 295 296 299 300 303 302 293 294 292 297 297 294 298 298 299 294 293 292 289 282
309 308 309 309 309 310 309 308 308 308 307 307 307 308 306 306 300 308 307 299 283 279 289 286 287 293 292 292 292 292 292 293 290 286 285 290 289 294 296 293 298 295 289 281 281 280 280
308 308 309 309 309 309 309 308 308 307 307 308 308 308 308 306 309 306 301 290 279 286 285 292 292 294 290 293 291 293 294 291 295 292 287 285 282 288 293 293 290 292 290 281 276 277 279
308 307 308 308 308 309 308 308 307 307 308 307 309 308 306 309 309 305 294 283 282 285 289 289 293 289 289 293 293 293 292 291 295 295 287 286 284 291 293 296 295 291 287 289 282 281 278
307 307 307 308 308 309 308 307 307 307 307 307 303 302 304 308 309 301 293 284 287 291 293 293 288 291 286 290 290 292 291 295 293 295 297 291 283 289 293 295 294 293 295 283 281 273 275
306 307 307 307 307 308 307 307 307 306 307 308 303 298 303 309 307 298 287 289 292 296 296 292 291 290 290 290 292 290 290 294 295 294 295 294 290 287 292 289 288 289 288 287 285 282 276
306 306 306 306 306 307 307 306 306 306 306 304 300 293 305 309 295 298 292 293 294 296 298 296 295 294 292 292 290 290 290 292 297 296 291 293 290 284 287 292 294 293 291 290 284 281 279
305 305 306 306 305 306 307 306 306 305 304 300 293 297 307 307 291 292 295 295 296 295 295 294 293 295 295 292 288 291 292 297 297 295 292 293 286 279 281 287 290 288 291 291 287 286 281
304 304 305 305 305 305 306 306 305 305 304 301 296 289 295 302 300 295 294 293 293 298 296 296 294 295 293 291 293 290 291 295 297 295 298 296 288 284 278 284 288 283 287 289 285 277 280
304 304 304 304 305 305 305 305 305 304 305 300 295 290 292 288 294 294 295 295 292 292 296 297 293 293 293 289 289 289 292 293 296 295 294 293 282 282 286 289 286 286 287 287 279 284 278
303 303 303 304 305 305 305 305 305 303 305 298 290 289 292 290 293 293 293 293 292 294 294 293 292 294 293 290 290 289 291 291 290 292 290 292 282 283 281 287 287 283 287 288 287 287 286
302 303 304 305 305 305 305 305 304 303 302 293 294 295 292 290 291 291 292 293 293 296 297 297 296 293 292 294 295 295 295 294 294 291 289 289 284 281 277 284 284 279 285 287 287 288 288
303 303 304 306 305 305 305 304 304 303 301 296 294 293 288 285 288 289 291 293 293 295 294 297 298 294 295 298 297 295 294 294 293 291 293 288 287 285 279 280 272 287 291 291 289 290 291
304 303 304 305 305 304 304 304 303 303 302 297 296 292 288 282 286 287 290 291 294 297 295 297 298 297 299 296 292 288 288 289 291 291 290 292 288 283 278 278 284 287 289 288 287 288 292
304 304 305 305 304 304 303 304 304 304 302 299 297 297 292 285 285 287 288 290 290 293 294 296 299 301 298 294 290 284 282 285 285 287 291 291 292 284 282 277 277 288 292 294 293 286 293
304 304 304 305 304 303 303 303 303 303 303 299 297 299 292 284 288 288 287 287 292 293 292 295 296 295 296 290 287 283 283 289 283 284 284 284 285 283 283 281 283 294 295 296 285 287 296
304 304 305 304 304 303 303 303 303 303 303 299 296 300 293 287 287 289 289 286 287 290 290 295 294 294 292 289 286 287 284 287 286 286 287 286 284 284 285 281 275 294 292 289 293 297 298
305 305 304 304 303 302 303 303 303 303 303 301 294 298 299 290 288 293 293 293 291 291 289 290 293 295 295 290 289 289 287 287 286 283 288 282 286 285 285 284 292 294 295 297 297 296 296

GFSGBSN_sfc_thetae_063.txt.gz
Theta_e
316 316 316 315 315 314 313 313 314 315 314 315 315 315 314 314 313 313 313 312 311 311 311 311 311 310 306 296 295 308 316 317 313 317 312 310 304 305 301 304 303 300 302 304 305 304 303
316 315 315 315 314 314 313 313 313 313 314 314 315 314 313 313 313 312 312 312 310 310 310 310 309 309 301 290 305 308 309 309 312 314 311 311 305 307 303 303 301 303 303 303 304 303 303
315 315 315 315 314 313 313 312 312 312 313 314 314 313 312 313 313 312 311 309 309 309 309 309 309 306 298 294 305 309 311 310 313 313 310 311 310 305 304 302 305 302 299 300 301 302 301
315 314 314 314 313 313 313 311 311 312 312 313 313 313 312 312 312 311 310 308 308 308 308 309 309 304 293 305 304 303 305 306 312 313 314 314 311 306 303 305 303 299 297 292 299 301 302
314 314 314 313 313 313 312 311 311 311 312 312 312 313 312 312 310 309 308 307 307 308 309 310 304 300 291 308 301 302 301 301 308 310 311 314 309 304 301 296 294 296 287 289 294 300 301
313 313 313 313 313 312 312 311 311 310 311 311 311 311 311 311 310 309 309 309 309 307 307 307 304 294 297 295 301 303 304 308 304 306 305 306 303 295 296 293 286 289 287 290 290 296 298
312 312 312 312 313 312 312 311 310 310 309 309 310 310 311 310 310 310 306 301 294 293 298 294 294 293 295 299 304 302 305 302 301 300 297 301 294 289 293 296 294 293 291 289 293 297 296
312 312 312 312 312 312 311 311 310 310 309 309 308 310 310 311 310 310 304 296 296 296 288 296 297 295 298 300 293 299 304 294 293 288 298 295 290 295 297 297 295 292 290 290 292 297 296
311 311 311 312 311 311 310 310 311 310 309 309 308 309 310 311 311 304 299 298 302 301 289 292 296 295 296 298 293 296 299 297 290 289 295 291 293 298 297 294 293 291 287 287 289 292 292
311 311 311 311 311 312 311 310 310 310 309 308 308 308 309 311 302 300 297 303 303 302 284 288 291 294 297 295 291 302 299 298 290 291 293 293 297 296 294 293 293 288 293 292 291 288 283
310 310 310 311 310 311 310 309 309 309 309 308 308 308 309 309 300 297 301 303 302 299 273 289 291 301 298 292 295 294 305 300 288 294 293 291 292 293 293 294 296 290 295 293 291 287 286
310 310 309 310 310 310 310 309 309 309 308 308 307 308 308 304 304 304 305 303 300 280 275 285 290 290 290 293 295 299 300 304 301 295 294 293 298 297 294 297 298 298 293 290 289 287 279
309 309 309 309 309 309 309 309 309 308 308 308 308 309 306 306 297 305 305 297 278 275 289 287 287 293 292 291 292 294 293 293 290 283 285 290 290 294 298 293 296 296 286 277 277 275 277
308 308 309 309 309 309 309 309 308 308 308 308 309 310 307 305 304 305 297 286 274 283 284 292 293 293 289 292 291 293 293 290 293 289 285 282 283 290 294 291 292 293 287 278 273 274 277
308 308 308 308 308 308 308 308 308 308 308 307 307 301 299 303 305 301 292 277 281 281 289 289 291 288 288 293 292 292 291 291 291 292 284 283 282 292 293 296 295 291 284 289 280 278 274
307 307 307 307 308 308 308 308 307 307 307 307 296 296 297 305 304 297 285 283 285 289 292 293 287 291 285 288 290 289 288 293 293 295 295 288 282 290 293 296 296 292 294 283 278 273 273
306 306 306 307 307 307 307 307 307 307 307 306 295 292 300 305 301 295 282 282 291 295 294 292 290 288 289 289 290 288 288 291 293 292 296 294 287 287 292 289 289 289 287 286 285 280 275
305 306 306 306 306 306 307 306 307 306 306 300 291 287 301 303 288 291 285 291 295 295 296 294 295 293 290 290 288 288 287 290 295 294 291 293 289 283 287 293 295 293 290 288 279 278 277
304 305 305 305 305 306 306 306 306 306 305 298 291 289 300 301 289 288 291 294 295 294 293 293 291 293 293 291 286 289 290 295 295 293 290 292 285 278 280 286 289 288 290 292 287 283 276
304 304 304 305 305 306 306 306 305 305 305 296 290 284 289 296 294 293 290 290 292 296 294 294 292 292 290 288 290 288 288 294 295 293 299 296 287 283 277 281 285 282 288 288 285 280 281
303 302 304 305 305 305 306 305 305 305 306 294 288 286 291 285 290 288 291 293 290 290 294 294 291 291 290 286 287 287 290 290 293 295 292 291 280 281 285 288 284 285 286 286 280 284 278
303 302 304 305 305 305 305 305 305 304 304 290 285 284 287 288 290 288 292 292 290 293 292 291 289 291 291 288 287 286 289 288 288 289 288 290 279 281 280 287 286 282 286 287 286 286 285
303 302 304 305 305 305 305 304 304 304 300 287 288 289 289 286 289 289 289 290 292 294 294 295 293 291 290 292 292 291 291 291 291 289 287 287 282 279 276 283 283 279 284 285 286 287 287
303 302 303 305 305 304 304 304 304 304 301 290 289 291 286 280 283 285 286 291 292 293 293 297 296 291 293 296 294 293 292 292 291 289 290 286 284 281 275 279 271 282 289 289 288 289 289
304 303 303 305 305 304 303 304 304 304 303 292 291 287 286 278 282 284 286 289 292 294 293 295 296 294 297 293 288 286 286 289 289 290 289 289 286 280 276 273 279 285 287 287 286 286 290
304 304 303 304 304 303 303 303 303 303 303 293 292 292 287 282 281 286 285 287 287 290 294 294 297 299 297 291 288 280 277 283 284 288 290 289 288 281 278 275 276 287 290 292 292 283 291
304 304 303 304 304 303 303 303 303 303 303 295 292 294 288 284 284 284 282 283 290 288 289 295 292 292 294 287 284 279 280 286 281 283 283 283 284 280 282 277 282 292 293 294 284 285 293
305 304 304 304 303 302 303 303 303 304 303 296 291 295 289 284 284 287 287 284 284 286 287 289 291 292 290 286 285 285 281 285 283 285 286 284 283 283 284 281 276 294 291 290 292 295 296
305 305 304 304 303 302 302 303 303 303 304 301 292 295 295 290 286 290 291 291 290 290 287 288 289 294 294 288 287 287 285 284 283 280 286 282 285 284 284 283 290 292 293 295 296 296 297

GFSGBSN_sfc_thetae_066.txt.gz
Theta_e
316 316 315 316 316 314 314 313 312 314 314 315 315 315 314 314 314 314 313 313 311 311 310 310 310 309 305 295 295 306 314 312 308 313 310 309 301 304 300 302 305 301 303 305 306 308 307
316 315 315 315 315 314 314 313 312 313 314 314 314 314 313 313 313 313 312 311 310 310 309 309 309 310 300 289 303 306 307 309 309 309 309 310 305 306 302 303 302 304 304 304 305 303 305
315 315 315 315 314 314 313 312 312 311 313 313 313 313 312 312 312 312 311 310 310 309 309 310 310 305 298 293 303 306 306 305 311 309 308 311 309 305 303 300 306 302 299 301 302 302 301
315 315 314 314 314 314 313 312 312 311 311 312 312 313 312 311 311 310 309 308 307 308 309 309 309 304 292 305 303 304 305 305 311 313 313 314 313 305 301 304 302 298 297 293 299 301 302
314 314 313 313 314 313 312 312 311 311 311 311 311 312 312 311 311 310 310 308 308 308 309 309 303 298 289 307 301 304 303 300 307 310 313 314 310 300 300 296 293 295 288 289 294 300 300
313 313 313 312 313 313 313 313 312 311 311 310 309 310 311 312 311 311 312 310 308 307 306 307 304 293 296 294 300 302 304 306 303 305 306 306 303 294 296 293 286 289 288 289 292 296 298
313 313 312 312 312 312 312 312 312 312 311 310 309 309 309 311 311 311 307 299 294 292 295 292 293 292 295 299 302 302 305 301 299 298 294 301 294 289 292 295 294 294 290 291 292 297 295
312 312 312 312 312 311 312 311 311 311 311 310 309 308 309 310 311 311 301 296 296 296 288 295 295 296 299 299 293 299 304 294 292 290 296 296 289 294 296 297 295 294 290 289 292 297 295
311 312 311 311 311 311 311 310 310 310 310 309 308 308 309 309 311 302 298 298 302 302 289 292 296 295 295 297 292 295 299 297 290 289 289 291 292 297 295 294 293 290 290 288 288 292 292
311 311 310 311 311 311 311 310 310 310 310 309 308 308 309 309 301 299 296 302 302 300 283 286 291 294 297 296 291 300 301 297 292 288 289 294 296 295 293 292 292 287 292 291 291 288 283
310 310 310 310 310 310 310 310 310 310 309 308 308 308 308 308 299 299 301 302 301 298 274 289 291 301 298 292 294 294 301 297 291 291 291 290 293 293 291 293 293 290 293 291 290 287 284
309 310 310 310 310 310 309 309 309 309 309 308 307 308 307 303 302 304 305 301 300 278 275 286 291 291 291 293 292 294 298 301 299 294 295 293 297 295 293 296 296 297 291 289 289 286 278
308 309 309 309 309 309 309 309 309 308 308 307 307 309 306 305 296 305 304 297 276 276 287 287 289 293 292 288 291 293 290 288 290 284 285 290 291 295 296 291 294 293 286 279 280 280 276
308 308 308 308 309 309 308 308 308 308 308 308 308 308 307 304 303 303 297 284 273 283 283 292 292 292 288 292 292 293 291 288 292 289 286 284 284 291 294 291 292 290 285 277 274 275 277
307 307 308 307 308 308 308 308 308 308 308 308 306 299 298 302 304 299 290 275 276 277 287 288 290 286 288 292 292 292 289 288 292 290 283 281 283 292 294 296 294 290 283 287 278 276 273
306 306 307 307 307 307 307 307 307 307 308 307 295 295 296 304 302 295 282 282 282 289 291 291 286 288 285 289 289 287 288 292 291 294 292 286 281 290 293 296 295 293 293 281 277 272 272
305 305 306 306 306 306 307 307 307 307 307 306 294 292 298 303 300 289 278 279 288 294 293 290 288 287 286 288 289 286 286 290 292 293 293 289 284 286 292 289 289 290 288 285 284 279 275
305 305 305 305 305 306 307 307 307 306 307 299 289 285 299 302 289 287 284 289 295 293 295 293 292 291 287 287 286 286 286 288 293 293 290 292 287 283 286 293 295 293 289 288 279 276 275
304 304 304 305 306 306 306 306 306 306 306 293 289 288 298 299 288 284 290 292 294 292 292 291 290 291 291 288 285 287 288 293 294 292 290 292 283 276 281 286 291 289 289 289 285 280 273
304 303 303 305 306 305 306 305 306 305 306 294 288 280 288 295 294 292 289 290 290 294 293 293 291 291 289 288 289 287 287 293 294 292 299 295 286 280 276 280 284 284 287 288 285 277 279
304 302 303 305 305 305 305 305 305 305 304 292 286 282 288 280 286 288 289 292 291 291 293 293 290 290 288 284 286 286 288 289 292 295 291 289 278 280 285 287 283 284 286 286 282 287 281
304 302 304 305 305 305 305 304 305 305 301 288 283 281 284 283 287 285 291 290 290 292 291 290 288 291 289 286 286 286 288 287 287 288 287 288 279 279 279 286 284 282 285 287 285 285 285
304 302 303 305 305 304 304 305 305 304 298 286 286 287 287 283 286 288 286 287 290 294 293 294 292 290 289 290 290 290 291 291 290 288 286 285 281 278 274 282 281 278 283 285 286 286 287
304 303 303 304 305 304 304 304 304 304 298 289 287 286 281 279 280 282 284 287 290 292 291 296 294 290 292 294 293 291 291 290 290 288 289 284 282 280 275 278 270 282 288 288 287 287 288
304 304 303 304 304 303 303 304 303 304 302 291 290 286 281 276 280 281 283 286 290 293 293 294 295 293 295 293 287 284 284 286 287 288 287 288 284 279 276 273 279 283 287 286 284 284 289
305 305 304 304 304 303 303 304 303 303 303 292 290 290 285 279 278 283 282 285 283 289 291 294 296 298 295 290 286 280 277 281 281 286 288 288 286 281 276 274 275 284 288 291 290 281 290
305 305 304 305 303 302 303 303 303 304 303 294 290 292 286 279 282 283 279 279 285 287 285 292 289 292 294 287 283 279 279 284 280 281 281 284 285 280 278 274 280 287 291 292 280 283 291
305 305 304 304 303 302 302 303 303 303 304 295 291 293 289 284 283 286 286 282 283 285 282 287 289 292 290 287 286 284 281 283 281 283 283 281 282 282 282 279 275 291 291 287 291 294 293
306 305 305 304 303 302 302 303 303 303 303 300 293 296 296 290 285 289 290 290 288 288 286 287 286 288 295 287 286 287 285 283 281 279 284 281 284 282 283 282 289 291 291 294 295 296 296

GFSGBSN_sfc_thetae_069.txt.gz
Theta_e
316 315 314 316 315 315 315 314 312 311 313 315 315 314 313 313 313 314 313 313 311 310 310 309 309 309 305 294 294 306 312 310 310 308 307 306 302 301 299 300 303 298 303 305 308 308 308
316 315 314 315 314 314 315 313 312 312 311 314 314 313 314 312 312 312 313 312 311 310 309 309 309 309 299 287 301 305 306 305 305 308 307 308 302 303 300 301 301 303 303 303 306 305 304
315 315 314 314 315 313 314 313 311 311 311 312 313 312 313 311 311 310 310 311 310 310 309 309 309 305 297 292 302 304 305 303 306 307 305 310 309 302 301 298 304 303 298 302 302 303 302
315 314 314 313 314 313 314 313 312 312 311 311 311 311 311 312 311 311 310 308 308 308 309 309 309 302 290 304 302 302 306 304 306 312 311 313 313 303 300 301 300 297 297 292 300 302 302
314 314 313 313 312 313 313 313 312 313 313 310 309 309 311 311 312 311 312 311 308 308 308 309 301 296 289 305 300 302 304 300 303 309 312 313 311 299 299 293 290 294 288 291 294 302 300
313 313 313 312 312 312 313 312 312 312 312 311 309 309 310 310 311 312 312 310 309 306 306 307 304 291 295 293 299 301 303 304 302 302 304 305 304 294 293 291 284 288 288 291 292 297 299
312 312 312 312 312 312 312 312 311 310 311 311 309 308 309 309 310 312 306 298 293 291 295 291 292 291 295 298 301 301 304 301 299 297 294 300 292 287 291 293 291 291 290 290 292 297 296
312 312 312 311 312 311 311 311 311 311 310 309 309 308 308 309 310 311 300 293 294 294 287 295 294 295 298 299 292 298 303 293 291 288 295 296 286 292 295 296 293 292 289 289 293 296 296
311 311 311 311 311 311 311 310 311 310 310 309 309 308 308 308 309 301 296 295 300 299 288 292 296 294 294 296 292 294 299 295 289 287 289 289 293 296 295 293 291 289 288 288 290 292 292
310 311 311 310 310 311 310 309 310 310 309 309 309 308 308 307 301 298 295 301 301 299 283 286 291 293 296 296 291 300 300 296 291 287 290 293 296 294 293 292 291 286 292 292 290 288 284
309 310 310 310 310 310 310 310 309 309 309 309 308 308 308 307 297 298 300 301 300 296 268 290 291 301 297 292 293 293 301 298 288 289 288 289 292 291 291 292 293 289 293 291 290 287 285
309 309 309 309 309 309 309 309 309 309 308 309 308 308 307 303 301 304 305 302 299 276 268 286 292 291 291 293 292 294 295 300 299 292 293 293 296 294 292 295 294 295 290 289 288 286 278
308 308 309 309 309 309 309 309 309 309 308 308 308 308 306 304 295 305 304 297 275 275 287 285 288 290 289 288 291 293 291 290 288 284 285 291 291 295 295 291 293 291 285 278 278 279 277
308 308 308 308 308 308 308 308 308 308 308 308 308 307 307 304 302 304 298 282 272 283 284 292 291 292 288 291 291 291 288 288 291 290 285 284 283 291 293 290 288 287 285 277 274 275 277
307 307 307 307 307 308 308 308 308 308 308 308 305 297 298 300 302 300 288 273 275 276 285 287 289 288 287 291 292 292 290 289 291 292 284 282 283 293 295 295 292 288 286 285 277 275 273
307 306 306 306 307 307 307 308 307 307 308 307 294 294 295 302 301 298 281 279 278 287 290 291 284 287 285 289 289 286 289 293 292 294 291 286 282 290 293 296 294 290 291 281 275 270 272
307 305 305 306 306 307 307 307 307 307 307 305 293 291 297 302 299 289 277 278 286 292 292 289 287 286 285 286 287 285 284 289 292 292 291 287 284 286 292 289 289 290 288 284 283 278 275
306 305 304 305 306 306 307 306 307 307 307 298 289 283 298 300 284 284 283 288 294 292 293 291 291 289 286 286 285 284 285 287 292 294 288 289 285 282 286 292 296 294 290 285 277 276 274
306 304 303 305 306 306 306 306 306 306 306 292 288 287 297 297 280 282 288 291 293 291 291 290 289 290 290 286 284 286 287 292 293 292 289 290 284 280 282 287 291 290 291 288 283 278 272
306 304 303 305 305 305 305 305 306 306 305 293 286 280 287 291 290 286 285 288 289 293 292 291 289 290 288 286 288 285 286 291 292 292 299 295 284 280 276 279 284 286 289 288 283 276 277
305 304 303 305 305 305 305 305 306 305 302 291 284 281 284 278 286 288 287 289 288 288 291 291 288 289 287 284 285 285 287 288 291 294 291 289 282 281 284 286 283 283 286 288 280 287 281
305 304 304 305 305 304 305 305 305 304 299 287 281 280 283 280 285 286 289 288 288 290 290 288 287 290 288 285 285 285 287 286 286 287 286 287 278 280 279 285 283 282 285 287 287 286 286
305 304 305 304 304 304 304 304 305 304 296 285 285 286 284 282 281 285 283 286 289 291 294 293 291 289 288 289 289 288 289 290 289 287 285 284 281 277 274 281 281 278 282 284 286 286 287
305 304 305 304 304 303 304 304 304 304 297 288 286 284 279 278 280 280 282 285 288 289 289 293 293 289 291 294 292 291 290 289 289 286 288 283 280 279 273 277 269 281 287 287 286 287 288
305 304 305 305 304 303 304 303 304 304 302 290 288 284 280 275 280 280 282 283 287 290 290 293 296 293 294 291 286 283 283 285 286 287 286 287 283 279 275 272 278 282 285 285 284 284 289
305 305 305 305 304 303 303 304 304 304 303 291 289 288 283 277 277 281 280 282 283 286 289 292 296 296 293 291 287 279 277 280 279 283 287 287 285 280 276 274 274 281 288 289 288 280 290
306 305 305 305 303 302 303 303 303 303 303 293 290 291 285 279 281 281 278 278 282 285 283 288 289 291 293 289 284 279 279 283 279 279 280 283 285 278 278 274 279 286 290 290 279 281 291
306 305 305 305 303 302 302 302 303 303 303 295 293 295 290 281 283 285 285 280 282 282 280 287 288 290 290 287 286 283 280 282 280 282 281 281 281 280 278 276 273 289 290 285 288 292 292
306 305 305 304 303 302 302 302 303 303 303 299 288 296 296 290 285 288 289 289 287 287 285 287 286 286 290 289 287 287 285 284 281 279 283 280 283 281 282 281 287 289 291 292 294 294 295

GFSGBSN_sfc_thetae_072.txt.gz
Theta_e
316 315 314 314 314 314 314 313 312 312 312 312 314 314 314 313 311 311 313 313 312 311 310 309 309 309 303 293 292 305 311 313 310 310 303 305 303 298 296 300 302 296 301 307 309 308 307
315 315 314 314 314 313 314 314 313 312 312 312 312 313 312 313 311 311 310 311 311 310 310 309 309 309 298 286 299 303 305 306 305 305 304 306 304 303 298 300 300 302 302 305 308 306 304
315 315 314 314 313 314 314 313 313 313 314 312 311 311 311 312 312 311 311 309 310 310 310 310 309 304 295 291 301 302 305 304 305 304 302 307 309 302 300 298 303 302 299 302 304 303 303
314 314 314 313 313 312 313 313 313 313 313 313 311 309 310 311 312 311 312 312 308 308 309 309 310 300 290 302 301 301 303 302 305 306 307 310 312 303 300 300 299 297 297 292 299 302 303
314 314 314 313 312 313 312 313 312 312 312 312 311 310 309 310 311 312 312 311 309 308 308 309 300 295 287 304 299 300 302 300 302 306 311 312 310 300 300 293 289 294 288 288 295 301 301
313 313 313 312 312 312 312 311 311 311 312 311 310 309 308 310 310 311 312 310 309 306 306 306 303 290 294 293 298 299 303 304 299 301 303 303 302 293 292 289 283 286 284 285 290 297 299
313 312 313 312 312 312 312 311 312 311 312 311 310 309 308 309 309 310 305 297 292 292 294 290 291 290 294 298 300 300 303 300 298 298 291 297 290 287 291 290 289 290 288 288 291 298 296
312 312 312 312 311 312 311 311 310 312 311 311 310 309 308 308 308 310 299 291 292 293 286 294 294 294 297 298 291 297 303 293 291 289 291 293 286 291 295 295 291 291 287 286 292 297 296
312 311 312 311 311 311 311 310 310 310 311 310 309 308 308 309 308 300 295 294 299 299 288 292 295 294 293 296 292 294 298 294 289 287 288 289 291 296 294 292 290 287 286 286 288 292 293
311 311 311 311 311 311 310 310 310 309 309 309 308 308 308 308 300 297 294 300 300 298 282 286 290 292 296 296 290 300 299 295 289 287 290 292 294 294 292 291 291 285 291 290 290 288 284
310 310 310 310 310 310 310 309 309 310 308 308 308 308 309 306 295 297 300 301 299 295 272 289 290 301 296 292 292 293 300 296 288 289 289 290 290 292 291 292 292 288 292 290 289 286 284
310 310 309 310 309 309 309 309 309 309 308 308 308 307 307 303 300 303 304 303 298 274 269 285 292 291 290 291 292 293 295 299 297 290 290 291 298 295 292 294 293 293 289 290 288 285 279
310 309 309 309 308 308 308 308 308 308 308 308 308 308 306 302 295 305 304 297 274 272 285 284 286 289 289 288 289 290 290 288 287 283 283 291 292 295 294 291 293 289 285 277 277 276 277
309 308 308 308 308 308 308 308 308 308 308 307 307 306 306 303 303 304 299 282 272 281 282 291 291 290 287 289 290 290 288 287 292 286 285 285 282 291 292 289 287 288 286 276 273 274 276
309 307 307 307 307 307 307 307 308 308 307 308 304 297 299 300 304 302 288 271 275 277 284 287 290 286 287 291 291 290 288 287 290 292 284 283 284 294 295 294 291 287 285 284 276 273 272
308 307 306 306 306 307 307 307 307 307 307 307 294 293 295 303 303 297 280 280 277 285 288 290 282 286 284 287 288 287 289 293 290 292 291 286 283 290 293 295 293 289 289 282 276 270 271
308 306 305 305 306 306 307 307 307 307 307 304 292 290 297 304 302 289 275 279 285 291 291 288 285 285 284 285 286 283 283 289 292 290 290 287 285 287 292 288 286 289 284 283 282 278 274
308 306 304 305 306 306 306 306 307 306 306 297 289 283 297 300 288 282 282 287 293 291 292 290 290 288 285 285 284 285 284 286 292 293 287 288 284 283 286 292 293 291 288 283 276 274 273
308 306 304 304 305 305 306 306 306 306 304 292 286 286 295 296 279 281 287 290 291 290 290 289 288 289 288 285 283 285 286 291 293 292 289 289 282 279 281 286 289 288 290 287 282 279 272
307 305 304 304 305 305 305 306 305 305 303 292 285 280 286 289 288 284 284 286 288 292 291 291 288 289 287 285 287 284 285 290 291 291 298 293 283 279 276 279 284 285 289 290 284 283 278
307 305 304 304 305 304 305 305 305 303 300 290 283 280 282 278 283 284 285 288 288 287 290 291 288 289 286 283 284 283 286 287 290 295 290 288 281 281 282 284 282 283 286 289 286 287 283
307 305 305 304 304 304 304 305 305 303 298 286 281 280 281 279 283 283 286 284 287 289 289 288 287 289 288 284 284 284 286 284 285 287 286 286 279 282 281 285 283 282 284 287 288 289 288
306 305 306 305 303 303 304 304 304 302 295 284 284 284 282 281 280 283 283 283 287 289 292 292 290 288 287 288 289 288 288 289 287 286 284 283 280 278 275 281 281 277 282 284 286 289 289
306 305 306 305 303 304 303 304 304 302 295 287 285 282 278 278 280 280 282 284 286 287 286 291 292 287 290 294 290 289 289 288 288 286 287 282 280 279 274 277 270 282 287 286 286 287 289
306 305 306 305 303 303 303 304 304 304 300 289 286 283 279 275 279 280 280 282 285 288 288 290 295 292 293 289 286 283 282 283 284 285 284 285 282 278 275 271 278 281 284 285 284 284 288
306 305 306 305 303 303 303 303 304 304 301 290 288 287 282 277 276 281 278 280 279 282 285 290 295 292 292 289 287 282 276 279 279 281 285 285 284 280 276 273 273 279 287 288 287 280 288
306 306 306 305 303 303 303 302 303 303 301 292 288 290 284 279 280 280 277 277 280 282 283 287 288 289 292 287 285 283 280 281 278 279 279 282 284 281 280 275 279 284 286 289 278 281 290
307 306 306 305 303 303 302 303 303 303 302 293 289 293 287 281 281 284 284 280 281 281 277 285 287 289 290 286 286 282 279 280 278 280 280 280 278 280 279 279 274 287 288 284 287 290 291
307 306 306 305 303 303 302 303 302 303 302 296 287 293 295 288 285 287 288 288 286 285 282 282 285 285 288 288 288 286 283 282 280 278 281 279 282 280 281 281 287 288 290 291 292 292 293

GFSGBSN_sfc_thetae_075.txt.gz
Theta_e
316 315 315 315 313 315 314 314 314 313 314 313 312 312 313 313 313 311 311 312 312 312 311 310 309 309 303 294 292 304 312 313 313 311 305 306 303 301 298 302 303 300 304 307 309 309 307
316 315 315 314 314 313 314 314 314 313 313 315 313 310 312 312 313 311 311 310 311 311 310 310 310 308 298 287 299 303 305 307 306 307 304 306 304 303 301 302 301 303 303 305 308 307 305
316 315 315 314 314 313 312 314 313 313 313 314 313 311 310 312 312 312 312 312 309 310 310 310 309 304 295 291 302 302 304 305 305 304 301 306 309 303 303 300 305 304 299 303 305 305 303
316 315 314 314 313 313 313 313 313 312 312 313 312 312 310 310 311 311 312 312 309 307 308 309 310 301 289 302 302 302 304 303 306 306 306 310 311 304 301 304 301 299 299 294 301 304 304
316 315 314 314 313 313 313 312 312 311 312 313 312 311 309 309 311 310 312 312 310 308 308 309 300 296 288 304 299 300 303 300 302 306 309 311 308 301 300 295 293 295 289 290 295 303 302
316 315 314 313 313 312 312 312 312 311 313 312 311 311 310 308 310 310 311 310 309 305 306 306 303 290 294 293 298 300 304 304 300 300 302 302 298 295 294 292 284 287 288 290 292 298 300
316 315 313 313 312 312 312 311 311 311 312 312 311 311 309 308 309 309 305 297 292 291 295 290 290 291 294 298 300 299 303 300 298 296 291 296 289 288 292 293 292 291 290 290 294 299 297
316 314 313 313 312 312 311 311 310 310 311 311 310 309 308 308 309 308 298 291 292 293 285 293 294 293 297 298 291 297 303 292 291 289 294 291 287 292 295 295 292 292 288 289 293 298 297
316 313 312 312 311 311 311 310 310 310 311 310 309 308 308 309 307 300 294 294 299 298 287 291 295 294 294 296 291 294 298 293 289 288 291 289 291 295 295 293 291 289 288 288 289 294 295
315 313 311 311 311 310 310 309 309 310 310 310 308 308 308 307 301 296 293 299 300 298 279 286 289 293 296 296 289 300 300 294 288 287 291 292 295 292 292 292 291 287 292 291 290 290 285
315 312 310 311 310 310 309 309 309 309 309 309 308 308 308 306 295 295 300 300 299 294 268 289 290 301 296 292 292 293 301 296 288 288 290 289 291 290 290 292 294 290 293 291 290 287 288
314 311 310 309 309 309 308 309 308 308 308 308 308 308 307 302 299 303 303 303 296 275 269 285 291 290 288 291 291 293 295 299 296 291 291 291 298 296 294 295 294 293 291 290 288 288 283
313 310 309 308 308 308 308 308 308 308 308 308 308 308 304 302 295 305 304 297 276 272 285 285 286 289 287 286 288 289 290 288 284 283 284 291 292 296 296 292 294 291 287 281 280 280 279
312 310 308 307 307 307 307 308 308 308 308 308 307 308 305 302 304 304 298 282 271 282 284 292 291 288 286 288 289 289 287 284 289 288 287 284 282 292 294 292 289 289 286 279 275 276 279
312 309 308 306 306 307 307 308 308 308 307 307 304 296 297 300 304 302 289 271 274 276 284 288 290 287 288 289 289 289 287 287 289 289 284 285 284 294 295 295 292 289 283 286 278 277 277
311 309 307 306 305 306 307 307 307 307 307 306 293 292 295 304 304 296 282 280 277 284 288 290 284 287 284 287 288 288 288 291 289 292 293 288 284 291 293 295 294 290 290 282 279 274 274
311 308 307 305 305 306 306 306 307 307 306 304 292 290 296 304 302 290 275 280 285 290 291 288 287 286 285 285 285 283 285 290 293 291 291 289 287 287 292 288 288 288 285 284 284 280 277
310 308 306 305 305 305 305 306 307 306 305 297 289 283 296 302 289 284 281 285 293 290 291 291 290 288 285 285 284 283 284 287 293 292 287 289 287 284 287 292 293 291 287 285 279 277 275
310 308 306 305 305 305 305 306 306 305 303 291 286 286 294 299 278 280 286 289 291 290 290 289 287 288 288 285 283 285 286 291 293 291 288 289 282 280 282 287 289 288 290 286 283 280 275
309 307 306 305 304 304 305 305 305 304 303 291 285 280 285 288 286 283 283 285 286 292 290 290 288 288 286 285 287 285 285 290 292 291 297 292 284 280 276 279 284 284 287 287 285 281 279
309 307 306 305 304 303 304 305 305 302 302 289 282 280 282 277 283 282 284 287 286 286 290 290 287 288 285 282 283 283 286 288 290 295 290 288 279 279 283 284 284 285 286 287 284 286 283
308 306 306 305 304 303 304 304 304 301 298 285 281 280 280 279 281 281 285 284 286 287 288 287 286 288 286 284 283 283 286 285 285 287 286 286 279 281 279 285 284 283 284 286 288 288 287
308 306 307 305 304 303 303 304 303 301 294 283 282 283 282 281 280 280 280 282 287 287 291 291 289 287 286 288 288 287 288 288 287 286 284 284 281 279 276 282 281 278 283 284 286 288 289
307 306 307 305 304 304 303 304 303 301 294 286 284 282 279 277 280 280 281 283 284 285 286 289 291 287 289 293 290 288 288 287 287 286 287 282 280 280 275 279 272 283 287 286 285 287 290
307 307 307 305 304 304 304 304 304 301 299 288 285 283 279 276 279 279 280 281 283 285 286 289 294 291 291 288 285 283 282 283 284 285 284 285 282 279 275 273 278 282 285 284 284 285 288
307 307 306 305 304 304 304 303 304 302 299 289 287 286 282 277 277 281 278 278 278 279 283 288 292 292 291 288 287 282 276 279 279 282 285 285 284 280 277 274 273 279 287 288 288 281 289
308 307 306 305 304 303 303 303 303 303 300 291 288 288 284 279 280 279 277 277 280 280 279 284 285 287 290 285 283 283 281 281 278 278 279 281 283 280 281 279 279 284 286 289 279 282 290
308 308 306 304 304 303 303 303 303 303 301 292 290 291 285 281 281 284 284 280 280 279 277 281 285 289 290 285 283 283 280 280 278 280 280 280 278 278 280 279 275 287 288 285 287 290 292
307 308 306 304 303 303 303 303 303 302 302 295 288 292 293 285 283 287 287 286 285 284 281 280 284 284 288 286 288 287 283 281 280 277 281 279 282 280 281 281 287 288 290 291 292 293 294

GFSGBSN_sfc_thetae_078.txt.gz
Theta_e
318 317 316 316 315 314 314 314 314 313 314 315 315 313 310 312 313 313 312 311 312 311 310 310 309 310 305 295 294 306 312 314 314 311 307 306 305 304 299 304 307 305 307 309 311 311 311
319 317 316 315 315 314 313 313 314 313 313 314 314 313 311 310 312 313 312 311 311 311 311 310 310 308 300 290 304 307 306 308 308 309 306 307 305 305 303 303 304 307 306 308 310 308 308
320 318 316 315 314 314 313 313 314 312 312 314 314 313 311 310 311 312 312 312 308 309 310 310 308 305 297 294 305 308 306 306 306 308 304 307 309 305 305 302 307 306 300 305 306 308 307
320 318 316 315 315 314 313 313 312 312 313 313 313 312 311 309 310 311 311 313 311 307 309 310 309 304 293 303 308 305 306 305 306 307 307 308 310 306 305 307 305 301 302 295 304 307 306
320 318 316 315 314 313 313 313 312 312 311 313 313 312 311 309 309 311 311 312 311 308 308 309 304 300 292 306 300 304 306 301 303 305 308 308 308 302 304 299 296 299 292 295 297 306 304
321 319 316 314 314 313 313 312 312 311 312 312 312 311 311 309 309 310 310 310 310 308 308 308 305 295 297 294 300 302 306 305 300 299 301 300 299 297 299 296 287 291 293 294 295 301 303
321 319 316 314 313 313 312 312 311 311 311 312 311 310 310 309 309 309 309 306 299 297 300 293 294 293 295 300 303 301 303 300 300 297 291 296 290 290 294 296 296 296 293 292 297 301 300
321 318 316 313 313 312 312 311 311 310 311 311 310 310 309 309 310 308 305 298 297 298 290 296 297 296 298 300 293 298 303 294 294 288 294 292 288 295 298 297 296 296 293 294 297 301 300
321 318 315 313 312 311 311 311 310 310 310 310 310 309 309 309 308 306 300 298 304 303 292 293 296 295 296 298 292 293 298 294 290 288 290 289 292 297 296 295 294 294 293 294 294 299 300
320 317 315 312 311 311 310 310 310 310 310 309 309 309 309 307 303 303 299 303 305 303 288 288 291 294 297 297 291 299 300 295 290 288 291 292 295 294 295 293 295 290 297 297 295 294 289
320 317 314 312 311 310 309 309 309 309 309 309 308 308 308 306 303 300 302 306 305 301 278 289 291 302 298 293 293 294 301 297 289 291 293 290 291 290 292 294 297 292 297 295 295 293 292
319 316 313 311 310 309 308 308 308 308 308 308 308 308 307 305 306 304 306 306 302 285 277 286 292 290 289 292 292 294 295 300 298 294 293 293 297 294 295 298 297 298 295 294 294 292 285
317 315 312 310 309 308 307 308 308 308 308 308 308 307 307 306 300 306 306 301 285 282 288 286 287 290 288 287 289 290 291 290 289 286 285 291 291 296 298 295 296 297 293 285 282 283 283
317 314 311 310 309 307 307 307 308 308 308 308 308 308 306 305 306 306 303 290 283 285 287 292 290 288 284 289 288 289 288 287 292 291 288 286 283 291 298 295 292 294 293 287 278 280 284
316 313 311 309 308 307 306 306 307 307 307 306 306 306 305 304 306 305 294 286 285 286 290 290 289 286 286 289 289 290 289 288 290 292 287 286 285 294 296 298 296 291 290 290 285 284 285
315 312 310 309 307 306 306 306 306 307 306 305 304 302 302 305 305 299 291 285 287 288 292 292 286 289 286 288 288 288 290 293 291 293 295 291 285 292 295 297 297 295 294 287 288 280 279
314 311 309 308 307 306 305 305 306 306 306 305 302 298 301 305 304 293 288 287 290 293 294 291 289 289 289 288 290 289 289 292 294 293 296 293 291 288 294 291 292 292 291 291 290 286 282
314 311 309 307 307 306 305 305 306 305 304 302 300 293 300 303 291 289 291 290 294 294 295 294 294 292 291 291 289 289 289 291 297 296 291 293 292 286 288 294 296 295 292 293 287 284 285
313 310 308 307 306 305 305 305 305 304 304 300 297 295 299 300 289 291 293 293 294 294 294 293 291 293 293 291 288 290 291 295 298 295 292 294 289 283 284 289 293 291 293 292 290 288 285
313 310 308 307 306 305 304 304 304 303 304 300 295 290 293 295 294 292 291 291 291 296 294 294 292 293 292 290 292 290 290 293 297 296 297 296 290 287 284 287 291 287 290 292 290 286 287
312 309 307 307 306 305 304 304 303 301 304 297 292 289 291 289 290 291 292 291 290 290 295 295 292 292 290 288 289 289 291 292 294 296 294 294 288 287 287 288 289 288 289 291 287 290 286
310 308 308 307 305 305 304 304 302 301 301 294 289 288 288 288 288 290 289 290 290 291 292 291 291 291 292 289 289 289 292 292 292 293 293 292 288 287 286 288 288 286 289 291 291 291 291
311 308 308 307 305 305 304 304 302 301 297 292 290 291 293 285 287 290 288 287 289 290 294 294 293 292 291 292 293 294 295 294 294 293 291 290 289 286 283 285 286 283 288 289 290 293 292
308 308 307 306 305 304 304 304 302 299 297 294 291 292 290 285 288 287 285 287 288 288 288 292 296 293 295 298 297 295 295 293 294 292 293 289 288 287 284 284 277 287 291 291 290 291 293
308 308 307 306 305 305 305 304 302 300 298 294 291 290 289 284 286 284 284 285 287 289 290 290 296 297 297 295 292 288 289 289 289 290 291 291 290 285 282 281 285 287 288 288 287 288 293
309 308 307 306 305 305 305 304 303 301 299 295 292 292 290 285 283 285 284 284 286 287 289 291 295 295 297 295 291 284 283 285 284 287 290 289 290 287 284 279 277 285 292 293 292 285 295
309 308 307 305 305 305 304 304 303 302 299 296 293 293 291 286 286 285 284 284 285 286 287 288 288 292 297 293 288 285 284 287 283 284 285 287 288 285 285 281 284 291 292 294 283 287 296
309 308 307 305 305 304 304 303 304 301 299 297 294 296 293 288 286 287 287 285 286 286 284 286 288 290 292 289 288 288 286 287 286 287 286 286 285 284 285 282 279 293 291 288 293 297 298
309 308 306 306 304 304 304 304 303 303 300 297 293 297 297 292 288 291 291 291 289 289 288 286 286 286 288 288 289 290 288 288 286 283 288 285 289 287 288 287 293 294 297 298 297 297 298

GFSGBSN_sfc_thetae_081.txt.gz
Theta_e
321 320 318 317 316 316 315 314 314 315 314 314 315 314 314 311 311 313 313 313 312 311 311 311 309 310 307 297 296 306 311 313 314 312 306 306 305 304 300 303 305 304 306 309 311 312 312
323 321 319 317 316 315 315 314 314 313 313 313 315 314 313 311 310 312 312 313 309 311 311 310 310 309 302 292 305 308 307 309 310 309 306 306 305 306 302 302 302 306 306 307 310 310 311
324 322 320 318 316 315 315 314 313 313 313 313 314 313 313 311 309 311 312 313 311 309 311 311 310 306 299 296 307 308 307 307 309 309 304 306 308 305 304 301 307 305 302 306 308 309 308
325 323 321 318 316 315 314 314 313 313 312 313 314 313 312 312 310 309 312 312 312 308 309 310 310 305 295 306 309 306 307 305 308 306 307 308 309 305 304 305 304 302 302 297 304 307 308
326 324 321 319 316 315 314 314 313 313 312 312 313 312 312 311 309 309 310 312 311 309 309 310 306 301 293 307 301 304 307 302 303 304 306 308 306 302 304 299 296 298 292 295 299 307 306
327 324 321 319 316 315 314 313 313 312 311 311 312 311 311 310 309 309 310 311 310 309 308 307 305 296 298 296 301 302 307 304 301 299 300 299 298 294 298 296 287 291 293 295 296 302 304
327 324 321 319 315 315 313 313 312 311 311 311 311 311 310 309 309 310 309 307 300 298 301 295 295 294 296 301 303 301 304 301 300 294 291 294 289 288 295 297 296 295 294 293 297 303 301
328 324 321 318 315 314 313 312 311 311 310 311 310 310 309 309 310 309 308 300 299 301 292 297 298 297 299 301 293 299 303 295 294 288 294 291 288 295 298 298 297 296 294 293 298 301 300
327 324 321 318 315 314 313 312 311 310 310 310 310 309 309 309 307 306 304 300 306 304 294 294 297 296 297 299 293 294 299 295 291 287 290 290 291 297 297 295 295 295 293 294 294 298 300
326 323 320 318 315 313 312 311 310 310 309 309 309 308 309 308 303 305 301 304 307 305 288 289 292 295 298 298 292 298 299 295 292 287 290 292 295 295 295 293 295 291 297 297 296 294 289
325 323 319 317 314 312 311 310 309 309 308 309 308 308 309 307 305 301 303 307 307 302 279 290 292 303 298 293 294 292 300 297 290 290 291 289 291 292 292 294 297 293 298 297 297 294 293
325 322 319 316 313 312 310 309 308 308 308 308 308 308 308 305 308 306 307 307 304 285 277 286 293 291 291 293 293 295 296 299 299 293 295 293 298 295 296 298 298 299 296 295 295 293 285
324 321 317 314 312 311 309 308 308 308 308 308 308 308 307 309 301 308 308 301 285 283 290 286 287 290 289 289 290 291 291 291 289 285 285 290 291 295 299 295 298 296 292 285 283 283 283
322 319 316 314 312 310 309 308 308 307 307 307 309 308 306 308 308 308 304 292 283 288 288 292 289 289 287 290 289 291 290 289 294 291 288 286 282 293 298 296 293 293 292 286 278 280 284
320 318 315 313 311 309 308 308 307 306 306 307 308 309 307 306 308 307 296 286 286 288 293 290 289 286 287 289 290 290 290 290 293 295 288 287 285 294 297 299 298 293 290 293 288 288 286
319 317 314 312 310 309 308 307 306 306 306 307 306 304 304 307 307 302 292 287 289 293 295 294 287 291 286 288 288 289 290 294 292 295 298 293 285 292 296 299 298 295 297 287 290 280 279
319 316 313 311 310 308 307 307 306 306 305 307 305 297 303 307 307 296 288 291 293 295 296 292 291 289 290 290 290 289 290 293 295 294 297 295 292 288 295 291 292 293 291 292 292 288 282
318 315 313 310 309 308 307 306 306 305 306 304 303 292 302 306 292 292 293 294 296 295 297 295 296 294 293 293 292 291 290 293 298 297 292 295 292 286 289 296 298 297 294 293 287 284 287
317 315 312 310 308 307 306 307 306 306 306 305 299 295 299 301 289 293 295 295 296 295 295 294 293 295 295 293 290 292 293 297 299 296 293 295 290 283 286 292 295 292 295 295 294 291 288
315 314 311 309 308 307 306 306 306 305 306 304 299 290 295 295 298 294 293 293 293 297 295 296 294 295 294 292 294 292 292 296 299 298 298 297 292 289 285 288 293 289 292 294 291 287 287
315 313 310 308 307 306 306 306 305 304 305 302 296 295 297 290 293 295 295 294 292 291 296 297 294 294 293 290 291 291 294 294 297 298 296 296 289 289 289 289 291 290 291 292 289 290 287
314 311 309 308 307 306 306 305 303 304 304 298 293 292 293 294 294 294 292 293 292 293 294 293 293 293 294 291 292 291 293 294 293 296 296 296 290 289 287 291 290 287 290 291 292 292 292
313 310 309 308 307 306 305 304 303 304 302 296 295 295 295 290 293 293 292 293 293 295 295 297 295 294 293 293 295 296 297 297 297 295 294 293 291 288 285 287 287 284 289 290 292 293 293
312 309 309 308 306 306 305 303 301 304 300 298 297 296 294 287 291 292 291 292 292 292 293 296 297 295 297 301 299 298 297 296 296 295 296 292 291 290 285 286 278 289 293 292 291 293 295
311 309 308 307 306 305 305 303 302 301 300 298 295 294 294 289 292 288 289 291 291 292 293 294 298 298 300 297 293 290 290 291 292 293 294 294 292 287 283 283 287 289 290 289 288 289 294
310 309 308 307 306 305 305 303 302 300 299 298 296 296 295 290 288 291 289 290 290 291 291 293 297 298 300 296 292 286 284 287 286 288 293 292 293 288 285 280 278 288 293 295 294 285 297
310 309 307 306 305 305 305 304 302 301 300 300 296 297 296 288 289 289 287 287 289 290 292 292 292 296 299 293 288 286 285 289 284 284 286 287 288 285 285 282 286 292 294 296 284 288 296
310 309 307 306 306 305 305 304 303 301 301 300 296 299 297 291 289 290 290 288 288 288 288 289 291 293 294 290 288 288 287 288 287 289 288 287 286 285 286 283 280 295 293 287 294 298 298
309 308 307 306 306 305 304 304 302 301 300 300 295 299 301 295 290 293 293 294 291 291 290 290 289 288 289 290 292 292 289 290 288 284 291 285 290 287 289 288 295 296 296 299 300 298 299

GFSGBSN_sfc_thetae_084.txt.gz
Theta_e
325 324 322 321 319 318 317 316 315 314 314 314 314 315 314 314 311 311 313 314 313 312 312 312 311 311 306 298 296 306 309 310 311 310 306 304 302 302 298 300 302 302 305 307 308 310 309
327 326 324 322 320 318 317 316 315 314 314 314 313 315 313 313 312 310 312 313 313 311 311 312 310 309 302 292 305 307 306 308 309 308 305 305 303 305 302 300 299 304 304 306 308 306 309
329 327 325 323 321 318 317 316 315 314 314 313 314 314 313 313 312 310 311 313 313 312 310 312 312 308 299 296 306 307 307 308 308 308 303 306 307 301 302 300 304 304 300 303 306 306 306
330 329 326 324 321 318 317 316 315 314 313 313 312 313 313 311 311 310 309 312 312 312 310 311 312 305 294 305 307 304 306 306 307 307 304 308 308 302 301 304 302 299 299 294 303 305 307
331 331 327 325 322 319 317 316 315 314 313 312 312 312 312 311 310 309 309 311 312 312 309 310 305 301 293 307 301 303 305 301 303 304 305 307 304 299 300 295 294 296 290 293 297 305 304
331 330 329 324 322 319 317 316 314 314 313 311 312 312 311 310 309 309 310 310 310 308 308 306 303 295 298 295 300 302 305 304 300 299 299 297 296 290 295 293 285 289 291 293 293 300 303
330 330 329 324 322 319 317 315 314 313 312 311 311 311 310 309 309 310 309 306 299 297 300 295 294 294 296 300 303 300 303 300 300 295 289 293 287 286 292 295 295 295 292 292 296 302 300
329 329 329 324 321 319 316 315 314 313 311 311 311 310 309 309 310 309 307 300 299 300 292 298 297 297 299 300 293 298 303 294 293 287 289 290 286 293 298 297 295 294 292 292 297 302 300
328 328 328 324 321 318 316 314 313 312 311 310 310 309 308 309 308 306 303 301 306 304 292 294 297 296 296 298 293 294 298 295 291 287 290 288 291 295 296 294 292 292 290 292 293 297 298
328 328 328 324 321 317 315 313 312 311 310 309 309 308 308 308 302 305 300 305 307 306 287 289 292 296 298 297 291 298 300 296 292 288 291 291 294 293 294 293 295 290 296 296 295 291 286
328 328 326 323 320 316 314 313 311 310 309 308 308 307 308 308 304 300 303 307 307 301 276 290 292 301 299 294 293 294 300 297 289 290 291 289 292 292 292 294 297 293 298 296 295 291 291
327 327 325 322 319 315 314 312 310 309 308 308 308 308 307 304 307 305 308 307 303 285 275 285 293 291 291 293 294 295 296 298 298 293 294 292 297 295 294 298 297 298 295 294 292 290 279
326 326 324 321 318 315 313 311 309 309 308 307 308 308 307 308 301 308 308 301 285 280 290 285 286 290 290 289 291 292 291 291 288 284 285 289 290 295 297 294 296 294 289 280 278 275 277
325 325 324 320 316 314 312 310 309 308 307 307 308 308 306 307 308 308 304 291 281 287 287 291 289 290 287 290 290 292 291 289 293 291 286 284 281 291 297 294 291 291 289 281 275 275 278
325 324 321 318 315 313 311 309 309 308 307 308 309 307 306 306 308 307 295 284 284 288 292 289 289 287 286 289 290 290 290 289 292 294 287 285 284 294 297 298 296 290 285 289 284 283 279
324 323 319 317 314 312 310 309 309 308 307 308 305 304 302 307 308 302 292 286 287 294 295 293 287 289 284 287 287 288 289 293 292 295 295 291 282 291 296 298 297 294 294 283 284 274 274
317 321 319 315 314 312 310 309 308 308 307 307 303 297 302 307 306 296 287 290 293 296 297 293 291 289 288 288 288 288 289 293 295 294 295 293 289 288 294 290 289 290 288 289 288 283 277
319 320 317 315 313 311 309 308 308 308 307 305 302 291 303 306 292 292 291 294 295 295 297 296 295 294 291 291 289 290 289 292 297 296 291 293 290 283 287 294 296 294 291 289 280 280 281
321 319 316 314 312 310 309 308 308 307 308 304 297 294 301 302 288 291 294 294 296 295 295 295 294 295 295 292 288 291 292 297 298 295 292 293 289 282 282 288 292 290 293 293 291 286 280
313 317 316 313 311 310 309 308 307 307 308 302 298 288 293 295 295 292 292 292 292 298 296 296 295 295 293 291 293 290 291 296 298 297 299 296 290 285 278 282 288 285 289 291 288 280 283
316 317 315 312 310 309 308 307 307 307 307 302 296 293 294 287 291 293 295 294 292 291 296 296 294 294 292 288 290 290 292 293 297 298 294 293 285 283 286 288 288 288 289 289 284 287 280
313 314 314 311 309 308 307 307 306 305 307 297 291 291 293 293 294 293 293 292 292 293 294 292 292 294 293 290 290 289 292 291 291 294 291 293 284 285 282 289 288 285 288 288 289 290 290
313 315 313 311 309 307 307 307 305 306 305 295 294 295 292 292 291 291 291 292 293 295 296 297 295 293 292 293 293 293 294 295 293 292 291 290 287 282 278 285 285 280 286 288 289 290 290
311 314 312 310 308 307 306 306 304 307 305 298 295 294 291 285 289 290 292 294 293 294 293 296 297 294 295 299 297 295 293 293 292 291 293 289 287 285 278 280 271 285 291 290 288 290 292
311 313 311 309 307 307 306 305 304 306 305 297 295 293 291 286 288 289 291 292 292 292 293 295 297 296 298 295 290 287 286 287 290 290 290 291 287 282 278 277 282 286 287 287 285 286 291
310 312 310 308 307 306 305 304 303 305 304 297 295 295 292 288 285 291 289 290 288 289 290 293 297 296 297 293 289 281 280 284 283 286 290 291 289 283 280 277 275 285 290 292 290 280 293
312 311 309 308 306 306 304 303 303 302 301 298 294 296 294 285 286 288 286 285 288 289 290 293 291 293 296 290 286 282 282 286 280 281 281 283 284 280 280 280 283 289 292 292 278 282 292
312 310 309 307 306 307 304 303 302 302 302 300 295 298 295 287 287 290 290 286 285 286 285 287 289 291 291 287 287 285 283 284 282 284 283 283 282 281 281 277 276 291 289 284 290 293 294
311 309 308 307 307 306 305 304 303 302 302 301 293 298 298 291 288 293 293 293 290 290 287 288 288 288 289 287 288 288 285 285 283 279 288 281 286 283 284 285 291 292 291 293 294 294 294

GFSGBSN_sfc_thetae_087.txt.gz
Theta_e
327 327 326 326 323 321 320 318 317 316 316 315 314 314 316 313 313 312 311 314 314 313 312 312 311 311 305 297 296 306 311 310 309 309 304 302 298 298 296 298 301 301 303 306 309 311 309
330 330 328 327 324 323 320 318 317 316 315 315 314 314 314 314 313 312 310 312 313 314 311 312 312 312 300 291 302 305 305 308 307 307 304 303 299 302 299 299 298 301 304 305 307 308 307
331 330 330 328 326 324 321 319 317 316 315 315 314 313 314 313 312 312 310 311 313 313 312 310 312 307 299 295 302 303 307 307 307 306 302 305 304 301 301 299 302 302 299 303 305 306 304
331 331 331 331 328 324 321 319 317 316 315 314 313 313 313 312 311 311 310 309 312 312 312 310 311 303 293 305 303 302 304 305 307 307 303 304 307 301 299 302 300 297 298 293 302 304 305
331 330 331 330 330 325 322 319 317 316 315 314 312 312 313 311 310 309 309 311 312 312 311 309 303 299 291 307 300 301 303 301 303 304 304 303 304 297 299 294 292 295 289 291 297 304 303
328 330 330 329 329 326 323 319 317 316 315 313 312 311 311 310 309 309 309 311 311 309 307 306 304 293 297 295 300 301 304 304 300 300 297 295 295 289 292 292 285 288 290 292 293 299 300
326 328 329 328 328 326 323 319 317 315 314 313 311 311 310 309 309 310 307 303 296 294 298 293 294 293 295 300 302 301 303 300 299 296 288 291 288 285 288 291 293 293 292 291 295 301 299
323 325 328 328 327 325 322 319 317 315 313 311 311 311 309 308 309 309 306 298 297 296 291 297 297 297 299 300 293 298 302 294 293 287 288 289 286 292 295 294 294 294 292 291 297 300 297
321 324 326 327 326 325 321 318 316 314 312 311 310 309 308 308 308 303 300 301 303 301 291 294 297 296 296 299 292 294 298 296 290 287 288 286 291 296 295 294 292 292 290 291 292 297 299
318 321 324 326 326 325 320 317 315 313 311 310 309 307 307 308 302 303 300 303 303 301 285 288 292 295 298 297 290 298 300 296 291 288 290 289 294 295 293 292 292 287 295 295 295 292 286
317 321 323 326 325 323 319 317 315 313 310 309 308 307 307 309 303 300 303 303 302 296 266 290 292 302 299 293 293 292 300 297 290 291 292 289 291 292 292 293 296 291 297 295 295 291 290
317 320 323 325 324 322 318 316 314 312 310 308 307 307 308 303 304 304 304 302 298 279 271 283 292 291 291 293 294 295 296 298 297 293 293 291 297 294 294 297 296 298 295 294 293 288 278
314 320 319 324 324 320 317 315 313 311 309 308 307 309 306 307 300 303 303 297 282 272 288 285 283 291 290 289 291 292 291 290 288 279 282 288 289 293 297 291 296 295 287 280 279 276 277
314 317 319 322 323 319 316 314 312 310 309 307 309 309 307 306 304 303 299 285 272 285 284 290 289 289 285 290 290 291 290 288 290 289 286 279 276 290 295 293 290 291 288 278 274 274 277
315 317 318 321 321 318 315 313 311 310 308 309 309 302 302 303 304 301 293 275 277 282 289 287 288 283 283 288 288 288 286 287 290 291 282 280 284 294 296 296 294 288 281 288 281 280 276
315 316 317 322 320 317 314 312 310 309 308 310 300 302 299 305 303 297 288 283 283 292 294 292 284 287 281 284 284 285 286 290 291 293 293 287 283 291 295 296 296 292 293 281 278 274 274
313 316 318 321 318 315 313 311 310 309 308 310 300 296 301 306 302 294 283 283 290 295 296 292 288 287 284 284 286 284 287 290 292 292 292 290 286 286 293 288 289 289 287 288 286 282 277
313 314 315 319 316 314 312 310 309 309 308 305 298 289 301 304 290 289 284 291 296 293 295 294 292 291 287 287 285 286 287 290 294 293 288 290 286 283 284 292 294 292 291 289 278 279 278
313 313 317 317 314 313 311 310 310 309 308 299 295 293 300 301 283 284 290 293 295 293 293 293 292 293 293 290 287 288 290 296 296 293 289 290 283 275 281 286 290 288 291 291 288 284 278
312 312 314 315 313 311 311 310 310 309 310 301 292 286 293 295 292 286 288 289 290 295 294 294 292 292 290 288 290 288 289 295 296 295 299 295 287 280 275 280 286 283 288 290 286 278 281
311 313 315 315 313 310 310 310 310 309 310 299 293 287 290 285 286 288 290 292 290 289 293 294 291 291 289 285 287 289 291 291 295 298 293 291 281 280 285 287 286 286 287 288 282 285 280
310 312 311 313 312 310 309 309 309 309 309 295 288 289 289 287 290 288 290 289 290 291 291 290 289 292 290 287 287 288 290 289 289 291 289 290 281 282 280 287 286 284 286 287 287 288 287
309 310 309 314 312 309 309 309 309 308 304 292 291 291 289 289 287 286 287 290 293 293 293 295 293 291 290 291 291 290 290 291 292 291 288 288 284 279 276 283 283 279 284 286 287 288 288
309 309 312 314 311 308 309 308 308 308 302 294 292 291 286 284 285 287 290 292 294 292 290 294 294 291 293 296 294 292 290 290 291 290 293 288 287 284 276 278 270 283 288 289 288 289 290
308 309 310 312 310 308 308 308 307 308 306 294 292 291 287 282 285 287 290 289 289 290 290 293 294 293 295 293 287 284 284 285 287 289 288 288 285 281 277 275 280 283 286 286 284 285 289
308 308 310 312 309 307 307 307 306 308 307 294 291 292 289 286 282 285 287 287 285 284 287 291 294 294 294 291 287 280 277 281 281 284 288 289 287 281 278 275 274 283 288 290 288 279 291
309 309 308 310 308 307 307 306 306 307 305 295 291 294 288 283 283 285 283 284 285 286 285 289 289 291 293 287 283 279 280 284 279 280 280 281 282 278 278 275 281 287 289 291 277 280 291
308 309 311 310 308 307 305 304 305 307 303 295 291 294 290 283 284 287 287 283 283 283 283 285 287 289 288 284 284 283 280 282 280 282 282 281 278 278 279 275 274 290 287 282 287 291 293
307 312 310 309 307 305 304 303 303 303 303 298 290 296 295 287 286 291 290 290 288 287 285 286 285 287 289 284 284 285 283 282 281 277 285 280 283 281 283 283 290 291 290 293 293 291 292

GFSGBSN_sfc_thetae_090.txt.gz
Theta_e
331 330 330 329 329 327 324 322 320 318 317 316 315 314 315 315 315 313 312 311 313 314 312 311 312 311 304 296 295 306 310 309 310 308 302 299 296 296 292 295 299 298 301 304 307 310 309
329 331 330 330 330 329 326 323 320 318 317 316 315 313 313 314 314 313 312 310 311 314 313 310 312 312 299 289 301 303 304 307 306 305 301 301 298 300 295 296 296 300 302 303 307 307 307
325 327 330 330 330 330 328 325 321 319 317 316 315 313 312 313 312 311 312 310 310 312 313 311 310 307 298 294 302 302 309 306 307 305 300 301 303 298 299 296 300 300 298 300 304 306 305
322 324 326 329 330 329 329 325 321 319 317 316 314 312 312 313 311 311 309 309 311 312 312 312 310 302 292 305 301 301 303 305 306 306 303 304 303 298 299 301 297 296 298 293 302 304 305
317 320 324 325 328 329 329 325 321 319 317 315 314 311 311 311 310 309 309 309 311 312 311 310 301 298 290 306 300 300 300 301 303 304 304 304 301 296 298 293 290 294 288 291 297 303 302
315 317 321 323 326 328 328 326 322 319 317 315 313 311 311 309 309 309 309 310 310 309 306 306 303 291 295 294 298 300 302 303 300 299 298 296 296 290 290 289 282 287 288 291 292 299 300
314 315 318 321 322 326 328 327 322 319 317 314 312 311 310 308 308 309 306 301 295 293 297 292 292 293 295 299 302 300 302 299 299 296 287 292 288 285 288 292 291 292 290 290 295 300 297
312 313 316 319 321 324 327 327 322 319 316 314 311 310 308 308 308 308 304 296 296 295 290 297 296 296 298 299 293 298 302 294 293 287 289 289 285 290 291 293 292 292 290 291 297 299 297
310 312 315 317 320 322 326 326 322 318 316 313 311 310 308 306 308 302 298 300 302 300 289 294 297 295 296 298 292 293 298 295 289 287 287 287 290 295 293 292 292 292 291 291 292 297 298
311 311 313 315 318 319 324 324 320 318 315 312 310 309 308 308 301 303 299 303 302 300 277 286 291 295 298 297 289 298 300 295 290 286 290 290 295 293 292 291 292 288 295 294 294 292 287
309 310 312 314 317 317 322 323 319 317 313 311 310 309 308 308 301 299 301 302 301 293 265 287 290 301 299 293 292 291 299 297 291 291 292 287 293 292 291 292 295 291 297 295 295 291 289
308 309 310 313 312 315 318 322 318 315 312 310 309 308 308 304 303 303 302 301 297 275 267 280 291 291 291 293 293 295 296 298 297 292 292 291 296 294 292 296 296 298 295 294 293 289 282
307 307 309 310 311 314 316 320 317 314 311 310 309 309 306 305 299 302 302 295 276 270 285 281 282 290 290 288 291 292 291 290 288 280 282 288 289 294 296 293 296 295 289 281 280 279 278
306 307 307 309 311 316 318 319 316 313 311 309 309 309 306 306 303 303 297 282 271 282 282 289 288 287 284 288 288 290 289 286 291 288 285 279 280 290 295 292 290 291 288 280 276 275 277
306 306 307 310 313 317 319 317 314 311 310 309 310 301 301 302 303 300 291 272 276 281 287 286 286 282 283 287 287 287 285 286 289 290 281 278 281 294 295 295 294 290 283 287 280 278 276
306 306 307 311 314 316 319 317 313 311 310 310 300 299 298 304 302 295 283 281 281 290 292 290 282 285 279 283 283 284 284 289 289 292 291 285 278 289 293 294 294 290 291 281 279 273 273
305 306 309 312 315 317 317 314 311 310 311 308 299 293 299 304 300 291 277 280 289 294 294 290 287 285 283 283 284 283 285 290 292 291 292 289 284 284 290 286 286 288 285 286 283 280 275
305 307 310 314 313 316 315 313 311 311 311 304 296 288 301 302 288 287 282 289 295 292 294 292 291 290 285 286 284 285 286 288 293 292 287 289 285 280 283 291 293 291 288 286 277 277 276
306 308 311 313 316 315 313 312 311 311 311 299 292 293 300 299 284 282 288 292 294 292 291 292 291 292 290 287 285 287 288 294 295 292 288 289 281 280 280 285 289 287 289 290 286 282 276
306 308 311 312 313 313 312 311 310 311 309 298 291 287 293 295 293 285 287 288 289 294 293 293 291 291 289 287 289 287 287 293 295 293 299 294 285 279 274 279 284 282 287 289 285 276 281
305 308 310 313 315 312 311 310 310 311 310 299 291 285 291 285 285 287 288 290 289 288 292 292 289 290 288 285 286 288 290 290 293 296 291 290 280 278 284 286 285 285 286 286 281 285 280
305 308 310 311 313 311 310 310 310 310 308 295 289 287 287 285 288 286 288 288 288 290 290 288 288 290 289 286 286 286 289 287 288 290 288 289 280 280 279 285 285 283 285 285 286 286 286
306 309 309 310 313 311 310 310 309 310 305 292 291 290 289 287 286 285 286 288 290 292 292 293 291 289 288 289 290 289 289 290 292 290 287 287 283 279 275 282 282 278 283 284 285 286 287
306 308 309 310 313 311 309 309 309 309 302 294 291 289 286 283 285 287 290 291 291 290 290 293 293 290 292 295 294 291 289 290 290 288 290 286 284 281 274 278 269 282 287 287 286 288 288
306 308 309 310 311 310 309 309 308 309 302 293 292 290 286 282 284 287 290 288 289 291 290 292 292 292 294 291 286 283 283 285 286 287 287 287 284 280 276 274 279 282 285 285 282 283 288
306 308 310 309 310 309 309 308 308 309 302 293 292 293 289 285 282 284 286 287 285 284 286 290 292 293 292 289 285 279 277 280 280 282 287 287 285 281 277 275 274 281 287 289 286 278 288
306 307 309 309 310 309 308 306 307 308 303 294 291 294 289 281 282 284 284 284 287 286 284 287 288 290 291 285 282 278 279 283 279 279 279 281 280 277 278 277 280 286 289 289 277 279 289
306 307 308 308 310 308 307 307 307 307 303 294 292 295 289 283 285 287 287 283 283 285 284 286 287 288 287 283 282 281 279 281 279 281 281 280 277 277 278 275 273 288 287 282 285 290 291
306 308 310 311 309 308 306 305 305 308 302 298 291 295 294 287 286 290 290 290 288 287 285 285 284 286 286 283 283 283 282 281 279 276 283 279 282 280 282 281 288 288 287 290 291 289 290

GFSGBSN_sfc_thetae_093.txt.gz
Theta_e
324 325 326 327 329 330 330 330 326 322 321 319 317 316 315 314 314 314 312 312 311 312 314 311 311 312 303 294 294 304 311 308 309 307 301 298 295 294 290 292 295 296 299 300 304 306 308
320 320 321 324 326 327 329 329 329 323 321 319 318 316 314 313 314 312 312 311 310 311 313 310 310 311 298 286 300 301 302 305 305 303 301 300 296 297 293 294 293 297 299 301 303 304 307
316 318 318 318 322 325 326 328 328 325 321 319 317 316 314 313 313 311 310 311 309 310 312 312 309 307 297 293 301 301 307 305 305 304 299 301 302 297 295 293 297 297 295 299 299 303 305
313 314 315 316 319 320 323 325 327 325 322 319 317 315 312 312 311 310 310 308 309 311 312 312 310 301 292 303 300 300 305 304 306 305 303 303 303 299 296 298 296 292 294 290 299 301 304
312 312 313 314 315 317 320 323 325 326 322 319 317 315 312 312 310 308 308 308 310 311 311 310 300 296 290 305 299 299 298 300 302 303 304 304 301 295 295 289 289 290 286 289 294 300 299
311 311 311 312 313 315 318 322 323 326 322 319 317 314 312 311 309 307 309 309 310 308 306 306 302 291 294 293 298 299 301 301 298 298 297 296 295 288 287 288 281 284 287 290 291 298 298
310 310 310 311 312 313 315 319 321 325 322 318 316 313 311 310 307 307 305 300 295 292 296 291 292 292 294 298 300 299 301 298 298 294 288 292 287 283 286 290 289 289 288 288 293 299 295
310 309 309 309 312 311 314 317 320 320 321 318 315 312 311 309 307 309 303 295 295 295 289 297 295 295 297 298 292 297 301 293 292 286 290 288 284 289 291 290 290 290 288 288 295 298 296
310 309 309 308 310 311 312 315 318 319 321 317 314 312 310 308 308 302 298 298 300 298 288 293 296 294 294 297 292 293 298 294 290 287 288 286 289 292 289 288 290 289 289 291 291 296 296
309 308 308 308 308 310 311 314 315 317 319 315 313 311 309 309 301 300 296 303 301 298 274 284 290 293 297 297 288 297 299 294 289 287 290 291 294 290 288 290 291 287 295 295 293 291 287
308 308 309 308 307 308 309 312 312 314 318 314 312 310 309 308 300 297 300 301 299 291 264 285 289 300 297 293 293 293 300 296 289 291 291 288 291 289 289 292 293 290 296 294 293 290 289
308 307 308 307 307 307 308 310 311 314 317 313 311 310 309 305 301 302 301 301 295 273 265 278 290 289 290 293 293 295 296 298 297 293 294 292 296 294 292 295 296 297 294 292 291 289 281
308 307 307 308 306 307 308 309 311 314 315 312 310 309 306 304 297 301 301 293 276 267 283 279 282 288 288 287 290 291 291 290 288 284 283 289 289 294 295 292 296 294 289 282 279 280 280
308 307 307 308 306 307 308 309 311 314 313 310 309 309 306 305 302 302 295 282 267 280 279 287 286 287 282 287 287 289 287 285 290 287 281 282 277 291 294 291 290 288 287 281 276 275 276
308 307 306 306 306 306 309 310 312 315 311 310 309 302 300 301 303 299 287 272 274 280 285 285 285 281 282 286 286 286 284 285 288 290 283 279 283 293 295 295 293 288 285 287 280 279 276
308 307 306 306 307 308 310 312 317 313 311 310 301 299 298 302 301 294 282 280 280 288 289 288 281 283 278 281 282 283 284 288 288 290 289 284 280 288 293 296 295 289 290 282 281 277 273
307 307 307 306 307 308 312 314 314 311 311 308 300 292 299 302 300 290 278 280 286 293 292 288 285 283 283 282 283 282 284 289 290 290 290 287 282 283 289 286 287 289 285 284 283 279 275
307 307 307 306 308 310 312 315 312 311 310 306 296 287 300 300 288 286 281 286 294 291 293 291 290 288 283 284 283 284 284 287 293 291 286 287 284 276 282 289 292 289 286 283 276 276 274
306 306 307 309 309 311 312 313 311 311 310 300 293 292 300 300 279 281 285 290 291 290 290 290 289 291 289 286 284 286 287 293 294 291 287 287 280 272 277 282 288 286 287 287 284 281 275
305 306 306 310 309 312 313 310 310 311 310 299 292 287 293 295 293 284 286 287 288 293 291 292 289 290 288 286 288 286 286 292 294 292 297 292 282 279 274 279 283 282 284 287 283 274 278
305 305 307 309 310 314 312 310 310 311 311 298 290 285 289 285 287 288 286 289 287 287 291 291 288 289 287 284 285 286 288 289 293 295 290 288 280 278 283 284 284 284 284 285 279 283 280
305 305 308 309 311 312 310 309 310 311 307 295 289 286 286 284 287 285 285 287 287 288 289 287 287 289 288 286 286 285 288 285 285 289 287 288 279 279 279 284 283 282 284 284 284 285 285
304 306 308 310 311 311 309 309 310 310 304 292 290 291 289 287 284 284 284 287 289 291 292 292 290 288 287 288 289 289 288 290 289 288 286 285 282 278 275 281 281 277 281 282 283 285 285
304 306 308 309 310 310 308 308 310 310 300 293 290 290 287 283 285 286 288 290 290 290 289 291 291 289 291 294 293 290 289 289 289 287 289 285 283 281 274 277 269 281 285 286 285 286 287
304 306 309 310 312 310 309 308 309 308 302 293 291 289 287 282 285 286 289 288 289 289 290 290 291 291 293 290 285 283 282 284 285 286 286 287 283 279 276 273 278 281 284 283 281 282 287
305 307 308 309 310 309 309 309 309 309 302 294 291 290 288 286 282 283 286 286 284 284 285 289 291 293 292 287 284 279 276 279 279 281 286 285 284 282 277 274 273 279 286 288 285 278 286
306 307 307 308 310 309 309 307 307 309 301 294 291 293 287 281 282 283 284 285 286 285 284 286 287 289 290 284 281 278 278 282 278 278 278 280 280 277 278 276 279 285 287 287 276 278 287
306 307 307 307 310 309 308 308 308 307 301 295 292 294 288 283 283 286 286 283 285 286 284 286 287 288 286 283 281 280 278 280 278 280 279 280 277 277 277 274 273 286 286 280 284 288 288
305 307 310 309 309 309 307 306 308 306 302 298 291 294 294 287 285 289 289 289 288 286 286 284 284 284 286 283 282 282 281 279 278 276 281 279 282 279 280 280 287 288 286 290 290 289 289

GFSGBSN_sfc_thetae_096.txt.gz
Theta_e
316 316 317 318 319 320 321 323 325 327 329 325 321 320 318 316 314 314 314 312 311 311 313 313 310 312 302 293 293 303 310 308 308 306 299 296 294 292 289 290 293 292 295 300 302 306 305
314 314 314 314 315 317 317 318 321 324 326 326 322 319 317 315 314 314 311 312 311 310 311 312 309 310 297 285 297 300 301 303 304 302 298 298 295 295 292 290 291 293 295 296 302 302 303
312 313 313 313 313 314 314 316 319 321 324 326 322 319 317 314 314 314 311 310 309 309 310 312 310 306 296 290 299 301 304 303 303 302 298 300 300 296 293 290 295 295 291 294 297 301 299
312 312 312 312 312 312 313 315 318 320 322 324 322 318 317 314 313 312 310 309 308 310 311 312 310 300 289 302 300 299 304 303 304 304 302 303 303 298 295 296 293 289 292 287 295 300 301
312 312 311 311 311 311 312 312 315 317 319 321 322 318 316 313 313 310 308 308 308 310 310 310 299 295 289 304 298 300 299 298 301 302 303 304 300 294 294 289 285 288 280 285 293 299 297
311 311 311 311 310 311 310 311 312 315 318 320 323 318 315 312 311 309 308 309 309 308 306 305 301 290 293 292 297 298 300 300 297 297 297 296 291 289 289 286 278 280 283 286 288 296 296
311 311 311 310 310 310 310 310 311 312 316 319 321 317 314 312 310 308 306 300 294 292 295 290 290 291 293 297 299 298 300 297 297 293 287 291 285 283 284 288 287 286 286 287 292 298 294
311 311 310 310 309 309 309 309 310 311 314 317 319 315 313 312 309 309 302 294 295 294 288 296 295 294 296 297 292 297 301 291 291 286 289 287 283 289 290 291 289 287 287 289 294 296 294
311 310 310 309 309 309 309 308 309 310 313 314 317 314 312 310 309 304 298 298 300 297 287 292 295 293 294 296 292 293 296 293 289 286 285 284 288 292 289 289 288 287 288 290 290 293 296
310 310 309 309 309 308 308 308 308 309 311 312 316 313 311 309 301 299 296 301 300 296 274 282 289 293 296 296 288 298 299 294 289 286 289 288 292 289 287 289 291 285 292 293 291 290 286
309 309 309 308 309 308 308 308 308 308 310 312 315 312 310 309 300 296 300 300 298 290 263 283 288 299 297 292 292 293 300 296 289 290 290 288 289 288 287 291 292 288 295 293 292 289 289
309 309 309 308 308 308 307 308 307 309 310 311 314 311 310 305 302 300 301 299 294 273 264 277 289 288 289 292 293 296 296 298 297 292 294 290 290 291 292 294 295 295 292 290 290 287 280
309 309 309 308 309 307 308 306 307 308 309 311 313 310 308 306 297 301 300 292 276 266 281 279 282 287 286 286 289 291 291 291 286 281 282 289 291 295 295 290 295 292 285 278 277 278 277
309 309 309 309 308 308 306 306 307 308 309 311 311 310 306 304 302 300 293 283 268 279 278 286 285 286 282 286 286 287 287 285 288 284 278 274 279 290 295 292 290 289 286 278 275 276 277
309 308 309 308 308 307 307 307 307 308 310 311 310 304 301 301 302 297 287 273 273 278 284 284 284 281 281 285 285 285 284 284 287 288 279 279 284 293 294 295 293 289 281 285 279 279 276
309 309 308 308 307 307 306 306 308 311 313 310 302 300 299 303 300 293 283 280 279 286 288 286 280 281 278 281 282 282 283 287 288 290 287 283 283 289 293 295 294 289 289 280 279 273 272
309 308 308 307 307 306 306 309 311 313 310 308 300 294 300 302 298 290 280 279 285 291 291 286 283 281 281 280 281 281 282 288 290 289 288 285 282 284 287 286 286 286 285 283 282 278 275
308 307 307 307 306 307 310 310 314 311 309 305 296 287 300 301 288 288 283 285 292 290 292 290 289 286 283 283 282 282 282 285 291 290 285 287 282 280 281 289 291 289 285 282 277 277 274
307 307 306 307 307 309 310 312 311 311 309 300 292 292 301 299 282 283 284 288 290 289 289 289 288 289 287 284 282 285 286 292 293 290 285 286 280 272 277 282 286 284 286 285 282 279 274
305 306 306 306 309 310 312 311 310 311 308 301 293 286 292 295 291 282 284 286 287 292 290 291 288 289 287 285 287 284 285 291 293 292 296 291 281 278 273 278 282 282 284 285 282 274 277
305 306 306 308 310 313 313 310 310 309 307 299 291 286 288 284 287 287 284 288 286 286 290 290 287 287 286 282 282 284 286 288 292 294 289 287 279 277 282 283 284 284 284 283 278 281 278
306 305 308 310 312 312 311 310 311 309 306 296 288 285 286 284 287 288 288 285 286 287 288 286 286 287 287 285 284 284 286 284 284 288 285 286 278 279 279 283 283 282 283 283 283 284 284
305 306 308 310 312 311 310 310 311 308 303 293 289 290 288 288 283 287 283 287 288 290 290 290 289 287 286 287 288 289 286 289 288 285 285 284 281 278 275 280 280 276 281 281 283 283 284
305 307 308 309 311 310 310 310 310 304 300 293 289 289 286 284 284 285 287 289 289 289 288 289 290 288 289 292 290 289 288 288 287 286 288 284 281 280 274 277 268 280 284 284 284 285 285
306 307 308 309 309 309 310 310 308 304 302 292 290 288 286 284 284 284 288 287 288 288 288 289 290 289 292 288 285 282 281 283 284 285 284 286 282 278 275 272 276 280 283 283 281 282 285
306 307 308 308 310 309 309 309 309 305 302 293 291 290 288 287 283 282 285 286 284 283 285 287 291 292 290 286 283 278 276 279 278 280 285 284 283 280 276 273 272 278 285 287 285 277 285
306 306 308 308 310 309 308 308 309 307 301 294 292 291 287 281 282 283 284 285 285 285 284 285 286 288 289 283 281 278 278 280 277 277 277 279 279 277 277 275 278 283 286 287 275 277 286
305 306 307 309 309 308 308 308 307 306 303 297 291 292 287 282 284 286 286 283 285 286 285 286 287 287 285 282 281 279 278 279 277 278 278 279 276 276 276 274 272 285 284 279 283 286 288
305 307 310 312 309 309 308 307 307 305 303 299 290 294 293 286 285 289 288 288 286 285 285 284 284 284 286 283 281 281 281 278 277 276 279 278 280 279 280 279 286 286 287 288 288 287 286

GFSGBSN_sfc_thetae_099.txt.gz
Theta_e
314 312 312 313 314 314 313 314 314 316 319 321 324 326 322 319 318 314 315 314 313 312 311 314 310 311 303 294 293 303 311 308 308 305 300 297 294 293 288 291 293 292 294 297 301 302 303
313 313 312 312 313 313 313 313 313 313 315 318 321 324 322 319 317 314 315 311 312 312 310 312 310 309 298 285 296 302 301 303 305 302 299 299 295 296 291 290 290 293 293 294 297 300 303
312 313 313 313 312 312 312 311 312 313 313 315 318 322 321 318 316 315 314 311 310 310 310 312 310 305 296 290 300 302 302 303 304 302 298 300 299 293 294 290 295 293 290 293 294 296 300
312 311 311 312 312 311 311 311 310 311 312 314 318 320 321 317 315 314 312 310 309 309 311 312 311 301 290 301 301 301 305 303 305 304 302 303 302 296 292 295 292 288 289 286 293 295 300
313 313 312 312 311 311 311 310 310 310 311 312 314 318 320 316 313 312 308 308 308 311 310 311 300 296 289 304 298 300 302 298 301 302 302 303 300 292 293 288 284 287 281 285 290 296 296
312 312 312 312 311 311 311 310 310 310 310 311 314 317 319 314 313 312 309 308 309 307 306 304 301 291 293 292 297 298 299 300 297 297 296 295 293 288 288 286 277 281 282 286 288 295 295
312 312 312 311 311 311 311 310 309 309 309 310 313 316 316 314 312 311 307 302 295 293 296 290 291 291 293 297 299 297 300 297 297 294 286 291 284 282 284 286 287 287 285 285 291 297 294
312 311 311 311 311 310 311 310 308 309 308 309 311 314 315 312 311 310 304 296 295 294 287 295 295 294 296 297 291 296 301 291 291 285 289 286 283 288 289 288 287 284 284 287 293 296 294
311 311 310 310 310 311 310 310 309 308 309 309 310 313 313 312 310 306 300 298 301 297 287 291 294 293 294 296 291 293 296 293 288 284 285 283 287 291 289 287 286 283 285 288 288 294 295
311 311 311 310 310 310 309 309 308 308 308 308 308 311 312 310 304 300 297 302 301 296 274 282 289 293 296 296 289 298 299 294 290 286 288 286 290 290 287 286 289 284 291 292 291 290 286
310 310 310 310 310 310 309 309 308 307 308 307 309 311 311 308 300 297 300 302 297 290 264 282 288 298 296 293 293 294 301 295 289 288 287 287 289 286 287 288 292 288 295 293 292 290 289
309 310 310 310 309 309 309 309 307 307 307 307 309 311 310 305 303 302 301 298 293 274 264 277 288 288 289 293 293 296 295 298 297 289 289 287 292 292 292 294 294 296 292 291 291 288 281
309 310 309 310 310 310 309 308 307 306 307 307 308 312 308 306 298 302 299 291 276 267 281 279 282 287 286 287 289 291 291 290 286 282 283 288 289 295 295 292 294 292 286 280 278 279 279
309 309 309 309 309 309 308 307 306 307 307 307 309 311 307 305 304 300 293 282 268 278 278 286 285 285 283 286 286 287 286 283 288 284 282 282 282 290 295 292 290 289 286 279 275 277 279
309 309 308 309 309 308 308 307 306 306 305 306 309 304 302 302 303 298 287 272 273 278 283 284 284 281 281 284 285 285 284 284 287 288 281 283 284 294 295 296 294 288 283 287 280 280 280
307 307 308 308 308 308 307 306 306 306 306 307 302 299 299 303 301 293 281 279 279 284 287 286 280 281 279 281 282 282 283 287 287 289 288 286 284 290 293 295 295 291 290 281 281 275 274
306 307 307 308 307 307 307 307 308 309 309 309 299 292 300 303 300 288 276 279 285 290 289 285 282 281 280 280 282 281 283 287 289 289 288 285 285 285 290 287 287 288 286 283 282 279 277
306 307 306 307 306 307 307 309 311 312 311 304 297 286 301 301 286 284 283 284 292 289 291 289 288 285 283 282 282 282 283 286 292 290 285 287 283 281 284 289 291 289 286 283 279 278 276
306 306 307 306 306 307 309 311 312 310 308 300 291 292 301 299 282 283 284 287 289 288 288 288 287 288 286 284 282 284 285 292 292 290 286 287 280 274 279 283 287 286 287 284 283 281 277
306 306 306 308 310 311 312 310 310 310 308 301 293 285 291 295 290 282 283 285 285 290 289 291 288 288 286 284 286 284 285 291 293 292 295 290 282 278 274 279 283 283 286 286 282 278 280
306 306 309 311 314 313 310 310 309 308 307 300 293 288 290 284 287 283 283 286 285 285 289 289 287 287 285 282 282 283 286 288 291 293 289 287 280 278 282 284 284 285 285 285 279 283 280
307 309 311 314 314 311 311 310 309 307 306 296 289 287 287 286 289 284 288 284 285 286 287 285 286 287 286 283 283 284 286 284 284 288 286 286 279 279 279 283 283 283 284 284 285 285 285
308 310 312 313 312 312 310 307 305 305 303 294 291 289 287 289 287 287 286 285 288 289 289 289 288 287 286 286 288 287 287 287 287 286 285 284 281 279 276 280 281 278 282 283 284 285 285
308 309 312 312 312 311 309 306 306 303 300 294 290 288 284 284 286 287 287 287 288 287 287 288 289 287 288 291 288 288 287 287 287 285 287 283 281 280 274 276 269 280 284 284 284 283 285
307 308 309 311 311 311 309 307 306 303 301 291 289 287 286 284 285 284 286 287 287 287 287 287 289 289 291 287 284 282 281 283 284 284 284 285 282 278 275 273 276 280 283 283 282 281 285
306 307 308 309 310 311 311 309 307 304 301 292 289 289 288 286 284 281 285 283 284 282 284 286 291 291 289 285 283 278 275 278 278 280 285 284 283 280 276 273 272 278 285 287 285 278 286
306 307 308 310 310 311 310 309 308 306 302 294 290 290 287 281 281 281 283 284 285 284 283 284 285 287 287 283 281 278 277 279 277 277 277 279 279 277 278 274 278 283 286 287 277 278 287
306 308 309 311 310 310 310 309 307 305 304 295 290 292 288 282 283 284 285 282 285 285 284 286 286 287 285 282 281 279 278 279 277 278 278 279 276 277 277 274 272 286 284 281 284 287 287
306 307 310 311 310 308 309 308 307 305 304 298 289 293 292 286 285 288 287 287 286 285 285 283 284 284 286 283 281 281 280 277 276 276 279 278 280 279 280 280 285 286 286 288 288 286 287

GFSGBSN_sfc_thetae_102.txt.gz
Theta_e
314 314 314 314 314 314 313 313 312 313 314 314 314 317 322 324 322 318 313 314 313 313 311 312 312 311 305 296 295 306 311 313 310 306 300 299 295 294 290 291 293 292 294 296 299 300 301
315 314 313 313 313 314 313 313 312 312 312 313 314 316 320 323 321 316 313 314 311 312 310 311 312 310 300 289 302 307 305 306 305 304 301 301 297 298 293 292 291 293 293 294 297 298 300
313 313 313 313 312 312 312 312 311 311 311 311 313 314 316 322 319 316 314 314 310 310 310 311 312 307 298 295 304 306 305 304 306 304 299 302 302 297 295 291 295 294 290 293 295 296 297
314 313 313 314 313 312 312 310 310 311 311 311 312 313 317 318 318 315 314 312 310 309 311 312 312 305 294 303 307 305 306 305 307 306 304 304 304 298 294 296 293 290 290 285 292 296 298
313 314 313 313 313 313 312 312 310 310 311 310 311 312 316 318 316 313 311 309 310 309 311 312 305 300 291 305 301 304 305 300 303 304 305 304 302 294 291 287 286 288 282 284 288 297 297
313 313 313 312 312 312 312 311 311 310 309 309 310 311 316 317 313 312 310 310 310 308 308 306 303 295 298 294 300 301 303 301 299 299 298 297 295 288 289 285 280 282 283 285 286 293 296
313 312 312 311 311 311 311 311 311 311 309 308 309 310 314 314 313 311 308 305 297 296 300 294 295 294 295 300 302 299 302 299 298 295 287 291 286 283 286 289 289 287 285 285 291 294 294
312 312 312 311 311 311 311 311 310 310 309 309 308 309 312 314 312 310 305 297 297 299 292 298 298 297 299 300 293 297 303 294 292 287 290 287 283 289 290 290 288 286 286 287 292 296 295
311 311 311 311 311 311 311 310 310 309 308 308 308 309 311 313 311 307 302 300 304 302 293 294 297 296 297 298 293 295 298 294 290 287 287 284 287 289 289 286 285 286 286 288 290 295 297
311 311 311 310 310 310 310 310 309 309 307 308 308 309 314 311 304 302 299 305 305 302 288 288 292 296 297 298 292 299 299 295 290 287 288 287 290 289 288 286 288 284 290 292 292 292 288
310 310 310 310 310 310 310 310 309 308 307 306 307 308 312 308 302 298 302 306 303 299 277 287 291 301 298 295 295 295 301 295 287 287 287 287 288 287 285 288 291 288 293 294 294 291 292
309 309 309 310 309 310 310 309 309 307 307 306 307 308 310 305 303 303 305 302 299 285 275 286 292 291 292 294 294 297 296 297 296 288 290 288 294 292 293 294 294 296 292 293 293 291 284
309 309 309 310 310 309 309 308 306 307 306 307 307 309 308 307 299 304 302 298 285 280 285 285 287 290 290 290 291 293 292 292 289 285 284 288 290 294 297 292 296 295 290 283 281 283 281
307 308 307 308 308 309 309 308 306 306 305 305 307 309 307 305 304 303 300 290 280 282 284 289 289 289 288 290 290 290 291 291 293 290 287 286 284 291 296 294 291 292 290 285 277 279 283
307 307 307 308 308 308 306 305 306 305 305 305 306 305 303 302 303 301 294 285 284 284 288 288 288 287 287 289 289 290 290 290 292 292 287 287 285 294 296 297 296 291 287 289 285 287 285
307 307 307 307 307 307 306 306 305 305 305 305 302 300 299 303 303 299 292 285 287 287 290 289 285 287 285 287 288 289 289 292 292 294 294 290 285 291 293 298 297 293 292 287 288 281 279
307 307 307 307 307 307 306 306 306 307 307 307 300 293 300 304 302 294 286 286 289 292 292 290 287 287 287 287 288 288 289 292 294 294 294 291 291 288 292 291 290 292 290 288 287 286 283
306 306 306 306 305 305 306 307 308 309 309 305 297 287 301 302 290 292 288 288 293 291 295 294 292 290 289 289 289 289 288 292 297 295 290 292 291 286 288 293 294 293 290 288 287 282 283
308 310 313 313 309 307 308 309 310 312 310 301 293 292 302 301 285 287 289 290 293 292 293 293 292 292 292 290 287 290 291 296 297 295 292 292 288 285 286 290 292 291 292 291 288 289 283
310 313 315 314 313 312 313 313 312 311 309 305 295 286 293 296 293 288 288 290 289 295 294 294 293 294 292 290 292 289 290 295 297 295 295 294 288 285 283 285 289 287 290 291 289 289 286
310 315 313 312 311 311 310 310 310 309 308 306 296 290 292 286 289 289 290 291 289 289 294 294 292 292 291 288 289 289 292 293 295 294 294 294 286 286 287 288 289 289 289 290 287 288 287
310 314 313 312 310 310 309 309 309 308 307 300 292 291 293 290 291 289 290 291 289 291 292 291 291 291 292 290 290 288 291 291 291 294 292 292 287 286 286 288 288 286 288 288 289 289 290
309 311 313 310 309 309 308 307 307 306 306 298 296 296 295 289 289 288 290 291 291 294 293 294 293 293 292 292 294 294 295 294 293 292 291 290 289 286 283 285 285 284 285 287 288 289 289
308 309 311 310 309 308 307 306 305 303 303 298 296 297 292 285 288 289 291 292 292 293 292 293 294 294 294 296 296 296 295 294 294 292 293 289 288 288 284 284 278 285 289 288 287 288 290
307 308 309 311 309 308 308 307 305 303 301 296 295 296 293 286 289 290 291 292 293 293 292 292 294 295 297 294 292 288 289 290 290 290 291 292 289 285 283 282 282 285 288 288 287 286 290
306 307 309 311 310 309 309 308 306 303 300 297 294 295 297 290 289 288 292 292 292 292 292 292 297 298 296 293 290 283 282 284 284 287 291 290 291 288 284 279 277 285 290 292 291 284 291
306 307 309 311 311 311 310 308 308 305 302 299 295 294 295 289 288 287 291 292 293 292 292 293 294 295 295 292 288 286 284 286 283 283 285 287 287 285 284 282 284 289 291 292 283 284 291
306 307 309 311 311 311 311 308 307 306 302 301 295 296 295 289 288 289 289 291 292 294 293 293 293 293 293 290 289 287 286 287 285 286 286 285 284 284 284 282 279 291 290 287 290 292 291
305 308 310 311 310 310 311 308 306 305 304 301 296 296 296 292 289 292 292 292 291 291 293 291 291 291 294 292 290 289 287 286 285 284 287 284 287 286 287 287 290 293 292 293 293 291 291

GFSGBSN_sfc_thetae_105.txt.gz
Theta_e
314 314 314 314 313 313 313 314 313 312 313 312 312 314 314 318 320 323 317 314 315 313 312 311 313 312 306 298 297 309 313 315 312 307 301 298 296 294 290 291 293 291 294 297 299 299 300
314 315 315 315 314 314 313 313 313 312 312 312 312 312 313 316 319 320 315 315 313 312 311 311 312 311 301 292 303 308 309 308 305 303 301 300 297 298 294 292 291 293 293 293 295 296 299
314 315 315 314 314 314 314 313 312 311 311 312 311 312 312 315 318 316 314 315 312 311 310 310 312 309 301 298 304 307 306 304 305 304 299 301 301 297 296 292 296 294 290 292 292 294 295
314 314 314 314 314 314 314 313 312 311 311 310 311 311 311 314 316 315 315 314 311 309 309 310 313 306 297 304 306 304 305 304 306 306 304 304 304 299 295 296 293 289 290 285 291 292 295
313 314 313 314 313 313 312 312 312 312 311 310 310 310 311 312 315 315 314 311 309 309 311 312 307 303 293 306 300 303 305 301 303 304 305 304 302 296 294 288 284 287 282 285 287 292 294
313 313 313 313 313 312 312 312 312 311 311 310 309 309 310 314 316 313 310 310 311 311 309 307 304 295 298 295 301 302 305 303 299 299 298 298 296 289 289 284 279 282 283 285 285 289 292
312 312 312 312 312 311 312 311 311 311 310 310 309 309 309 315 313 311 309 306 298 297 300 295 296 295 296 300 303 301 303 301 299 295 289 293 287 283 286 288 288 287 286 284 287 290 292
311 311 311 311 311 311 311 311 311 310 309 309 309 309 308 311 312 310 307 298 299 301 293 298 298 298 301 301 295 298 303 295 293 287 291 287 283 289 291 291 289 288 285 285 289 292 292
311 311 311 311 310 311 310 311 310 310 308 308 308 308 309 311 311 307 302 300 305 303 294 295 298 298 298 300 295 296 299 296 292 288 288 285 288 291 289 289 287 287 285 286 285 292 295
309 309 309 309 309 309 309 309 310 309 308 308 307 308 312 313 304 304 299 305 306 304 290 289 293 297 299 298 293 302 300 296 291 287 289 287 291 289 288 287 288 284 290 287 289 290 286
308 308 308 309 310 309 309 310 309 307 307 305 306 307 311 308 304 301 302 307 306 300 280 290 293 303 300 295 297 298 302 295 288 289 287 288 288 287 287 288 290 288 294 290 293 291 292
309 309 308 308 309 308 309 308 308 308 307 306 306 308 310 306 304 303 306 307 301 289 278 287 294 293 293 296 297 299 297 297 294 289 290 289 294 292 292 295 293 293 292 290 292 291 285
308 308 308 308 308 308 309 309 306 307 306 307 307 308 307 307 299 305 305 299 287 283 287 287 289 293 293 292 293 295 294 291 289 285 286 290 291 295 297 291 293 289 289 284 283 282 282
308 308 308 307 308 308 308 307 306 307 307 306 307 309 308 305 305 303 302 291 283 285 286 291 291 292 289 292 292 293 293 290 293 291 290 286 283 289 297 294 290 287 291 284 278 280 283
307 306 308 308 308 308 307 307 307 307 306 306 308 305 303 302 304 302 295 287 286 287 290 290 291 289 289 291 291 292 292 291 293 294 288 287 286 296 297 299 297 292 287 291 287 289 284
308 308 305 306 306 307 307 306 305 304 305 306 303 301 298 304 304 301 294 286 289 290 292 292 287 290 287 289 290 291 291 295 293 296 295 292 285 293 296 299 299 293 294 288 290 282 279
312 315 311 306 306 305 306 304 304 305 306 307 301 294 300 304 303 295 289 289 291 294 294 292 289 289 290 289 291 290 290 294 296 295 297 293 292 290 295 292 290 292 291 291 290 287 283
314 316 315 307 306 306 306 306 308 308 308 305 299 288 301 304 292 293 291 291 293 293 297 295 294 293 291 291 290 290 290 293 298 297 292 294 292 287 289 295 295 294 292 291 288 284 288
314 313 315 311 307 307 306 308 308 310 308 303 293 293 302 302 288 290 292 292 294 293 295 294 293 294 295 292 289 292 292 298 298 296 293 293 290 285 287 292 294 291 293 293 291 293 286
314 313 312 314 310 308 308 308 310 311 310 305 297 287 293 298 296 292 290 291 290 296 296 296 294 296 294 292 294 291 292 296 298 297 296 297 291 288 285 286 290 289 291 292 291 290 288
313 312 312 311 312 314 312 312 311 312 311 308 300 291 294 288 291 292 291 293 290 290 296 296 294 294 293 289 291 290 293 294 296 297 296 296 287 288 289 290 290 290 289 291 288 291 287
310 312 311 312 311 310 310 310 310 309 309 305 298 294 296 292 293 292 291 292 290 292 294 292 292 294 295 291 292 290 293 293 292 296 294 295 288 288 287 290 290 287 289 291 291 291 291
309 311 311 310 310 309 309 308 308 308 309 304 301 301 299 291 292 291 292 293 292 295 295 296 295 295 293 294 297 297 298 297 296 294 293 292 291 288 284 288 287 285 286 289 289 291 291
308 310 312 310 310 308 308 307 306 305 307 306 302 302 296 288 291 291 293 294 294 295 294 295 297 295 296 300 299 299 298 297 296 295 296 291 290 290 286 286 279 287 291 290 289 290 292
307 309 311 311 310 309 308 307 305 303 304 303 301 301 297 290 292 292 293 294 296 296 294 295 296 297 300 297 294 290 290 291 292 293 294 295 291 286 284 283 285 286 288 289 288 288 292
306 308 309 311 311 309 310 308 305 303 302 302 299 301 301 293 291 294 294 296 294 294 295 295 298 301 299 296 292 285 284 285 285 288 294 293 293 289 285 281 278 288 292 294 293 285 293
306 307 309 310 312 311 309 308 306 304 304 303 299 299 301 294 292 293 294 294 297 297 295 296 296 297 298 294 289 287 286 288 284 284 286 288 289 286 286 284 286 292 293 294 284 287 294
306 307 309 311 312 311 308 308 307 306 304 303 299 300 299 295 292 292 292 294 296 297 294 297 295 296 296 291 290 290 287 289 287 289 287 286 285 286 286 283 281 294 292 287 292 295 294
306 309 312 311 311 311 310 307 306 306 306 305 300 299 300 297 293 295 294 294 293 293 296 296 295 295 298 294 293 292 289 290 287 285 290 285 289 288 288 289 293 295 294 296 296 295 293

GFSGBSN_sfc_thetae_108.txt.gz
Theta_e
316 316 315 316 316 316 315 315 314 314 313 312 313 312 312 312 315 319 321 318 317 315 313 312 313 313 307 298 297 312 315 315 313 307 300 297 295 293 289 290 291 288 291 294 296 297 297
316 315 315 315 315 315 315 315 314 313 313 312 311 312 312 312 314 317 319 316 317 315 313 313 314 312 302 292 303 310 309 309 306 303 300 300 296 297 292 291 289 291 291 291 293 293 294
315 314 314 314 314 314 314 314 313 313 313 312 312 311 311 311 313 318 317 316 314 314 312 312 313 309 301 296 304 306 306 304 305 303 298 301 301 296 295 290 294 292 288 291 291 292 291
313 313 313 313 313 312 313 313 313 312 313 312 312 311 311 311 312 317 316 315 313 311 310 311 313 307 297 305 306 304 305 302 305 305 303 304 304 297 294 295 292 288 288 282 290 292 292
311 311 312 312 312 312 312 312 312 312 312 312 312 311 310 310 311 313 316 313 311 310 312 312 308 303 294 305 298 302 303 300 302 303 304 303 301 295 294 287 283 286 278 282 285 292 291
311 311 311 311 312 312 312 312 311 312 311 311 311 310 310 310 314 315 312 311 311 312 310 309 305 296 297 296 300 302 305 303 299 299 297 297 295 289 289 285 273 278 281 284 283 289 290
311 311 310 310 310 311 311 312 311 311 311 311 310 309 310 313 316 311 309 306 300 297 301 294 296 295 297 301 303 300 302 300 298 295 287 292 284 281 284 286 286 285 284 282 286 291 288
311 311 310 310 310 309 309 309 309 310 310 309 309 308 309 310 312 312 306 298 299 301 291 298 298 298 300 302 295 298 303 294 292 287 290 287 283 288 289 289 287 286 283 283 288 290 289
310 310 310 309 310 310 309 309 309 309 309 308 308 308 308 308 311 307 302 301 306 304 294 294 298 298 299 300 295 296 299 296 291 289 288 285 288 291 289 287 285 286 283 284 284 288 290
309 310 309 309 309 310 309 308 306 308 308 307 307 308 309 312 305 304 300 305 307 305 289 288 293 297 299 299 293 302 301 296 291 287 289 287 291 289 288 286 287 282 290 288 285 284 281
309 310 309 308 309 309 309 308 309 308 308 307 307 311 311 310 303 299 303 307 307 300 278 291 293 303 300 295 297 296 301 295 289 289 287 287 289 287 285 287 290 285 291 291 287 286 286
308 307 309 308 309 309 308 309 309 309 308 307 308 310 309 306 305 304 306 307 301 285 273 285 294 294 293 295 296 297 296 298 296 290 290 289 295 292 290 294 294 293 290 289 286 285 281
308 307 307 309 309 309 310 309 309 309 308 308 308 310 308 307 299 305 304 299 285 279 287 285 288 293 292 293 294 295 293 291 289 285 283 289 290 294 295 291 293 290 285 281 280 280 280
315 306 305 308 308 308 307 307 309 308 308 309 309 309 306 305 305 304 301 291 279 285 286 292 292 292 290 293 293 294 292 289 294 291 286 283 278 290 297 291 287 288 288 282 277 279 282
315 310 307 306 308 307 308 308 309 307 308 309 309 305 302 303 305 304 295 285 282 286 291 290 291 288 289 291 291 292 291 290 292 292 286 286 284 295 296 297 296 291 285 290 285 285 282
315 312 308 307 309 309 308 308 306 306 308 308 304 300 299 304 305 301 292 287 287 292 293 292 286 289 286 289 289 290 290 293 292 294 294 290 284 293 296 298 298 293 293 284 285 279 277
315 311 308 307 308 307 307 306 306 307 309 307 303 293 300 305 304 294 288 288 291 294 295 292 290 289 289 288 289 288 289 293 295 294 294 292 290 288 294 290 288 290 287 288 287 284 278
314 309 309 307 307 307 306 306 307 308 308 307 300 288 301 305 292 293 289 291 294 294 298 295 294 292 290 291 289 288 288 292 297 296 291 292 289 283 286 292 293 292 288 288 280 281 282
313 311 308 307 306 305 307 308 308 309 309 303 293 293 303 301 288 289 292 293 294 294 295 294 293 295 294 291 288 290 291 297 297 295 290 291 286 279 281 287 291 289 290 290 289 287 281
313 313 312 309 307 306 306 308 310 310 309 306 296 287 294 296 296 290 290 291 290 297 296 296 294 295 293 290 292 289 291 296 297 295 297 295 288 283 277 281 287 284 288 290 288 281 283
314 313 312 313 311 309 308 309 311 311 311 306 299 290 293 288 290 292 292 293 290 291 296 296 293 293 291 288 289 289 291 292 295 298 293 293 283 283 286 288 287 286 287 288 285 287 281
312 312 311 311 311 313 312 311 312 312 311 303 296 293 294 291 292 291 290 291 291 292 293 292 292 294 293 289 290 288 291 290 289 293 290 293 283 283 281 288 287 284 287 288 288 289 287
310 312 310 311 310 310 309 308 308 309 308 303 300 300 296 292 290 289 290 292 292 294 295 296 294 293 291 292 294 294 293 293 291 290 290 289 286 282 278 285 284 280 284 286 286 288 288
308 310 310 309 310 310 309 308 306 306 307 305 301 300 293 286 289 290 293 295 293 294 293 295 296 293 294 297 296 295 293 293 292 291 293 288 286 284 277 281 272 283 289 288 287 289 290
307 308 310 309 310 310 310 309 306 306 307 303 301 299 295 287 290 291 292 294 294 294 293 295 295 296 297 294 290 287 287 287 288 289 289 290 287 281 277 276 280 283 286 286 284 285 290
306 307 308 310 311 309 309 309 307 307 307 302 299 299 298 290 288 294 292 294 291 291 291 294 297 298 296 292 288 280 278 281 281 284 290 291 289 283 280 276 274 283 288 291 289 280 290
305 306 307 309 310 311 310 308 307 306 305 302 298 299 297 291 290 292 292 292 294 293 291 292 293 293 294 289 285 281 280 284 280 279 280 283 283 279 280 277 281 288 290 290 278 282 291
305 306 309 310 311 312 310 308 307 307 307 303 297 299 296 292 290 293 293 292 293 293 290 293 292 292 291 286 285 284 282 284 281 283 282 282 280 280 280 276 274 290 288 283 288 290 291
305 307 311 312 311 311 309 308 307 307 306 306 298 299 299 293 290 295 294 294 293 292 291 293 292 292 292 289 287 286 283 284 283 279 285 280 284 282 283 284 289 291 289 292 292 290 290

GFSGBSN_sfc_thetae_111.txt.gz
Theta_e
315 314 314 315 314 315 315 315 314 314 314 313 313 312 312 312 312 314 318 320 320 318 315 313 314 314 307 297 296 313 318 318 312 308 300 297 293 290 286 287 289 285 288 291 293 294 293
315 314 312 312 313 313 313 314 313 313 313 313 313 312 311 312 312 314 315 320 318 316 314 314 315 313 301 288 307 311 311 310 306 304 299 298 295 295 289 288 286 289 290 291 293 292 292
314 314 312 312 312 313 312 312 313 312 312 312 312 312 311 311 312 315 318 319 318 315 314 315 314 308 299 292 302 307 307 304 303 303 299 301 300 294 292 288 292 290 286 289 290 292 291
313 313 313 312 311 311 312 310 311 311 312 312 312 312 311 311 311 313 318 316 315 314 313 314 314 305 294 304 301 303 302 302 304 304 302 302 301 296 291 292 290 286 285 279 288 291 292
313 313 312 312 311 311 311 310 310 310 312 312 311 311 311 311 311 313 316 313 312 312 312 312 305 300 291 305 298 301 301 300 301 301 302 302 300 292 292 284 282 282 275 279 284 291 290
313 312 311 310 310 310 309 310 311 311 311 311 310 310 311 311 312 314 312 312 312 311 309 310 306 293 296 295 299 300 300 302 298 298 298 296 291 284 285 284 273 273 278 281 281 287 289
312 312 311 310 310 310 309 306 308 309 309 310 309 310 310 316 316 312 310 308 300 298 300 293 294 294 296 300 303 300 302 299 298 293 285 291 283 279 281 284 284 283 281 280 284 289 287
311 311 311 310 310 311 309 308 308 308 309 309 309 309 310 314 313 311 306 299 297 297 290 298 298 298 300 302 295 298 302 292 291 284 288 285 282 286 288 288 286 285 283 282 285 288 288
310 310 311 310 310 310 309 307 308 309 309 309 308 308 310 313 310 306 302 301 306 302 290 294 297 298 298 299 295 294 298 294 290 288 287 283 286 291 289 287 285 284 282 283 280 287 289
310 309 310 310 309 310 309 307 308 310 309 308 309 308 309 311 304 304 301 306 306 302 284 288 292 297 298 298 293 300 301 296 292 286 289 286 291 289 288 286 287 281 287 288 286 283 273
309 308 308 309 310 309 309 310 310 310 308 309 310 313 312 310 302 299 303 307 304 297 270 290 293 303 300 295 296 296 301 295 289 289 288 287 288 288 285 285 288 285 289 287 286 284 283
316 307 306 309 309 310 310 310 310 308 309 311 310 310 309 305 304 304 306 304 298 281 267 281 294 292 292 294 296 296 295 298 297 290 290 289 295 291 290 292 293 294 289 289 287 285 278
314 308 307 309 310 310 310 310 309 309 309 310 311 310 307 307 298 304 302 296 279 270 285 283 285 292 291 291 293 294 292 290 288 283 279 288 289 292 294 291 294 290 285 279 277 277 279
312 308 309 309 309 309 310 309 309 309 310 312 309 307 305 304 304 302 298 284 271 282 282 291 291 291 287 291 291 293 291 289 293 291 282 283 276 289 296 291 287 287 287 281 276 277 281
310 308 309 309 309 309 310 309 309 310 310 309 307 300 301 303 304 300 289 276 276 282 289 289 289 284 285 290 288 289 288 288 289 289 282 284 281 293 295 297 295 290 286 290 284 285 279
310 309 310 310 310 309 309 308 307 309 310 309 299 296 299 303 301 295 284 282 282 290 292 291 283 286 282 285 286 288 287 290 291 293 292 289 283 292 296 298 297 293 294 284 283 278 277
310 308 309 309 308 307 307 307 307 309 309 309 296 293 300 302 299 289 279 282 289 293 294 290 287 286 286 285 287 285 286 291 293 292 292 290 289 286 292 289 287 287 286 287 285 283 279
309 309 308 308 307 307 306 307 308 309 309 303 294 287 298 301 285 285 283 288 294 292 295 293 291 290 287 288 286 285 286 289 294 293 289 291 287 279 284 291 292 289 287 286 278 279 281
313 309 308 308 307 307 309 308 308 309 310 296 290 292 297 297 280 281 288 291 293 292 293 292 291 292 291 288 285 287 288 295 295 292 288 289 283 276 279 284 288 287 289 288 288 283 278
312 312 309 308 308 308 308 309 309 309 311 300 291 286 289 290 290 283 286 287 288 294 294 294 292 292 289 287 289 287 288 294 295 293 298 294 285 281 275 280 285 283 286 287 284 276 280
313 311 312 311 310 309 309 310 311 312 312 301 293 285 288 279 285 286 287 289 288 288 293 293 290 291 289 285 286 286 289 290 293 296 292 290 281 280 284 287 285 284 285 286 281 284 277
311 312 311 312 313 310 310 311 311 311 310 300 293 287 289 286 288 286 288 287 288 290 290 290 289 291 290 286 286 285 288 287 286 291 289 290 281 282 280 285 284 282 285 286 286 286 285
309 311 311 310 309 309 309 308 308 308 307 299 299 294 291 288 285 284 285 288 290 292 292 293 292 290 288 290 291 291 290 291 290 287 287 286 283 279 277 282 282 278 282 283 284 286 286
308 309 311 311 311 309 308 307 307 307 306 301 299 294 287 283 285 286 291 292 291 292 290 292 293 290 292 294 294 292 291 291 289 288 289 286 284 281 274 277 270 282 287 286 286 287 288
306 307 309 311 311 311 309 307 307 308 308 296 295 293 289 283 286 287 289 290 291 291 290 292 293 293 294 292 287 284 284 284 287 288 287 288 284 279 276 274 278 281 285 285 284 284 289
305 306 307 308 310 311 310 309 308 307 307 296 293 294 292 286 283 288 288 289 287 285 288 292 295 295 293 290 286 278 276 279 280 282 288 288 286 281 278 275 274 281 287 289 287 278 289
304 305 307 308 309 310 311 309 307 308 307 297 293 295 292 286 286 288 286 287 291 288 287 289 290 291 292 286 282 279 278 282 278 278 279 280 280 278 278 274 280 286 289 289 277 280 289
304 305 307 310 311 310 311 309 307 308 307 298 293 295 293 287 287 289 290 286 288 290 287 290 289 289 288 284 282 282 280 282 279 281 281 280 277 277 278 276 273 289 288 282 285 288 290
305 305 308 311 311 311 311 309 308 308 306 304 293 296 296 290 289 292 292 292 291 290 287 290 289 289 290 286 284 283 282 281 280 277 283 279 283 280 281 281 287 289 288 290 290 289 289

GFSGBSN_sfc_thetae_114.txt.gz
Theta_e
316 314 314 313 313 313 313 313 313 313 314 314 313 313 311 311 312 313 314 317 322 321 318 315 316 315 305 296 296 310 318 315 309 305 298 296 291 289 285 286 288 284 287 291 293 293 292
313 313 313 313 313 312 312 312 311 312 311 312 313 312 312 311 311 312 314 317 321 319 316 315 316 313 300 288 306 311 310 309 305 301 298 297 294 294 288 287 285 287 289 289 291 291 292
314 314 314 313 312 312 311 311 310 310 310 312 312 312 311 311 311 313 318 320 318 316 315 316 315 308 298 292 301 308 308 303 302 301 298 300 299 293 291 287 291 289 285 287 288 290 289
313 313 313 313 311 310 310 310 309 309 309 312 312 310 310 311 311 314 319 318 316 315 315 315 314 304 292 303 302 302 301 301 303 303 301 300 300 294 290 291 289 285 283 278 286 290 291
313 312 313 312 311 311 309 309 309 309 309 310 310 310 310 310 311 313 317 316 315 314 315 314 305 299 290 304 298 299 300 299 300 300 301 302 299 291 290 282 277 281 274 277 282 290 289
313 312 312 311 311 311 309 309 309 310 311 311 311 309 310 310 312 314 313 313 313 312 310 309 305 292 296 294 297 299 299 301 298 297 296 294 289 282 283 276 270 272 273 278 279 285 287
312 311 311 310 311 311 309 307 309 310 311 311 310 310 315 317 313 313 312 307 298 296 298 293 293 293 295 299 301 299 301 298 296 292 284 289 281 278 279 283 282 281 280 279 282 287 285
312 310 311 311 311 311 310 308 309 310 310 310 310 313 315 314 313 313 307 299 297 298 290 297 297 297 299 300 294 297 301 292 290 282 287 283 280 285 287 286 284 283 282 281 284 288 286
312 309 310 311 312 311 310 310 311 311 310 309 309 310 313 312 310 305 302 301 304 300 288 293 296 297 297 299 294 294 298 294 289 287 287 283 284 291 288 286 284 284 281 281 280 286 288
310 309 310 311 311 311 311 311 310 309 309 310 309 310 311 311 304 304 301 305 303 300 279 287 292 297 298 298 292 300 302 296 292 286 288 287 289 287 287 286 286 280 287 286 284 284 274
311 309 311 311 311 311 311 311 309 309 311 313 310 309 311 309 300 300 303 305 303 295 268 289 293 303 299 294 295 296 301 296 290 289 287 284 286 287 285 286 288 284 289 287 287 286 284
310 311 312 312 311 311 311 310 310 311 311 312 312 312 310 304 301 302 306 303 297 278 268 281 293 291 291 294 295 296 295 298 297 291 290 288 294 290 289 291 291 292 290 288 288 285 276
311 311 311 311 311 311 310 310 310 310 311 311 310 309 305 305 295 303 301 294 278 271 284 282 285 291 290 290 292 293 292 290 288 282 277 287 288 291 293 289 294 291 285 278 276 275 275
311 310 310 310 311 310 310 310 310 310 311 309 308 306 305 303 301 300 295 282 272 282 281 290 290 290 286 290 290 293 290 287 291 291 283 282 276 288 295 291 286 287 286 281 275 275 279
311 311 311 310 311 310 309 310 310 311 309 308 306 298 299 300 302 298 287 275 276 282 288 287 288 283 284 289 289 291 287 286 288 288 281 282 279 293 294 297 293 290 286 290 284 286 278
310 310 309 309 310 309 309 309 310 310 311 310 295 295 295 301 300 293 283 282 282 289 291 290 282 285 281 284 284 285 285 289 289 291 291 289 282 291 295 297 296 293 294 283 283 277 273
309 310 309 308 308 307 308 309 310 310 310 309 294 289 296 300 297 288 279 281 287 292 293 289 286 284 284 284 285 284 285 289 291 291 292 289 287 286 291 287 286 287 286 286 286 284 277
308 309 308 308 309 308 308 308 309 310 311 300 292 283 296 299 286 283 283 287 294 291 294 292 290 288 286 286 285 284 285 288 293 292 287 288 285 279 284 289 290 288 286 285 279 280 281
310 308 308 308 308 309 310 309 310 310 311 295 288 287 296 295 280 281 287 290 291 291 291 291 289 291 290 286 283 286 287 294 294 291 287 288 282 275 278 283 287 285 287 286 285 281 278
312 313 309 308 308 309 309 311 311 311 312 297 288 281 287 289 288 283 284 286 287 293 292 292 291 291 288 286 288 285 287 292 293 292 298 293 284 280 273 279 283 282 285 285 282 274 278
312 312 313 310 309 309 309 311 311 311 312 298 289 284 286 280 285 286 285 288 287 287 292 292 289 289 287 283 285 285 287 289 292 294 291 289 281 279 283 286 285 282 283 284 280 281 277
311 312 311 312 310 310 310 311 311 310 309 298 289 289 288 285 287 286 287 285 286 288 289 288 288 290 289 285 285 284 287 286 285 289 287 288 281 282 280 285 283 281 283 285 284 285 284
308 311 311 310 310 311 310 308 308 309 306 296 298 294 289 287 284 283 284 288 289 291 291 292 290 289 287 289 290 289 289 289 288 286 286 285 282 279 277 281 281 278 282 282 283 285 285
306 308 310 310 311 309 308 308 307 307 304 297 295 292 287 283 284 285 288 291 290 291 289 291 291 288 290 293 293 291 289 289 289 288 288 285 282 280 274 277 270 281 285 285 284 286 287
304 306 308 309 310 310 309 309 309 308 306 295 293 292 288 283 284 285 287 289 290 290 290 291 292 292 292 290 286 282 281 282 285 287 287 286 282 278 275 273 277 280 284 284 282 282 288
305 305 306 307 308 310 310 309 308 308 305 294 292 292 290 285 283 288 286 287 286 284 287 291 294 294 293 289 284 278 276 278 279 281 286 286 284 280 276 273 273 278 284 288 285 277 287
305 305 305 307 308 309 310 310 309 308 307 295 292 293 291 285 286 287 286 287 289 286 286 287 290 289 290 285 282 279 278 281 277 277 278 280 280 277 277 274 279 283 287 287 276 278 287
305 305 305 307 309 309 310 311 309 307 307 297 293 294 292 286 286 290 290 287 288 288 286 289 288 287 287 283 282 281 279 280 278 280 279 279 277 276 277 275 273 287 286 282 283 286 288
305 305 305 308 310 311 310 311 309 308 307 302 293 295 295 290 289 291 292 292 291 291 289 288 288 287 288 285 283 282 281 280 279 277 282 279 282 279 281 280 285 288 286 288 289 288 288

GFSGBSN_sfc_thetae_117.txt.gz
Theta_e
315 315 314 314 313 313 313 311 312 312 312 312 314 314 313 310 310 311 313 315 318 323 319 317 317 316 305 295 296 309 317 313 305 303 297 295 291 288 283 285 287 283 286 290 292 292 292
315 314 314 314 312 312 312 311 310 311 311 312 311 312 312 310 311 311 313 315 317 321 317 317 317 313 299 290 306 311 310 306 302 301 298 296 293 292 288 286 284 287 288 288 290 290 291
315 314 313 312 311 311 311 311 309 310 310 311 312 312 311 310 311 312 316 317 320 318 316 317 315 307 295 295 303 307 306 301 301 301 296 298 297 292 289 286 290 288 284 286 286 288 288
316 313 313 312 312 312 310 310 309 309 311 311 310 310 310 311 311 315 319 319 317 317 317 316 313 300 291 302 304 304 301 300 302 302 300 299 299 293 289 289 288 284 282 278 284 288 289
315 312 313 312 312 311 310 311 310 309 310 311 310 310 310 310 311 315 316 316 316 317 316 314 303 296 289 303 298 298 299 298 299 299 301 302 298 290 289 281 277 280 273 276 281 289 288
314 312 312 312 312 311 310 311 311 310 311 311 310 309 309 314 316 317 317 315 315 313 310 306 303 290 294 292 296 298 298 301 297 296 295 294 288 281 280 276 270 272 271 276 278 284 286
312 312 313 313 312 311 310 311 311 312 311 310 312 312 312 314 314 314 312 307 299 296 298 293 292 292 295 298 300 297 300 297 295 291 284 288 278 278 278 281 282 280 278 279 282 286 284
312 312 312 312 311 311 311 311 311 311 310 311 315 317 314 314 314 312 307 297 297 297 289 296 296 296 298 299 293 296 300 291 289 282 286 284 280 284 286 285 283 281 281 280 283 287 285
312 312 312 312 312 312 312 312 311 310 310 311 314 314 313 313 311 306 301 299 303 298 288 292 296 296 296 298 293 294 297 295 290 287 287 284 282 290 288 286 284 283 281 282 280 284 286
313 313 312 312 311 312 311 310 311 312 311 310 312 313 312 311 304 302 299 304 302 297 280 286 291 295 297 297 291 300 302 295 291 287 288 286 288 287 285 284 285 280 286 286 284 283 277
313 312 312 312 312 311 310 310 312 312 313 310 311 312 310 308 299 298 301 303 302 292 270 288 292 301 298 294 294 296 301 294 287 288 287 281 285 287 285 286 288 282 289 288 287 285 285
311 312 312 312 311 311 311 311 312 312 312 312 312 311 309 302 299 300 302 301 294 277 266 280 292 290 291 294 294 296 296 299 297 291 291 289 293 291 289 290 290 291 288 288 288 285 275
311 311 312 311 311 311 311 310 311 312 311 309 309 308 304 303 296 302 301 293 277 272 283 282 284 290 289 291 292 293 292 290 288 282 278 288 288 290 292 288 293 291 285 275 272 270 274
312 311 312 311 310 311 311 311 312 311 309 310 308 305 303 302 299 298 293 283 272 281 281 288 288 289 285 289 291 292 292 288 290 290 285 280 277 287 292 290 287 287 286 280 274 275 276
311 311 311 310 310 310 310 311 310 310 311 311 305 297 296 299 301 296 287 275 276 282 286 286 287 283 283 287 288 291 287 285 288 289 281 280 280 290 293 295 294 289 286 290 283 285 276
310 309 309 309 309 309 309 310 311 311 312 310 295 293 294 299 298 292 284 281 282 287 290 289 282 284 280 283 283 284 284 289 289 291 290 286 281 289 293 295 294 292 294 284 282 276 274
309 309 309 308 308 308 308 310 310 311 312 306 293 289 296 298 296 288 279 280 287 291 292 288 285 283 283 283 284 283 284 289 291 290 290 287 284 284 288 285 285 285 285 286 285 284 276
307 308 308 309 309 308 308 309 310 311 311 299 290 283 296 297 285 282 282 286 294 291 292 291 289 287 285 285 284 283 284 287 292 291 286 288 284 278 283 288 289 287 285 284 277 279 279
311 308 307 307 308 309 310 310 311 311 310 293 287 287 295 293 280 281 286 288 290 290 290 289 288 289 289 285 283 285 286 292 293 290 286 287 281 274 278 281 285 284 285 285 284 283 278
312 312 309 308 308 309 310 310 311 311 311 295 287 282 287 288 286 282 284 285 286 292 291 291 289 289 287 285 286 284 286 290 292 291 298 292 282 279 273 279 282 281 282 284 281 274 278
312 311 312 310 309 309 310 310 310 311 310 296 288 284 286 280 284 283 283 286 286 286 290 290 287 288 286 282 284 283 286 288 290 293 290 287 280 278 282 284 284 283 282 283 278 280 277
310 311 310 312 310 310 310 310 310 310 308 295 288 286 285 284 285 284 285 284 285 287 288 287 286 289 287 283 284 282 285 284 284 288 286 286 280 281 280 283 282 281 283 283 283 283 282
308 309 311 310 309 310 309 307 307 308 305 294 293 291 288 285 283 282 283 286 288 289 290 290 289 288 286 287 289 289 289 288 287 284 285 284 281 279 276 280 280 277 280 282 282 284 284
306 308 309 310 310 309 308 309 309 307 303 295 293 290 286 283 283 284 287 288 289 289 288 290 290 287 290 292 291 289 287 288 287 287 287 284 281 280 275 276 269 279 284 284 283 285 286
305 306 307 308 310 310 309 309 309 308 304 295 292 291 287 282 283 285 285 287 288 287 288 290 291 292 292 289 285 282 280 282 284 285 285 285 281 278 274 272 276 278 283 283 282 282 287
306 306 306 307 308 309 310 310 309 308 304 293 291 291 290 284 283 286 285 285 284 283 285 289 292 293 290 287 283 278 275 277 278 280 285 285 283 279 276 273 272 277 283 286 284 277 284
306 306 306 306 308 309 310 310 310 308 307 294 291 292 290 284 286 286 285 285 287 285 285 286 287 288 289 284 282 278 278 280 277 276 277 279 279 277 276 274 278 281 286 286 275 277 284
306 306 306 305 307 309 309 310 310 309 305 297 293 293 292 285 286 289 290 287 287 287 286 288 286 287 286 283 282 280 278 279 277 279 278 278 276 276 276 274 273 286 285 281 283 285 287
307 306 306 306 307 309 310 309 310 310 308 301 293 294 294 289 288 290 291 290 291 290 289 287 286 287 288 283 282 281 281 279 278 277 279 278 281 279 280 280 285 287 286 287 287 288 287